GFSNW_sfc_30mbdewp_000.txt.gz
Dewpoint
51 50 50 51 53 51 46 46 38 42 48 41 42 40 41 41 40 41 39 39 37 36 37 35 34 37 39 40 40 37 39 36 32 32 31 32 27 25 23 22 21 21 19 19
52 51 51 51 52 51 46 40 39 43 46 38 39 39 39 40 40 40 39 39 39 39 38 37 38 39 40 40 41 39 38 34 32 32 32 33 32 30 27 28 27 26 20 19
52 52 51 50 51 51 47 40 35 41 41 38 37 36 37 37 40 40 40 39 39 37 38 39 38 37 40 41 40 39 38 34 31 26 26 29 31 31 32 30 26 25 24 24
54 52 51 50 51 50 48 38 35 38 36 34 35 35 33 34 36 39 38 37 35 35 35 36 35 36 37 37 37 37 37 30 29 29 29 26 26 27 27 28 28 26 22 23
54 53 51 50 50 47 44 39 33 36 34 34 28 31 33 31 32 34 35 37 35 35 34 34 35 35 34 34 35 34 35 29 27 24 22 19 19 20 20 23 25 26 26 25
54 54 52 50 49 47 40 41 38 37 33 32 28 33 32 33 32 34 36 36 35 36 32 30 30 33 36 35 33 31 31 26 23 19 21 23 22 23 24 24 24 23 22 24
54 54 53 51 49 46 45 43 42 36 30 28 30 33 32 32 31 30 32 32 31 33 30 28 28 27 26 26 28 30 30 29 26 23 25 21 24 27 27 27 26 26 26 27
54 54 54 52 50 47 45 45 41 37 29 30 31 31 31 31 31 31 31 30 31 31 27 27 27 25 27 26 32 30 25 27 24 25 26 26 27 28 28 27 27 28 28 29
53 53 54 54 52 48 46 45 47 42 37 33 30 28 29 29 28 28 29 31 34 32 28 28 33 33 30 27 31 35 33 27 27 28 26 25 27 29 30 29 26 34 32 32
52 53 53 54 53 50 50 47 48 45 43 37 36 37 35 32 31 30 28 29 29 32 28 30 32 31 26 29 27 31 31 29 27 26 27 29 30 31 31 26 28 36 36 35
51 52 52 53 53 52 51 50 49 47 46 43 39 38 37 33 34 36 33 33 33 31 30 31 30 29 28 28 28 29 31 31 30 30 28 26 32 32 29 31 34 35 37 35
50 51 52 52 53 53 52 49 49 48 48 46 46 45 44 37 38 38 33 37 34 35 34 32 31 29 28 28 28 29 28 29 30 32 32 34 33 32 33 33 34 34 34 33
49 50 51 52 52 53 52 49 48 47 45 46 45 45 46 45 42 40 37 36 36 35 41 36 35 33 31 31 30 31 32 32 31 31 30 31 32 33 33 33 33 34 35 35
47 49 51 51 52 53 51 49 49 48 45 42 44 45 44 45 46 45 42 39 39 40 40 39 37 35 38 36 35 34 34 34 33 33 34 34 34 34 34 34 33 33 33 33
47 48 49 50 51 52 52 51 50 51 47 41 43 45 44 44 44 45 45 41 40 40 37 37 36 38 37 38 37 35 36 34 33 32 32 33 34 35 35 34 34 33 32 32
44 47 49 50 51 52 50 45 50 51 50 44 38 44 41 42 43 44 44 43 41 41 39 38 39 40 37 36 34 36 34 34 34 33 33 34 35 35 34 34 33 32 33 34
42 45 48 49 51 50 46 43 45 48 51 44 38 40 40 40 43 43 42 43 42 41 39 38 39 39 39 37 32 32 32 33 33 34 34 34 35 34 33 33 35 36 35 34
44 46 48 50 49 47 45 45 47 50 46 44 37 36 37 40 39 39 42 41 41 41 40 40 38 39 39 34 35 34 34 34 34 34 36 35 34 34 34 34 33 32 31 28
48 49 49 46 44 43 42 44 46 46 44 39 37 34 33 39 37 39 39 39 35 41 37 37 38 36 33 33 34 34 35 34 36 36 35 34 34 34 33 32 31 30 29 24
48 46 43 38 40 43 42 42 41 41 40 39 36 39 35 38 37 36 35 35 33 30 33 36 33 32 34 33 34 35 35 35 35 33 32 34 32 33 32 30 30 28 13 11
45 40 37 40 42 41 38 35 35 36 34 36 35 36 35 37 35 35 36 32 32 27 30 31 29 28 30 33 33 32 29 30 32 34 34 34 34 32 30 29 17 12 12 11
42 39 40 39 37 35 32 31 32 31 31 35 33 34 36 36 38 34 34 31 31 25 31 28 23 26 29 27 25 26 28 30 31 29 31 31 32 32 29 18 13 12 10 9
41 38 35 34 32 28 27 24 27 29 32 32 33 32 34 35 37 34 32 28 27 28 26 23 24 29 27 25 25 25 28 30 27 24 22 24 27 22 12 10 9 9 9 11
36 33 26 27 25 26 27 29 30 32 32 32 32 32 31 32 32 32 27 30 28 23 21 21 24 27 26 23 24 26 27 28 22 19 12 9 9 9 9 10 10 11 11 11
33 33 26 27 30 32 30 29 29 29 33 33 31 30 29 29 28 29 28 26 22 23 21 25 27 25 22 20 23 26 28 28 22 16 12 10 9 10 11 13 14 13 12 12
34 32 29 29 30 29 28 29 30 32 33 33 32 27 26 26 26 26 24 23 20 21 25 28 29 25 21 20 22 25 27 29 26 17 12 11 11 11 13 14 14 13 13 12
32 30 32 31 31 32 30 29 31 32 30 28 30 26 22 27 25 24 25 23 24 28 28 29 28 25 18 19 21 24 26 28 27 21 15 15 16 15 14 13 14 13 13 14

GFSNW_sfc_30mbdewp_003.txt.gz
Dewpoint
54 52 51 52 52 52 46 46 35 41 51 41 42 40 41 42 42 43 40 42 40 39 40 35 38 38 39 41 41 37 38 34 31 32 30 31 28 26 24 21 22 22 20 20
54 53 52 51 51 52 45 40 40 43 43 39 39 40 40 41 41 41 40 40 40 39 38 37 39 38 41 41 40 38 38 34 31 31 31 33 31 31 28 28 28 24 21 20
54 54 52 51 50 51 47 42 35 38 38 40 38 37 38 38 41 40 40 39 39 39 38 39 38 38 40 40 39 39 37 32 28 26 26 30 30 31 32 29 25 23 23 24
54 54 53 51 50 50 48 38 33 38 32 33 34 34 36 37 37 39 39 36 37 37 36 35 35 37 37 36 37 35 34 27 28 27 27 25 26 26 27 29 29 24 20 22
54 54 53 52 49 48 43 38 34 36 34 33 32 34 33 33 34 36 37 37 37 36 34 36 35 36 35 34 35 34 33 27 24 19 22 21 18 19 19 21 25 27 28 26
54 54 54 52 49 47 41 42 40 33 33 31 30 32 33 33 34 35 34 36 36 34 30 29 29 33 35 36 33 31 29 24 21 16 24 24 22 24 23 23 22 21 20 23
54 54 54 53 51 47 46 43 43 34 29 31 33 33 33 30 31 32 30 32 32 32 31 29 28 26 26 26 26 30 30 27 26 22 24 22 24 28 27 25 27 27 26 26
53 54 54 54 52 49 45 45 42 36 30 32 33 33 30 30 30 30 30 30 31 32 28 27 26 27 28 29 33 30 27 28 24 24 25 26 27 29 28 27 27 30 30 32
52 53 54 54 53 50 46 45 47 42 31 31 31 29 29 27 27 27 27 30 33 33 29 30 31 30 29 27 31 34 31 29 26 26 24 22 28 30 31 30 23 34 34 34
52 52 52 54 53 50 50 48 49 46 40 37 36 32 30 32 32 30 28 28 28 32 30 32 31 31 28 28 27 29 28 27 26 27 27 27 31 31 31 25 27 34 37 36
50 51 52 53 53 51 51 50 48 47 45 43 40 39 35 34 35 34 33 34 33 31 31 32 31 30 30 28 29 31 30 29 28 28 26 25 32 32 30 32 34 35 34 35
50 50 51 52 53 52 52 49 49 48 47 46 47 46 45 39 40 36 34 38 34 34 34 33 31 30 29 28 27 29 27 30 31 31 29 32 33 33 33 33 33 33 33 33
48 50 51 52 52 52 52 49 48 47 46 45 45 45 46 45 42 41 36 36 37 37 42 36 35 33 31 30 30 31 32 33 32 31 31 33 34 33 34 34 34 34 35 34
47 49 50 51 52 53 51 49 49 48 45 42 44 45 44 45 46 43 42 38 40 41 41 39 36 35 37 35 35 34 34 35 33 33 33 33 33 34 34 34 34 34 34 33
47 48 50 50 51 53 52 51 50 51 46 41 43 45 43 43 45 45 42 40 40 38 36 36 36 39 37 38 37 35 35 34 33 32 34 33 33 35 35 35 35 34 33 32
45 48 49 50 51 53 50 45 50 51 50 43 37 43 41 43 44 45 44 43 41 41 38 37 39 40 37 34 32 35 36 36 36 35 33 33 34 35 34 35 34 33 33 33
44 47 49 50 51 49 46 44 46 50 50 43 38 39 40 41 43 43 43 43 42 41 39 38 38 38 39 37 33 33 35 34 33 34 35 34 35 35 34 34 36 36 35 36
43 46 48 50 48 47 45 45 48 50 46 44 36 36 37 40 40 40 42 41 41 41 39 39 38 39 38 34 35 35 35 34 35 36 36 35 35 34 35 35 34 33 33 33
45 48 49 46 44 42 43 45 47 47 44 38 37 33 32 39 39 39 39 40 35 41 37 38 37 36 33 34 35 34 34 34 35 35 34 34 34 34 34 32 32 32 32 29
49 45 42 38 41 43 43 41 40 40 41 40 36 39 34 37 38 36 35 35 33 31 34 37 33 32 35 35 35 36 35 35 34 31 28 29 31 33 34 34 33 32 31 26
44 39 37 41 42 40 38 35 34 36 33 37 37 37 34 37 33 33 34 31 32 27 28 29 28 27 29 31 32 32 30 30 31 31 32 33 34 33 34 33 32 29 14 12
41 39 40 40 37 34 31 30 32 32 29 35 34 34 36 36 37 33 34 29 30 24 32 28 23 26 28 29 26 26 27 28 30 29 29 30 32 33 32 30 18 14 12 10
40 36 35 33 33 27 25 23 26 28 32 33 33 32 34 35 36 33 32 27 26 28 26 23 23 26 29 26 25 24 27 27 26 22 20 23 31 31 26 20 15 12 9 10
36 32 28 24 23 25 25 25 26 31 31 32 33 32 32 32 32 31 27 30 27 23 21 19 24 26 27 27 23 21 19 24 25 23 19 15 14 11 10 10 9 9 9 11
33 32 19 25 26 29 29 29 28 31 32 31 30 30 29 29 28 29 28 25 22 23 20 23 26 25 22 21 20 21 21 24 27 24 19 15 11 9 9 11 12 12 12 13
34 31 27 29 28 28 27 29 28 32 32 32 29 27 26 25 26 25 24 23 20 20 24 25 28 26 24 21 20 19 22 25 27 27 21 15 12 10 9 12 13 14 14 13
31 29 30 28 28 28 28 29 29 32 30 27 28 23 19 26 24 24 25 23 22 25 27 28 28 26 25 23 19 20 22 24 26 28 24 16 13 12 13 13 14 15 14 13

GFSNW_sfc_30mbdewp_006.txt.gz
Dewpoint
54 54 54 53 52 52 46 45 36 50 50 43 42 41 44 46 46 47 45 38 36 38 39 37 38 38 39 41 40 36 38 32 28 29 30 30 28 26 23 20 20 22 20 20
54 54 54 53 52 51 43 40 41 50 49 39 39 40 41 45 45 43 42 43 42 41 39 37 38 39 41 41 40 37 37 34 30 30 31 33 30 28 26 27 27 24 21 21
54 54 54 53 52 51 46 41 35 38 41 40 39 37 38 39 44 42 41 41 42 40 38 39 37 38 40 39 38 39 36 31 30 28 28 31 30 32 29 26 23 22 24 23
53 53 54 54 52 50 47 38 34 38 34 35 36 36 37 37 37 41 41 38 37 37 35 35 36 38 36 37 36 34 31 27 27 27 27 27 29 29 31 29 27 22 22 23
53 52 54 54 51 49 42 36 34 36 34 33 33 33 33 35 35 36 37 36 34 35 34 34 35 36 35 34 34 33 31 26 24 20 21 22 19 21 21 25 28 29 28 23
53 52 54 54 52 47 41 42 41 32 33 31 30 32 32 33 35 33 34 35 32 31 28 29 33 35 35 35 33 30 27 23 19 14 24 23 18 23 23 20 21 19 18 20
52 53 53 54 52 48 45 44 42 31 29 31 32 33 31 32 32 32 31 33 30 31 31 29 27 27 29 30 29 32 27 26 25 20 23 16 24 28 27 24 26 26 25 28
52 53 53 53 53 50 43 45 40 34 30 33 32 30 30 29 29 29 28 30 31 32 29 27 26 28 28 29 34 31 29 27 25 23 23 25 27 28 28 27 29 31 32 33
52 52 53 53 53 50 45 45 47 40 32 30 32 30 29 28 27 27 27 29 33 33 30 32 28 26 28 27 31 32 29 28 25 26 23 21 26 30 31 29 24 34 35 34
51 52 52 53 53 50 49 47 48 45 34 37 35 29 30 30 31 30 28 27 28 32 32 32 32 31 29 28 27 27 25 25 25 27 25 26 29 31 31 25 22 35 35 34
50 51 51 52 53 51 50 48 48 47 42 42 42 40 33 34 34 35 32 33 33 32 33 32 31 31 29 28 30 29 26 26 25 27 25 22 32 32 30 31 35 33 32 33
49 50 51 52 53 52 51 48 48 48 46 45 47 46 45 39 40 35 33 37 34 34 33 33 31 30 28 28 28 30 28 31 30 28 27 32 33 32 33 34 33 33 33 33
48 49 51 51 52 52 51 48 47 47 45 44 44 44 45 44 43 41 36 37 37 38 39 34 33 32 31 28 29 30 31 32 31 31 32 33 33 33 34 34 34 34 34 34
48 49 50 51 52 52 51 49 49 47 45 41 43 45 43 45 46 43 40 39 41 41 41 38 36 34 34 33 33 32 32 34 33 33 34 33 34 34 34 34 34 34 35 34
47 50 50 51 52 52 51 50 50 50 44 41 43 44 43 44 46 43 41 40 39 38 37 37 36 39 37 37 36 35 35 33 32 31 34 33 33 34 35 35 34 35 34 33
47 48 49 50 52 52 50 44 49 51 50 41 37 43 41 44 45 44 42 42 41 41 38 37 39 40 35 32 31 33 35 36 35 34 34 33 34 35 35 35 35 34 34 33
45 48 49 50 50 47 45 42 46 49 49 40 38 38 40 41 43 43 43 43 42 40 39 38 37 37 36 35 31 33 35 36 34 34 34 33 35 34 34 34 35 36 35 36
46 48 50 49 48 47 44 46 48 50 45 42 34 36 37 40 40 39 43 41 41 41 39 39 37 38 37 32 35 34 35 34 34 35 36 35 35 34 35 34 33 32 32 32
47 49 47 45 43 41 43 45 47 46 43 38 37 33 31 39 39 40 39 40 36 41 37 37 37 36 32 34 34 34 35 34 33 35 35 33 33 33 33 33 32 32 32 32
49 45 41 38 41 43 43 41 40 41 41 40 35 38 34 37 38 36 35 35 34 32 35 38 35 33 35 35 36 36 35 35 35 33 31 28 27 30 32 33 33 32 32 31
44 39 37 41 42 39 37 34 33 35 33 37 37 37 35 37 34 34 34 31 32 27 28 31 27 26 29 31 33 33 34 34 33 30 30 31 31 31 32 33 33 32 29 20
41 39 40 40 36 34 29 29 31 30 28 34 34 35 35 37 36 32 33 28 29 23 32 27 24 26 28 28 27 27 28 28 29 30 28 29 30 31 32 33 32 27 15 12
39 36 35 33 33 27 24 23 24 26 31 33 34 33 35 35 35 32 31 27 26 31 27 23 24 25 28 27 25 25 26 26 26 24 24 25 30 32 31 29 22 15 12 10
35 32 28 27 24 25 25 22 24 29 32 34 34 32 32 33 32 31 28 29 27 24 21 20 23 25 26 27 26 22 19 23 24 24 22 18 20 24 21 20 16 12 9 9
33 32 25 25 23 27 26 28 29 30 33 32 30 30 29 30 28 29 28 25 22 22 20 23 25 25 26 25 22 20 19 20 21 24 24 22 16 12 10 10 9 9 10 11
33 30 25 27 27 26 27 26 29 31 30 29 28 27 25 25 25 25 23 21 19 20 26 25 25 24 23 22 21 20 20 21 22 24 25 25 19 14 12 9 11 12 13 13
31 28 28 27 27 28 27 28 30 32 29 26 27 21 19 26 24 24 25 21 22 24 23 24 27 25 25 25 25 23 19 20 22 23 25 26 21 14 11 10 11 13 14 14

GFSNW_sfc_30mbdewp_009.txt.gz
Dewpoint
55 54 54 55 54 52 45 44 38 50 52 44 44 40 45 41 40 47 44 40 36 35 35 36 38 37 38 41 39 36 35 29 26 27 30 29 27 23 22 21 21 21 20 20
54 54 54 54 54 51 44 40 45 50 49 40 41 44 44 44 45 44 41 36 37 41 37 38 39 39 41 42 39 37 36 31 28 30 31 33 29 27 24 26 26 23 20 20
53 52 53 54 54 52 46 42 36 45 47 43 41 39 42 43 46 42 43 42 42 39 38 38 38 39 39 39 38 39 36 32 27 24 28 31 29 30 27 26 25 23 23 23
53 52 52 54 53 51 46 39 33 37 36 37 38 38 40 41 41 44 43 41 40 38 36 36 37 37 36 37 36 34 30 28 28 27 28 31 30 30 28 26 25 23 23 24
51 52 52 54 53 49 43 37 34 36 34 34 34 34 35 37 37 41 41 40 39 39 35 35 36 36 36 35 34 31 30 27 24 21 23 22 21 25 31 31 30 28 28 27
51 52 52 53 53 46 40 41 41 33 33 31 31 32 36 35 34 35 39 36 36 37 32 31 34 34 34 34 32 29 25 24 21 20 24 23 16 20 20 21 22 24 21 19
50 52 53 52 53 47 44 43 42 31 28 31 31 33 33 35 33 34 34 32 31 30 30 28 31 29 31 32 31 30 25 23 22 17 23 10 21 28 27 24 26 24 30 31
51 52 53 53 53 50 43 45 41 33 30 33 32 31 32 30 29 29 29 30 31 31 29 28 30 29 27 28 33 29 28 26 24 20 20 22 27 28 26 27 30 32 33 33
51 51 52 53 53 50 44 45 46 38 32 31 32 29 29 28 27 26 27 29 33 32 32 31 22 21 24 26 29 29 29 27 25 25 22 20 26 29 31 27 29 35 35 35
51 51 52 53 53 51 48 46 47 43 32 37 33 29 29 29 30 28 27 27 28 33 33 32 31 30 29 27 28 26 25 26 25 26 24 26 28 30 31 24 23 35 33 33
50 51 51 52 53 51 50 47 47 46 39 41 42 39 32 33 33 33 30 33 33 32 33 33 32 30 28 28 29 26 25 24 25 27 25 23 32 32 29 31 34 33 33 32
49 50 51 51 52 51 51 47 47 47 43 43 46 46 44 40 39 33 33 37 33 34 33 33 31 30 28 29 28 31 28 28 27 27 26 32 33 32 34 33 33 33 33 33
48 49 51 52 53 52 50 47 47 46 44 44 43 44 45 45 44 40 37 37 37 38 37 33 32 30 30 28 28 29 30 32 30 31 32 33 32 34 34 34 34 34 34 34
49 49 50 52 53 52 51 48 49 46 43 41 42 45 43 44 45 42 40 39 42 41 41 36 35 34 34 32 32 31 31 34 32 32 33 34 33 34 34 34 34 34 35 34
48 49 51 51 52 51 50 50 50 50 43 41 42 43 42 44 45 41 41 40 39 39 37 37 36 39 36 36 36 34 35 33 31 30 33 32 33 34 35 34 34 35 35 34
48 50 50 51 52 51 49 43 48 49 49 40 38 42 41 44 44 43 42 42 42 40 38 37 39 40 34 31 30 32 34 36 35 33 34 33 34 35 35 35 34 35 34 34
48 49 50 51 51 47 43 40 45 49 49 39 38 37 40 41 43 43 43 43 42 41 39 38 37 37 35 33 30 32 34 36 34 34 34 34 34 33 34 34 35 35 35 35
48 50 50 48 47 47 44 46 48 49 44 39 34 35 38 40 40 39 43 41 41 41 39 39 37 37 36 30 33 34 34 34 34 35 35 34 34 34 34 34 34 33 33 33
49 49 47 44 42 42 44 46 47 45 41 36 36 33 30 40 39 40 39 40 36 40 37 36 36 35 30 32 33 34 35 34 33 34 33 33 32 32 32 33 32 32 32 32
48 44 40 37 41 44 43 40 41 41 40 40 35 37 34 38 38 36 35 35 34 33 35 38 35 34 36 35 35 35 35 34 34 33 33 31 26 25 28 31 32 33 32 32
44 39 37 41 43 39 36 34 35 36 33 37 36 36 34 37 34 33 34 32 32 28 29 32 28 25 28 30 32 34 34 34 34 32 29 27 28 28 29 31 33 33 32 31
41 39 41 40 35 33 30 30 31 31 28 34 34 35 36 36 35 33 32 28 28 22 32 29 24 25 28 28 28 29 30 30 28 29 28 27 28 29 31 31 32 32 31 20
39 37 36 33 32 27 25 23 26 26 30 34 34 33 35 36 34 32 30 27 24 30 25 23 23 25 28 28 25 25 26 26 27 26 26 26 26 30 31 31 30 28 20 14
34 32 28 28 25 25 25 22 24 27 33 34 34 32 33 34 32 32 28 29 29 24 20 19 23 25 26 27 25 21 21 23 23 23 23 21 20 22 28 29 26 20 17 13
32 32 27 27 24 25 23 28 30 31 35 33 30 30 30 30 29 28 28 25 22 21 19 21 23 25 26 26 24 21 19 19 19 21 22 22 21 18 16 14 14 15 13 10
31 30 25 26 25 25 26 26 29 32 31 28 28 27 26 26 27 26 24 23 20 20 23 24 24 25 24 22 22 21 20 20 20 20 22 24 24 22 18 14 11 10 9 10
30 28 28 26 25 26 28 28 32 32 31 27 26 22 22 26 22 22 24 21 18 22 25 24 24 22 22 23 24 25 25 23 20 20 22 23 25 23 18 16 12 11 12 13

GFSNW_sfc_30mbdewp_012.txt.gz
Dewpoint
53 54 54 54 54 52 48 44 39 51 51 41 41 36 42 43 42 45 43 40 37 34 37 36 38 37 39 39 37 32 31 27 26 24 30 27 24 24 24 23 22 22 21 22
52 53 53 53 54 51 43 40 44 51 50 39 41 43 42 42 42 43 42 37 37 36 37 37 39 40 41 40 37 33 33 29 27 29 30 33 27 25 23 25 24 21 20 21
52 53 52 52 54 52 45 41 39 45 46 45 42 41 41 41 46 44 43 39 39 38 38 40 39 39 39 40 39 39 35 31 26 27 28 29 28 27 25 25 23 23 23 23
51 52 52 52 54 52 46 40 34 41 39 40 41 40 42 42 42 44 43 41 38 37 36 37 38 37 37 37 38 35 30 29 29 27 30 30 29 28 27 25 25 24 25 25
51 52 51 52 53 50 44 37 34 36 35 34 38 36 40 41 38 41 40 39 40 38 37 36 37 36 36 35 34 32 30 27 25 22 24 25 27 30 28 27 27 25 26 25
51 51 51 52 53 48 42 40 41 33 33 32 33 34 37 37 37 41 37 39 37 34 33 33 35 34 34 34 31 29 26 24 23 23 23 22 19 21 30 29 29 29 26 27
50 50 51 52 53 48 43 42 41 32 28 31 31 33 34 35 35 39 34 38 38 33 30 32 32 31 32 31 30 29 25 23 21 18 22 17 19 28 24 24 24 23 26 30
50 50 51 52 53 51 44 44 41 33 28 32 32 32 33 30 30 34 31 31 35 35 29 35 37 34 31 29 30 28 27 25 22 17 17 20 27 27 27 25 29 32 33 34
49 50 51 52 53 52 44 45 44 36 31 31 31 30 30 30 28 27 29 30 33 32 33 29 33 34 35 26 27 28 28 28 22 25 18 11 24 29 29 31 27 34 34 35
49 51 51 52 53 52 48 45 46 40 32 37 33 29 30 29 29 27 27 28 29 34 33 31 27 27 29 22 22 23 26 26 21 25 23 25 28 31 30 25 26 36 35 34
50 50 51 52 53 52 50 47 47 44 37 41 42 38 31 32 32 26 28 30 31 32 31 31 31 29 29 29 29 25 22 23 25 27 25 22 31 31 28 31 33 32 32 33
49 49 50 51 52 52 50 46 47 47 41 42 46 45 43 40 39 32 32 34 32 33 33 33 31 30 29 29 28 31 26 26 25 27 27 32 33 32 34 34 32 33 33 33
49 49 50 51 52 53 51 47 47 45 43 43 43 43 44 44 44 41 37 37 36 37 37 33 32 30 30 29 29 29 31 32 31 29 31 32 33 34 34 34 34 34 34 34
48 49 49 51 52 52 50 48 49 45 43 40 42 44 42 43 45 41 40 39 41 40 39 35 34 32 33 30 31 30 31 32 31 31 33 34 33 34 34 34 34 35 35 34
48 48 50 51 52 52 50 50 50 50 43 40 41 43 42 45 42 41 41 40 39 38 37 36 35 36 35 35 34 33 34 32 31 29 33 33 33 34 34 34 34 34 35 34
49 49 50 51 52 51 48 45 48 49 49 41 39 42 42 43 43 42 42 42 41 39 37 37 38 39 34 31 30 32 35 36 35 33 34 33 34 35 35 34 35 34 34 34
48 50 50 51 51 47 43 40 45 49 48 40 37 37 40 41 43 43 42 42 42 40 38 37 37 37 34 31 29 31 33 35 34 34 34 33 33 33 34 35 35 36 35 35
49 50 51 49 48 47 44 47 47 47 41 38 34 35 38 41 40 40 42 41 41 40 39 39 36 37 35 30 32 34 35 35 34 34 33 34 34 34 34 34 33 31 31 32
50 49 48 45 43 42 45 46 46 44 40 34 35 32 31 40 39 40 38 39 36 40 37 36 36 34 31 31 32 33 34 33 34 33 33 33 32 32 33 33 32 30 30 32
49 44 39 37 42 44 42 40 40 38 39 38 34 36 34 37 37 35 35 35 34 33 35 38 35 32 35 34 34 34 35 33 34 33 32 31 25 22 26 28 30 32 32 32
43 38 37 41 43 38 35 35 33 34 32 37 35 35 34 37 33 33 34 32 31 28 30 32 29 27 29 31 33 34 34 34 33 32 27 24 23 24 26 29 31 32 32 32
40 40 41 39 35 32 30 30 31 31 28 34 35 35 35 35 35 31 31 28 27 24 33 31 25 25 27 28 30 32 33 33 31 27 25 26 26 28 28 29 30 31 32 31
40 38 36 34 33 29 26 25 26 26 29 34 34 33 35 35 33 31 28 25 25 30 27 23 24 24 27 26 26 27 29 28 27 27 26 25 25 27 29 29 30 31 30 25
35 32 29 30 27 28 27 25 25 28 33 34 34 32 33 34 31 30 26 28 27 23 20 20 22 25 27 26 24 22 23 24 24 23 23 21 21 21 24 28 28 26 24 19
32 32 28 27 24 25 23 25 30 32 36 33 31 30 31 30 28 28 26 24 22 21 19 20 22 24 26 25 23 19 19 21 21 22 22 22 22 20 20 19 19 20 19 17
32 29 26 25 24 24 26 28 30 33 33 30 29 27 27 27 27 25 24 21 20 20 22 22 23 25 26 25 23 21 20 19 20 20 21 21 23 23 22 19 15 12 11 11
30 27 27 24 23 24 27 30 32 32 31 26 24 24 24 27 24 23 24 22 19 21 24 24 25 24 23 23 24 24 24 24 23 21 21 21 24 24 22 21 19 13 11 11

GFSNW_sfc_30mbdewp_015.txt.gz
Dewpoint
53 53 54 54 54 51 48 43 39 51 52 39 39 35 38 41 42 41 38 37 36 33 30 33 35 36 38 40 39 32 28 28 29 25 30 30 29 30 27 25 23 23 22 22
52 52 53 53 53 49 42 41 44 51 49 36 36 39 39 39 42 39 41 39 37 35 31 35 37 38 38 41 40 33 31 29 29 29 29 32 28 24 25 25 24 22 21 21
52 52 53 52 53 52 44 41 40 44 45 44 41 40 40 41 45 44 44 39 38 37 37 39 37 39 41 41 38 37 33 30 28 28 28 29 27 25 24 25 24 23 22 22
51 51 52 52 52 53 45 41 37 43 38 39 41 43 42 39 41 43 45 39 37 36 37 39 37 40 38 39 39 36 32 28 28 27 29 29 27 27 25 24 25 24 24 24
52 51 52 52 52 52 44 39 35 37 36 36 41 41 41 39 41 42 40 38 37 38 37 37 37 38 37 36 35 34 30 29 25 24 27 29 29 29 27 25 25 25 25 25
52 51 51 51 52 49 43 40 41 35 33 33 37 36 39 41 42 42 38 38 38 39 34 34 39 38 37 36 33 31 30 25 25 25 23 23 25 25 29 27 28 26 25 26
51 51 51 51 52 49 43 41 40 35 30 32 33 33 39 40 39 41 36 37 37 39 33 34 32 33 33 34 29 29 32 26 23 21 21 21 24 27 29 29 27 29 26 26
51 50 50 51 52 52 45 43 42 35 28 32 32 33 33 34 36 38 37 35 36 34 32 37 36 34 31 31 31 28 28 26 23 20 19 20 25 27 25 27 27 26 29 33
50 49 49 51 52 53 47 43 44 37 32 29 32 32 30 31 32 35 35 36 39 37 36 33 34 33 34 30 29 29 28 34 33 24 15 13 22 29 29 30 23 34 34 34
49 49 49 51 52 53 48 45 45 40 32 36 32 31 31 30 29 32 32 34 37 39 36 31 31 31 32 28 27 30 27 25 21 24 19 22 28 31 29 24 23 35 35 35
49 49 50 51 52 53 49 46 46 43 37 40 42 37 30 31 29 30 30 33 31 35 36 35 31 30 29 28 27 25 25 23 23 25 22 17 30 31 27 31 34 34 33 33
49 49 50 51 52 53 51 47 46 46 40 42 45 44 43 39 38 30 32 33 30 31 32 33 32 29 29 29 26 30 24 25 25 25 24 32 33 32 34 33 32 33 33 33
49 49 50 50 51 52 51 48 46 44 42 42 42 42 44 44 44 43 33 37 36 36 36 33 32 30 30 28 29 30 31 32 30 28 31 32 33 34 33 33 33 34 34 33
49 49 49 50 51 52 52 47 48 45 42 38 40 44 42 44 44 41 40 38 40 39 38 35 33 30 32 29 30 29 30 31 31 31 33 33 33 34 34 34 35 34 34 34
49 49 49 50 51 52 51 50 50 49 43 40 41 42 43 44 42 41 41 40 39 38 36 35 35 34 34 34 33 31 33 31 30 29 33 33 33 34 35 34 34 34 34 33
48 48 49 50 52 52 49 46 48 49 47 42 38 42 42 43 43 42 42 41 40 38 37 37 37 38 34 32 31 32 34 34 33 32 34 34 34 34 34 34 34 34 33 33
48 48 49 51 51 48 44 42 46 49 48 40 37 37 40 41 43 43 42 42 41 39 38 36 36 37 34 31 29 30 34 35 35 34 34 33 33 33 34 35 36 35 35 35
48 49 51 50 48 47 45 47 46 47 40 38 34 35 39 41 40 40 42 40 41 40 38 38 35 37 34 32 32 32 33 34 34 34 33 34 33 33 34 34 33 30 30 32
49 50 49 45 43 42 44 46 45 44 40 35 34 33 34 40 39 40 38 39 37 40 37 37 37 34 32 33 32 33 34 33 33 32 32 32 32 32 33 32 30 28 29 31
49 44 40 38 42 45 42 40 40 38 38 36 33 35 34 38 37 35 35 36 35 34 36 38 35 33 34 34 33 34 34 34 32 32 32 31 29 28 28 28 29 29 30 31
43 38 37 41 43 38 35 35 33 34 33 35 35 35 34 37 33 33 34 32 31 29 31 33 29 28 32 32 33 34 34 34 34 33 33 30 21 23 25 27 29 30 31 32
40 40 41 39 34 32 29 29 31 31 28 34 34 34 35 35 35 31 31 28 26 24 32 30 26 26 27 29 32 33 34 33 29 24 24 25 25 26 26 28 29 30 31 31
41 39 36 34 32 29 26 25 26 26 29 34 34 33 34 33 32 29 27 25 25 29 28 25 24 24 26 27 29 32 33 30 25 25 25 25 26 27 27 27 29 30 30 29
35 33 29 30 28 28 26 25 25 28 32 35 34 31 32 32 29 29 25 26 26 22 20 19 22 24 27 26 28 31 31 26 26 24 24 23 23 23 26 27 28 27 26 24
32 33 29 28 25 24 22 25 30 33 36 33 32 31 31 29 28 27 26 24 21 21 19 20 21 24 26 24 23 25 24 24 23 22 22 22 21 21 21 20 21 23 22 20
32 29 26 24 24 23 26 28 31 34 33 30 28 27 26 26 26 25 22 21 19 20 22 22 23 27 24 23 20 19 20 20 19 20 21 21 22 22 22 20 18 15 14 14
30 26 26 24 23 24 27 29 33 34 31 25 25 25 24 27 24 24 23 21 21 20 22 23 26 26 24 23 22 21 21 21 22 22 21 21 23 23 22 21 20 15 12 11

GFSNW_sfc_30mbdewp_018.txt.gz
Dewpoint
52 53 53 53 54 53 49 44 39 50 50 38 37 33 37 39 38 40 37 34 25 25 27 27 35 29 35 34 34 35 36 28 29 35 31 36 37 36 36 30 26 25 22 21
52 53 53 53 54 50 44 41 44 51 48 34 35 37 38 38 38 39 37 37 28 27 25 25 36 32 33 39 37 34 32 28 28 29 31 29 33 36 36 32 26 24 23 22
52 52 52 53 53 52 43 42 39 43 44 44 40 37 36 37 41 40 42 39 36 26 25 30 31 36 38 41 38 38 34 30 25 25 26 29 31 32 32 32 28 26 24 24
52 52 52 52 53 52 44 41 40 42 36 38 40 40 39 38 40 44 45 41 34 28 24 34 34 38 39 41 40 39 36 29 29 28 30 28 29 30 29 30 30 27 27 26
52 52 51 52 53 52 44 37 38 39 41 41 41 39 38 39 39 41 39 41 36 32 27 34 35 38 37 38 39 38 35 31 28 25 28 29 27 28 30 32 32 30 27 26
53 52 51 52 52 50 44 42 41 37 34 34 40 40 40 42 41 43 39 41 37 35 34 38 38 38 38 38 37 37 34 32 28 27 25 27 26 28 28 27 27 27 26 27
53 52 51 51 52 50 44 42 41 37 30 33 36 37 42 42 43 40 36 40 36 37 35 37 38 37 36 33 31 36 34 30 27 26 23 27 27 27 29 29 28 27 27 28
52 52 51 51 52 52 47 44 42 39 34 32 32 35 39 40 40 37 36 35 38 34 34 37 36 37 38 36 33 30 38 30 31 24 23 24 22 26 26 29 28 29 29 29
52 51 51 51 51 52 48 45 44 40 34 31 33 33 38 39 39 38 37 37 40 40 36 39 34 32 35 32 37 31 33 41 35 28 22 21 22 29 28 29 22 30 30 32
51 51 50 50 51 52 48 46 45 41 36 35 34 32 33 34 40 38 37 37 41 42 38 35 34 34 33 31 33 34 29 34 33 33 31 21 27 30 31 22 25 33 33 34
52 50 49 50 51 52 50 47 46 45 38 40 43 39 31 31 35 39 38 37 39 40 38 36 32 34 33 28 31 34 31 30 31 32 27 20 31 30 27 32 36 36 36 35
49 50 49 49 51 52 51 47 47 47 42 42 45 44 43 40 37 35 38 39 36 40 39 37 34 29 30 29 25 29 29 31 25 26 25 33 33 33 35 36 35 34 34 34
48 50 50 50 51 52 51 48 47 45 44 43 42 42 44 44 44 44 36 39 38 37 38 36 35 32 31 28 29 29 29 32 29 28 31 32 33 34 34 34 34 34 34 34
47 50 50 50 51 52 52 48 48 46 43 39 40 44 43 44 43 42 40 39 39 38 38 36 35 32 32 31 31 30 31 32 30 31 33 33 33 34 34 34 35 34 34 34
46 50 50 49 50 51 52 50 49 49 44 40 40 43 43 44 42 41 41 40 40 39 38 37 36 35 35 34 33 31 32 31 30 29 32 32 33 34 35 35 35 35 34 34
47 50 49 49 50 52 49 45 49 50 48 42 38 42 42 43 43 42 42 41 40 40 39 38 38 39 36 34 33 34 33 34 33 32 34 34 34 35 35 35 35 35 35 35
49 49 49 49 51 50 45 44 47 50 48 40 37 38 41 41 43 43 42 42 42 41 39 38 38 38 36 33 32 31 34 35 35 34 34 33 34 34 35 35 35 35 34 34
49 48 49 50 49 48 45 47 47 48 42 40 36 36 39 41 41 40 42 41 42 41 39 39 37 37 35 33 34 31 35 35 34 34 34 34 34 34 35 36 34 32 31 32
49 50 50 47 44 43 45 46 45 45 41 36 35 35 35 41 40 40 38 40 38 40 38 38 37 36 35 36 34 32 34 35 34 33 34 35 34 34 34 33 30 27 29 31
49 47 42 40 43 46 45 41 40 39 39 36 33 37 35 38 37 36 36 37 36 35 36 38 35 35 36 35 34 34 35 35 34 32 32 32 32 33 32 30 28 28 29 30
43 38 37 42 43 38 36 35 35 34 33 36 35 35 35 37 34 34 35 33 33 31 32 34 32 31 33 34 34 36 35 34 35 35 34 33 32 31 27 27 29 30 31 31
40 41 41 38 34 32 30 31 31 32 30 35 34 35 35 35 35 32 31 30 29 27 32 31 28 30 28 33 33 34 34 34 32 33 31 25 24 25 26 28 29 30 31 32
41 38 36 34 33 28 27 26 28 28 31 34 34 33 34 33 32 30 27 27 27 30 28 26 28 26 27 30 33 33 32 28 26 25 25 26 26 27 27 27 29 30 31 31
35 32 31 31 28 29 28 27 28 29 34 35 34 32 32 31 29 28 25 26 27 23 21 20 23 25 27 29 32 33 28 25 25 25 25 25 26 26 27 27 29 29 28 27
32 33 29 29 27 25 24 27 31 34 36 33 32 31 31 29 28 27 27 24 22 21 19 22 24 26 27 28 32 31 26 25 23 23 23 22 22 22 22 22 25 25 24 22
32 30 26 25 26 25 26 28 31 35 34 31 30 28 27 26 27 25 24 21 18 21 24 25 25 26 25 27 30 27 24 23 22 22 22 22 22 21 22 20 18 17 17 17
30 26 26 24 24 26 27 31 34 36 32 27 28 26 25 28 25 24 23 22 22 24 24 24 28 24 22 21 21 21 20 20 20 21 21 21 23 23 22 22 19 15 12 11

GFSNW_sfc_30mbdewp_021.txt.gz
Dewpoint
52 52 52 53 53 55 49 45 37 50 50 38 38 33 35 39 38 40 38 38 31 23 22 23 27 26 27 29 33 37 39 37 32 35 36 38 39 36 34 28 27 25 23 21
48 52 52 53 54 52 46 42 43 50 46 33 34 37 36 38 38 39 38 37 34 25 22 23 30 31 28 35 34 34 37 32 32 32 35 38 37 38 38 34 30 26 22 23
48 52 52 53 54 51 43 42 39 43 44 41 38 35 35 35 39 39 39 36 32 25 23 24 28 33 33 36 32 36 36 31 27 27 30 36 35 37 36 34 30 27 25 24
48 52 53 53 54 51 46 41 40 40 36 37 39 40 38 37 37 41 39 39 33 27 22 23 26 30 33 35 37 34 37 29 28 25 28 31 33 34 35 34 33 29 27 26
46 51 52 52 53 53 45 39 36 42 41 38 38 38 37 37 38 41 39 39 35 30 21 23 29 32 33 35 38 35 37 30 29 27 29 28 26 29 32 32 32 30 28 27
47 51 52 52 53 50 45 45 42 38 34 37 39 39 38 38 40 40 42 40 39 31 23 26 36 37 35 37 37 36 36 34 29 26 27 28 27 27 28 29 30 29 28 29
46 49 52 52 53 51 46 42 42 38 31 27 31 39 41 41 42 40 42 42 40 37 36 38 39 37 37 37 37 36 35 33 33 31 26 27 28 27 29 28 28 30 31 30
45 47 52 52 53 52 47 44 42 40 32 29 34 38 41 41 41 40 38 37 39 34 37 34 36 37 37 36 33 36 36 36 32 28 25 25 26 25 26 28 28 29 28 28
45 48 52 52 52 53 49 46 46 43 35 28 34 33 40 40 40 39 37 38 40 41 38 37 33 32 35 35 36 33 41 38 36 29 25 24 24 28 27 30 25 29 30 29
45 46 48 52 52 52 50 48 47 44 37 34 34 33 38 41 42 38 37 37 41 43 39 36 35 34 35 34 33 32 36 37 35 35 31 32 28 29 30 22 28 30 30 31
44 45 50 51 51 51 50 48 47 45 39 39 41 38 32 35 42 39 38 39 41 41 38 37 35 35 33 34 37 33 33 34 34 36 34 30 30 30 26 33 34 33 33 34
44 45 46 51 51 51 51 47 48 47 45 44 45 44 43 41 40 41 40 40 40 43 40 39 35 32 33 30 31 33 34 32 31 33 33 33 33 34 34 35 35 35 35 35
43 45 47 51 50 52 51 48 48 47 45 44 43 41 44 44 44 44 41 42 42 40 41 40 39 34 33 32 31 31 31 30 29 27 30 32 33 34 35 36 35 35 35 34
43 45 48 51 50 52 51 47 48 48 45 40 41 44 43 45 44 43 41 44 44 43 42 40 39 36 34 33 32 30 30 30 30 30 32 33 34 34 35 34 34 34 34 34
43 44 47 51 50 51 52 50 49 49 47 40 39 43 43 43 42 41 41 39 38 38 39 39 38 36 35 35 33 31 32 29 28 27 31 31 32 35 35 34 34 35 35 35
43 45 47 50 50 51 49 45 49 50 49 43 38 43 42 43 42 41 41 41 41 41 41 40 39 39 38 35 34 34 32 33 33 32 33 34 34 35 35 35 35 35 35 35
44 45 49 50 50 50 46 44 47 50 48 42 38 38 42 42 43 43 42 43 43 43 41 40 40 39 38 36 34 34 33 34 34 35 35 34 35 34 35 35 35 34 34 34
45 47 50 49 50 48 46 47 49 49 44 42 37 36 40 42 41 41 43 42 43 42 41 40 39 38 37 35 36 32 34 35 34 34 34 35 35 35 35 35 35 33 31 32
47 50 50 48 46 44 45 46 47 46 44 38 37 35 35 41 40 41 40 42 40 41 39 39 39 37 36 38 37 33 35 35 34 36 36 36 35 36 36 35 32 28 28 30
50 47 44 40 43 47 45 43 41 41 40 39 36 39 36 39 38 36 37 38 37 35 37 39 37 37 38 38 37 35 36 36 35 34 34 34 34 35 33 30 25 26 28 29
45 40 39 42 45 40 38 38 38 37 35 37 36 37 36 38 35 35 36 35 35 33 34 35 35 33 35 35 36 36 37 36 35 36 35 35 34 33 29 27 28 29 29 30
42 41 42 39 35 34 33 34 33 33 32 36 35 36 36 35 36 33 32 32 32 30 33 33 28 31 30 33 34 36 35 35 35 35 34 33 32 28 27 28 29 30 31 32
42 39 36 35 34 30 29 27 29 29 34 35 35 34 34 34 34 32 30 29 30 31 29 28 30 29 30 33 34 34 34 31 31 27 26 26 27 27 28 28 29 30 31 31
36 35 31 31 29 30 31 30 32 34 35 35 35 33 34 33 32 31 28 28 28 26 24 22 26 28 30 33 33 30 28 26 26 26 26 26 26 27 27 28 29 29 29 29
32 34 30 30 30 28 28 31 32 35 37 35 34 33 32 31 29 28 27 25 24 24 22 26 28 29 30 33 31 26 25 24 24 25 25 26 26 25 26 26 26 25 25 23
32 31 28 28 29 27 28 31 33 37 35 35 34 30 29 27 29 26 25 24 21 25 29 30 28 28 30 33 27 25 24 23 23 23 23 23 23 23 22 20 20 19 20 19
30 28 28 29 30 30 30 32 35 36 33 31 31 27 28 28 26 26 25 25 28 30 28 29 28 29 31 31 24 23 23 22 22 22 22 23 23 22 22 21 19 15 14 13

GFSNW_sfc_30mbdewp_024.txt.gz
Dewpoint
49 49 48 51 53 53 51 45 39 49 51 40 38 34 35 38 37 39 38 38 36 31 25 24 26 30 29 30 36 34 35 33 31 33 39 41 40 36 34 27 28 27 23 22
48 48 48 52 53 53 47 42 43 50 48 34 34 36 37 37 37 38 37 36 38 33 30 22 24 27 29 33 34 36 38 35 30 32 37 42 39 37 34 34 31 27 23 23
46 48 47 49 53 51 47 43 38 43 44 42 37 35 34 33 39 38 39 38 37 34 32 23 27 28 31 33 28 36 41 37 33 32 35 37 36 36 36 35 31 28 26 24
45 47 48 48 53 50 45 42 39 40 35 37 38 38 37 35 34 39 39 38 37 34 26 22 23 31 32 37 33 36 37 36 36 36 37 36 36 36 37 36 34 30 28 23
43 44 47 51 53 50 45 40 38 42 40 37 37 38 37 36 37 39 38 36 37 36 27 22 22 30 32 32 36 32 34 34 32 28 36 36 34 35 36 36 35 34 33 29
44 46 46 53 53 50 45 45 43 39 37 38 38 37 37 37 39 39 40 39 38 37 33 24 37 29 32 35 34 36 35 35 31 26 28 28 27 29 34 35 35 35 32 32
43 44 45 47 52 50 46 44 43 38 35 35 35 38 40 39 39 39 40 43 39 39 37 39 39 37 37 35 37 36 34 35 36 32 27 25 27 27 28 28 30 33 32 30
42 43 45 48 53 52 47 43 43 42 37 38 34 35 38 39 42 42 41 44 42 37 37 37 37 37 36 36 34 36 35 36 34 30 26 27 27 25 27 28 28 29 30 31
43 43 45 47 52 52 49 45 47 44 39 35 34 33 39 38 40 39 39 38 41 41 38 35 31 31 35 33 35 36 39 39 35 32 26 25 26 27 27 29 27 30 31 30
44 43 45 46 50 53 50 48 48 45 40 40 36 33 35 43 42 38 39 38 41 44 38 35 33 33 37 33 33 33 37 37 34 33 31 32 28 28 29 25 28 31 31 33
43 43 45 46 48 52 51 48 48 46 43 41 41 39 36 38 43 38 38 39 41 41 38 36 36 36 36 37 35 35 35 34 34 35 33 28 30 29 27 33 34 33 35 36
42 43 45 46 51 52 51 46 48 49 45 45 45 44 44 40 43 43 40 41 41 42 40 39 36 35 33 34 34 36 34 36 35 37 36 33 34 34 34 36 34 36 36 37
41 43 44 46 49 51 50 48 48 47 44 43 45 42 44 45 44 44 41 42 44 42 43 41 39 33 35 30 31 33 35 34 30 32 31 32 33 34 36 37 36 36 36 36
40 42 44 45 48 51 51 47 48 48 46 40 42 44 43 45 44 43 43 46 46 44 45 42 40 38 35 36 33 31 32 31 31 30 32 33 34 34 36 35 35 35 35 36
40 42 44 45 48 50 51 50 49 50 46 41 41 43 44 44 43 42 41 46 44 44 43 41 39 39 36 35 33 32 31 30 31 30 31 31 33 35 35 35 35 35 35 35
40 42 44 45 49 50 49 44 49 50 49 44 39 43 42 43 42 41 41 40 41 42 42 42 40 39 38 33 32 35 32 33 33 32 34 34 35 35 35 35 35 36 36 36
40 42 44 46 50 50 45 43 47 51 50 43 38 38 42 42 43 43 43 43 43 44 42 41 40 38 38 37 35 36 33 34 34 35 35 34 35 34 36 36 36 36 35 35
41 43 45 47 50 49 46 48 50 50 46 43 38 37 40 42 42 41 43 43 43 42 42 40 39 37 37 35 37 34 34 34 34 34 35 35 36 36 35 34 34 33 32 33
42 45 47 48 47 44 45 48 47 47 45 39 37 35 35 42 41 41 41 42 40 42 40 40 39 38 35 37 38 34 35 34 34 36 36 35 35 35 35 33 31 30 30 31
45 46 44 40 44 47 46 44 42 41 41 40 37 40 36 39 38 37 38 39 37 35 38 38 37 36 39 39 38 35 36 36 36 34 34 35 35 34 33 30 28 29 30 30
45 42 40 44 46 41 40 38 37 38 35 38 38 39 37 39 37 36 37 36 36 33 34 35 35 34 36 33 37 37 37 36 36 36 36 36 35 33 27 27 29 29 30 30
43 42 42 41 38 36 35 33 34 35 33 36 36 37 37 35 37 34 34 33 33 30 33 33 29 31 30 33 35 36 36 36 36 36 35 34 31 28 29 29 30 31 31 31
43 40 37 36 35 31 30 27 30 30 35 36 36 34 34 34 34 32 31 29 29 31 29 28 29 30 32 34 35 35 35 34 33 32 30 28 28 29 29 30 31 31 31 32
36 33 31 32 30 30 31 31 30 34 35 35 35 33 33 33 31 31 26 29 28 26 24 22 29 28 33 34 31 29 27 27 27 27 27 27 27 28 29 30 30 30 29 29
32 34 31 30 31 29 30 33 33 35 37 34 33 32 32 31 29 29 27 25 23 25 22 27 28 31 33 31 28 26 26 26 26 25 26 26 27 27 27 26 27 26 24 23
32 31 29 30 29 27 29 31 33 37 36 36 32 29 27 26 28 25 23 22 19 24 29 29 29 31 32 26 25 25 25 25 25 25 24 24 24 23 22 21 20 21 20 19
31 28 29 30 31 30 30 33 35 37 34 30 30 26 26 29 26 25 26 24 28 29 28 29 29 32 27 25 24 23 23 23 23 23 23 23 22 21 20 19 15 15 14 13

GFSNW_sfc_30mbdewp_027.txt.gz
Dewpoint
45 45 48 47 48 49 52 47 39 50 50 38 38 33 35 36 37 39 38 38 36 35 33 32 28 29 31 33 35 33 36 33 27 30 38 38 37 34 34 26 31 31 23 22
43 45 46 47 48 48 48 43 43 50 47 34 34 37 35 36 36 37 36 36 37 36 32 31 28 26 31 35 35 35 36 30 28 31 35 39 36 36 35 36 36 29 22 22
44 44 45 47 47 48 48 43 37 43 44 42 37 35 35 35 38 37 38 37 38 37 34 34 32 26 30 35 34 37 38 34 31 30 34 36 33 37 40 37 32 30 25 27
44 44 45 47 47 50 46 44 39 40 35 37 38 37 37 34 33 38 39 35 38 35 33 32 30 29 30 35 34 38 40 32 36 37 36 36 36 37 37 36 36 28 26 26
42 43 44 46 46 52 46 40 40 40 38 38 38 38 37 36 37 37 36 35 37 37 34 32 22 29 33 34 35 33 37 33 37 36 36 36 34 35 36 37 36 35 34 32
41 44 44 47 47 51 46 45 44 41 40 37 37 36 37 36 38 38 39 38 38 37 36 36 35 35 35 34 35 31 33 35 36 30 35 34 32 34 35 36 36 35 32 30
41 44 44 46 46 51 47 45 42 38 37 38 38 38 38 38 39 37 39 40 39 39 40 40 37 34 37 39 38 36 34 35 36 31 27 23 27 29 36 36 36 36 35 33
41 44 43 45 46 52 46 43 44 40 37 38 38 38 37 40 40 39 39 41 42 40 38 36 34 36 36 35 35 39 35 35 34 28 27 28 27 25 27 30 30 33 35 34
41 43 43 45 46 49 48 45 47 44 39 38 38 36 39 36 38 39 41 41 43 40 38 36 31 31 34 33 35 39 37 38 35 31 26 24 26 27 27 29 27 31 31 32
40 42 42 45 46 49 50 47 48 45 39 40 42 36 36 41 41 39 40 40 41 43 38 35 31 31 36 31 33 35 36 37 34 32 31 30 31 28 30 25 26 33 33 34
40 42 42 45 46 48 50 47 49 46 42 42 43 41 37 39 40 38 40 40 42 41 37 34 36 33 35 35 34 35 34 34 34 33 31 27 31 27 24 31 34 36 36 36
39 41 43 45 46 47 51 46 48 49 44 44 47 44 44 42 42 43 42 41 41 41 38 39 37 36 37 37 33 36 34 35 35 35 32 35 34 33 35 36 35 36 36 36
39 40 42 44 45 47 51 47 48 47 44 43 44 42 44 44 44 47 41 43 44 42 43 40 38 34 35 33 34 35 36 37 34 36 34 33 33 34 36 36 36 37 37 36
39 40 41 44 45 47 50 47 48 47 45 39 40 45 43 45 45 45 46 47 46 44 45 42 39 37 36 36 33 34 35 35 34 31 32 33 33 34 36 36 36 36 36 36
39 40 41 43 45 47 51 49 48 50 46 40 41 43 43 44 44 43 43 47 46 45 43 41 40 41 39 36 33 32 31 32 33 33 32 30 32 35 36 35 35 36 36 36
39 40 40 43 45 47 49 44 49 49 50 43 39 43 42 43 42 42 41 44 45 44 43 42 43 42 37 35 31 32 33 32 33 32 33 34 35 36 36 35 36 36 36 36
39 40 41 44 45 48 45 42 47 50 50 43 38 39 42 42 43 43 42 42 43 44 42 41 40 38 38 37 36 36 33 34 35 35 35 34 35 34 36 36 36 36 35 35
39 39 41 45 46 49 46 48 50 51 46 44 37 37 39 42 42 40 43 42 43 42 42 39 39 38 37 34 36 34 34 35 34 35 35 35 36 36 35 35 34 34 34 34
40 41 43 45 47 44 45 48 48 48 45 39 37 35 34 42 41 41 41 42 40 41 40 40 39 37 34 36 38 34 34 34 35 36 36 35 35 34 34 33 32 32 32 32
40 44 41 40 44 48 48 46 43 42 41 41 37 40 36 40 38 37 38 38 37 35 37 38 37 36 38 39 38 36 35 35 35 34 34 34 33 33 32 30 31 31 31 30
43 40 40 44 47 43 41 38 38 38 36 38 39 38 37 39 37 36 37 35 35 33 34 34 34 34 36 34 36 36 36 36 36 35 35 35 34 32 29 29 30 30 30 30
42 42 43 43 39 37 36 34 35 35 34 37 37 38 39 38 39 36 36 34 33 29 33 32 30 31 31 33 36 36 36 36 35 36 35 34 30 28 29 29 30 30 31 30
43 41 37 37 35 32 29 29 30 31 36 36 36 35 34 35 36 32 31 31 30 31 29 27 28 30 32 34 35 35 36 36 35 35 32 29 29 29 30 30 31 31 31 30
35 32 30 32 30 31 30 30 31 32 34 35 35 33 33 33 31 31 27 29 28 25 23 20 27 28 33 33 31 31 31 30 29 29 29 29 29 30 30 31 31 30 30 29
32 32 30 30 30 29 31 33 34 36 37 34 32 31 30 30 29 28 27 25 23 24 20 25 28 31 31 29 28 28 28 28 27 28 28 28 28 28 28 29 28 27 25 23
32 31 29 30 29 28 29 32 33 37 36 33 31 28 24 26 26 25 22 19 16 19 26 28 30 32 29 27 27 27 26 26 26 27 27 26 25 25 24 23 22 20 19 17
30 28 29 29 30 28 30 33 35 37 33 29 28 23 22 27 23 22 24 20 23 30 28 28 30 29 26 25 25 25 24 24 24 24 23 22 20 19 18 17 15 15 14 14

GFSNW_sfc_30mbdewp_030.txt.gz
Dewpoint
39 41 46 45 47 48 48 45 35 48 49 38 37 33 35 35 35 38 37 37 36 35 35 33 29 28 28 31 31 32 35 32 26 27 33 33 31 29 28 23 19 24 28 24
39 42 46 44 47 48 45 43 41 48 46 32 33 37 34 36 36 36 37 36 37 37 34 31 31 29 31 33 33 35 36 30 25 29 31 36 30 31 29 27 28 22 24 24
39 42 46 44 46 48 45 42 36 42 43 40 36 34 34 35 38 36 38 37 38 36 34 34 33 31 29 32 34 38 38 32 29 27 32 35 32 32 32 28 27 23 30 32
38 41 44 44 47 47 47 43 38 39 34 36 37 36 36 34 34 37 38 35 36 35 33 33 33 33 33 35 36 39 37 31 32 32 33 35 34 35 35 31 30 26 25 31
37 40 44 44 47 48 45 41 39 40 37 39 37 37 36 35 36 36 34 33 36 37 35 33 27 30 30 32 36 38 39 31 32 32 38 36 36 36 36 35 35 33 36 29
36 41 43 44 47 47 45 45 44 39 38 37 36 37 35 37 38 38 38 37 37 36 37 38 37 37 36 36 36 35 36 34 32 31 35 36 33 34 38 36 39 38 34 31
35 40 42 44 47 47 47 45 43 39 36 37 36 38 38 38 38 37 39 40 39 39 41 39 38 37 37 37 38 37 33 32 36 33 29 23 27 28 36 36 36 36 35 30
34 39 42 44 45 47 48 46 42 40 37 38 38 39 38 38 39 39 39 39 41 42 40 37 35 33 32 35 35 36 39 34 35 31 28 28 26 25 30 34 32 36 36 34
35 39 41 43 45 46 49 46 48 43 39 38 39 38 39 37 36 37 39 43 43 41 39 36 30 28 34 32 35 39 38 37 36 32 27 24 26 28 28 29 26 31 32 34
35 38 42 43 45 46 48 46 48 43 39 41 42 38 38 39 39 37 39 41 42 42 39 35 31 32 36 32 31 34 35 34 33 32 31 29 32 29 30 24 24 32 33 34
34 37 41 42 44 46 47 47 49 45 42 42 43 42 38 41 40 36 39 40 41 40 37 36 33 31 35 33 34 34 34 33 32 34 31 24 32 27 23 28 35 36 36 36
34 37 41 42 43 46 47 46 49 49 44 43 47 46 44 43 43 41 42 41 42 41 38 38 37 35 36 36 31 35 33 34 33 33 31 34 34 32 35 36 35 36 36 37
34 38 40 41 43 45 47 47 48 47 44 43 44 41 44 45 45 47 40 42 44 43 43 40 37 35 36 34 35 34 36 38 36 35 35 36 33 35 36 36 36 36 37 37
35 38 40 41 42 45 47 47 48 46 44 39 40 45 43 46 45 47 48 47 47 45 45 42 39 36 36 34 33 35 36 36 34 34 33 33 33 34 36 36 37 36 36 35
35 38 40 40 43 44 46 48 48 49 45 40 42 43 44 44 44 43 45 46 46 45 43 41 39 41 38 36 34 32 32 35 35 34 33 32 32 35 36 36 36 36 35 34
39 39 39 40 43 45 45 44 48 49 49 41 38 43 42 43 43 43 43 44 45 45 43 42 43 42 39 36 35 35 33 33 36 34 34 35 35 36 36 36 36 36 35 34
38 38 39 40 43 45 44 42 46 49 49 43 38 39 42 42 42 42 41 43 44 45 43 42 41 40 39 36 35 37 35 33 34 35 35 34 35 35 36 36 36 36 36 35
38 39 40 41 44 46 45 48 50 50 45 44 38 37 39 42 41 40 43 41 42 42 42 40 40 38 37 34 36 35 35 35 35 35 35 35 36 36 35 35 35 35 34 34
39 39 41 44 44 44 45 49 49 47 44 39 38 35 34 42 41 41 41 42 38 41 39 39 39 37 34 35 37 34 34 34 35 35 35 35 35 34 34 34 34 34 33 33
40 42 41 38 44 48 47 46 43 43 42 41 38 40 36 40 38 38 38 38 37 36 37 38 37 36 38 39 39 37 35 35 35 34 33 34 33 33 33 33 33 33 32 32
42 39 39 44 48 43 41 38 37 37 36 39 39 39 37 39 36 35 37 35 35 32 33 35 33 33 36 33 36 36 36 36 36 35 35 35 34 32 31 31 31 30 30 30
37 37 40 44 40 39 36 34 35 35 33 38 38 38 38 38 39 37 37 34 34 30 33 32 30 32 31 33 35 36 36 35 35 35 35 33 31 30 30 30 30 30 29 28
41 39 36 36 35 32 30 29 31 33 36 37 37 36 36 37 37 34 33 32 31 31 29 27 29 30 31 33 35 35 35 35 35 34 31 30 30 30 30 29 30 30 28 26
34 32 30 31 30 31 30 30 32 33 35 36 35 33 33 33 32 32 27 29 28 25 23 22 25 29 32 33 33 34 34 33 31 30 30 30 30 30 30 30 30 29 27 26
32 31 29 30 31 30 30 31 33 35 37 35 32 31 31 30 29 28 27 26 23 23 19 23 27 29 31 30 30 30 30 30 29 29 29 29 29 29 29 29 29 28 27 25
31 31 29 30 30 29 30 32 33 36 36 32 31 28 27 27 27 25 23 21 16 17 25 27 29 30 28 28 28 28 28 28 28 28 28 28 28 27 25 24 23 22 21 19
30 28 30 29 30 28 30 33 35 37 33 31 27 25 25 25 23 21 21 18 19 26 28 28 30 28 27 26 26 26 27 27 26 26 25 24 22 21 20 19 16 16 15 15

GFSNW_sfc_30mbdewp_033.txt.gz
Dewpoint
33 38 42 45 45 48 47 41 34 49 49 34 36 33 33 34 37 38 36 35 33 33 33 32 30 28 28 31 32 31 31 31 26 25 33 33 31 29 29 21 19 20 26 21
35 39 41 45 45 47 44 37 40 48 43 30 31 36 34 35 36 36 34 34 35 36 35 32 32 30 31 31 31 31 35 30 24 26 31 34 31 32 32 28 23 19 16 14
33 37 40 44 45 48 44 37 32 41 40 39 34 34 34 33 37 36 37 36 37 36 34 35 33 33 32 31 31 36 37 32 28 24 27 32 29 31 32 29 22 22 21 20
33 37 40 43 45 47 46 38 34 37 31 34 34 33 33 32 34 37 37 36 36 34 32 33 32 33 33 34 34 38 36 29 32 32 33 33 32 31 30 28 25 22 23 26
35 34 40 43 46 46 43 37 39 40 35 38 37 35 34 33 34 36 35 35 35 36 33 32 30 33 32 29 38 37 38 30 32 30 33 33 31 33 30 30 26 27 32 29
34 34 40 43 45 46 42 45 43 40 38 37 36 36 36 35 37 38 37 37 36 36 36 37 37 37 37 36 35 36 35 32 31 29 33 34 29 34 31 32 31 28 31 32
33 34 39 41 45 46 45 44 44 39 35 36 35 37 36 36 37 37 39 39 38 38 41 41 40 39 38 37 35 38 36 35 33 30 32 26 32 38 37 34 36 37 37 36
32 34 38 40 44 45 45 47 44 39 36 36 36 37 38 38 39 39 39 40 40 41 41 37 35 32 33 34 36 38 37 36 34 31 29 29 26 37 36 35 34 38 38 39
32 34 38 40 44 45 46 47 48 43 37 37 40 37 39 38 38 37 40 43 44 42 39 35 29 27 29 30 33 37 38 39 35 32 28 24 26 28 31 34 33 38 39 37
34 33 37 41 43 45 46 48 49 43 38 42 40 38 38 40 38 36 38 39 41 42 36 34 31 29 35 31 28 32 36 35 33 31 29 29 32 32 29 24 24 32 33 35
36 34 36 42 42 44 46 46 49 45 41 42 43 42 40 41 40 35 38 38 41 39 35 35 32 31 34 33 33 32 32 31 32 32 30 24 32 27 24 28 35 36 35 35
36 34 36 41 41 43 46 46 49 49 43 43 47 46 45 44 43 41 42 39 41 40 37 37 37 34 35 34 30 35 32 34 32 34 31 34 34 33 35 36 35 36 36 37
34 35 36 39 41 43 45 45 48 46 44 43 44 42 46 48 47 48 39 42 43 43 43 39 37 35 35 32 33 34 36 37 36 35 34 35 34 34 36 36 36 37 37 36
36 37 39 39 40 42 45 44 48 46 43 38 39 46 44 46 47 47 47 46 47 46 45 42 38 35 36 34 34 34 35 37 35 35 35 35 33 34 36 36 36 36 36 35
38 39 38 39 40 42 45 46 48 49 44 39 40 45 44 46 46 45 46 45 44 44 42 41 39 41 37 37 34 33 34 36 34 33 35 33 32 35 37 36 36 35 34 34
36 38 39 39 40 43 44 44 48 49 48 42 37 45 42 43 44 43 43 44 44 45 43 42 43 41 40 37 36 37 35 34 37 36 34 35 36 36 37 36 35 35 34 33
36 37 39 39 41 43 41 41 45 49 47 43 38 39 42 42 42 42 41 43 43 44 43 42 41 40 40 37 34 36 34 34 34 35 35 34 35 35 36 36 36 35 34 33
36 38 39 40 41 43 43 47 49 49 45 44 37 37 39 42 41 40 43 41 43 42 42 41 40 39 38 35 36 37 34 35 35 35 36 35 36 36 36 36 35 33 32 32
38 40 41 42 43 41 45 50 49 47 44 39 38 35 33 42 41 41 41 42 38 40 39 39 39 37 34 35 35 35 34 34 35 35 36 36 35 35 35 34 33 32 32 31
41 41 40 38 43 49 49 46 43 41 42 41 38 39 36 40 39 38 38 38 37 35 37 38 36 36 38 39 39 37 35 35 35 34 34 34 34 34 34 33 33 33 32 31
38 38 37 40 48 45 42 38 37 38 36 39 38 39 37 39 36 35 37 35 34 32 33 35 32 32 35 33 36 37 36 36 35 35 35 35 34 33 33 32 32 32 31 30
37 37 39 40 40 39 36 34 35 35 33 38 38 38 38 38 39 38 37 34 34 29 33 32 29 32 32 32 35 36 36 36 35 35 35 34 33 32 32 31 30 30 28 25
40 37 32 33 35 31 31 29 31 33 35 37 37 36 37 38 37 35 34 33 32 31 29 27 29 30 30 32 35 35 35 35 34 33 32 31 31 31 30 30 29 27 25 23
33 31 29 30 30 32 31 30 32 34 36 37 36 34 33 35 34 33 31 30 28 26 24 23 25 29 31 33 34 34 34 33 31 30 30 30 30 30 30 29 27 26 24 23
32 31 28 30 31 31 31 32 32 34 37 35 33 32 32 30 31 28 28 26 25 25 22 22 25 27 31 32 33 33 31 30 30 30 30 30 29 29 29 28 27 25 24 21
32 31 29 31 30 30 30 32 32 36 36 33 32 29 28 30 29 26 25 23 21 20 24 25 26 30 29 30 30 30 30 29 29 29 29 29 28 27 26 25 24 23 20 17
30 28 29 29 30 29 30 32 35 37 34 32 29 27 28 25 24 23 22 21 20 23 27 26 28 28 28 28 28 28 28 28 28 27 26 25 24 24 23 22 18 17 16 15

GFSNW_sfc_30mbdewp_036.txt.gz
Dewpoint
36 34 35 40 44 46 46 40 33 47 49 35 33 32 33 36 36 37 35 33 32 30 31 29 30 29 28 31 33 31 31 30 25 25 28 32 29 30 29 24 20 22 19 15
36 34 36 40 43 45 43 37 38 48 45 29 31 36 34 35 36 36 33 32 34 34 33 30 33 31 32 32 33 31 32 29 23 22 30 31 30 32 32 30 29 21 17 14
36 35 37 39 43 45 44 37 32 39 39 39 35 34 32 34 36 36 36 34 35 35 34 36 33 33 34 32 32 34 34 32 27 22 23 30 28 30 32 30 25 22 21 18
35 34 36 40 43 45 44 37 33 36 31 32 36 34 32 32 33 36 36 36 34 32 32 32 33 35 33 33 34 34 34 30 32 32 32 32 32 31 31 29 28 24 21 21
36 34 35 40 43 46 43 37 36 39 33 37 36 34 33 31 34 34 34 34 32 33 33 34 31 32 32 31 36 36 37 31 33 30 33 34 31 32 32 32 31 29 25 23
38 33 36 39 42 46 41 43 43 37 35 36 34 34 34 33 34 37 35 35 35 35 36 39 39 37 36 36 35 36 36 32 30 27 33 32 30 32 33 33 31 29 26 26
38 33 34 38 41 45 44 42 41 37 34 35 35 36 35 35 35 34 38 38 37 38 41 42 40 38 39 39 38 38 35 34 32 29 32 26 32 38 37 34 32 31 29 30
38 35 34 38 41 45 44 44 43 40 36 36 35 37 36 37 38 38 37 40 40 44 42 37 35 34 34 34 37 36 36 35 32 30 29 31 29 36 35 32 33 35 35 33
37 37 35 37 42 44 44 45 46 44 37 36 37 36 38 37 37 38 39 43 44 43 38 35 29 24 26 29 31 37 37 37 34 32 28 26 28 29 38 37 33 40 38 37
37 37 35 36 41 43 44 44 49 45 39 41 40 37 38 40 38 36 38 39 40 43 36 32 30 26 33 30 27 33 35 35 32 32 29 30 32 33 37 28 25 36 40 39
37 37 35 35 40 43 44 44 47 46 41 42 42 41 40 40 39 35 37 37 38 38 34 34 32 30 32 33 32 31 31 31 30 31 29 25 33 29 27 29 33 35 35 36
37 35 37 36 40 42 43 43 48 50 43 42 47 46 44 42 41 41 41 39 39 40 35 36 37 32 34 33 29 35 31 33 32 32 31 34 35 33 35 36 35 36 36 36
33 37 39 40 39 40 42 43 46 46 43 42 43 41 45 48 47 48 40 42 43 43 44 40 38 35 34 31 32 33 35 37 35 35 34 34 34 34 36 36 36 37 37 35
34 37 38 39 40 40 42 42 46 47 42 37 39 46 44 46 49 48 47 45 46 44 45 42 39 35 36 34 34 34 35 37 35 35 35 35 35 34 36 36 36 35 34 33
34 35 36 38 40 40 43 44 46 49 44 39 40 45 45 46 47 47 47 46 43 42 42 41 38 41 36 36 34 33 36 36 34 32 35 34 32 36 36 36 35 34 33 31
34 34 35 37 39 41 42 43 48 49 48 41 36 45 44 44 45 44 44 44 44 44 43 42 42 41 39 36 35 37 35 35 37 36 34 35 36 37 37 35 35 34 33 31
35 37 37 37 39 41 38 40 44 46 48 42 37 38 42 43 43 43 43 44 43 43 43 42 42 41 40 38 35 36 36 34 35 35 35 35 36 35 36 35 34 33 31 30
36 38 38 38 40 41 41 45 45 46 45 44 37 37 39 42 41 40 43 42 43 43 42 41 40 39 39 36 38 38 36 35 35 35 36 36 36 36 35 34 33 32 30 29
38 41 41 41 41 40 45 50 49 48 44 39 38 35 33 41 41 42 42 42 38 40 39 39 39 38 36 38 38 36 35 34 35 36 36 36 36 35 34 33 32 31 30 29
40 42 40 38 43 48 49 46 43 42 42 42 38 39 36 40 39 38 38 38 37 35 37 38 36 35 37 38 38 37 35 35 35 34 34 35 35 34 34 32 32 31 30 29
37 34 35 38 42 45 42 37 37 38 36 38 37 39 37 39 36 36 37 35 34 31 32 34 31 32 35 34 36 37 36 36 35 35 35 36 35 34 33 32 32 31 29 27
38 37 39 39 39 39 36 33 35 35 33 38 38 38 38 38 39 37 36 33 33 28 32 31 28 31 32 32 35 36 36 35 35 35 35 35 34 33 32 32 31 29 26 24
39 36 32 32 34 30 31 28 32 33 35 37 37 36 37 38 37 35 35 32 30 31 29 28 29 30 30 31 34 35 35 35 34 33 33 33 32 32 31 30 28 25 24 23
33 31 28 29 30 32 32 31 31 33 34 37 36 35 35 36 35 33 33 31 29 27 25 24 25 27 30 33 34 34 34 33 32 32 31 31 30 29 28 27 25 24 22 20
32 31 27 30 31 32 31 32 32 34 36 35 33 32 32 32 32 29 28 27 26 26 24 23 24 26 30 32 33 33 31 31 30 30 30 29 28 27 26 25 24 22 21 19
32 31 29 30 29 29 30 31 32 35 36 34 33 30 29 32 29 28 26 25 23 23 25 24 25 30 30 31 31 30 30 30 30 30 29 28 27 26 25 23 21 20 18 17
30 28 29 29 29 29 30 32 34 37 35 33 30 29 29 27 26 26 24 24 23 22 25 26 27 28 29 29 29 29 29 29 29 28 27 26 24 23 22 20 17 16 16 15

GFSNW_sfc_30mbdewp_039.txt.gz
Dewpoint
39 37 37 37 39 45 44 40 32 44 48 33 32 32 33 37 36 36 34 33 31 29 31 29 28 28 29 31 33 31 32 30 24 23 28 30 28 27 28 24 22 25 22 18
39 37 35 37 40 44 42 35 35 47 41 29 31 35 35 37 35 34 32 32 34 34 31 29 30 31 32 33 32 31 31 29 22 20 28 31 30 30 28 31 29 24 20 16
38 38 35 36 40 44 44 37 30 36 38 37 31 33 33 34 37 35 34 34 34 33 33 34 31 32 33 33 33 34 32 31 25 21 19 24 29 31 32 30 25 22 24 21
38 38 34 36 40 44 44 37 32 36 30 33 33 35 33 33 33 36 35 34 32 32 31 31 32 32 33 33 33 33 34 29 30 29 30 31 32 31 32 29 28 25 22 24
38 38 34 36 40 44 41 36 34 38 34 36 35 35 32 31 34 34 34 32 34 34 32 31 32 33 33 31 35 33 37 30 33 30 32 32 32 34 33 33 31 30 29 27
38 38 36 36 40 44 39 40 42 38 36 35 34 34 33 32 34 35 34 34 33 33 34 35 36 37 37 36 36 35 35 33 30 27 31 32 30 34 33 33 33 31 28 29
38 38 37 36 39 43 43 41 42 35 32 35 34 35 35 33 33 35 37 36 35 37 41 40 41 39 38 38 37 37 34 33 32 28 31 25 30 38 38 35 35 34 32 30
37 38 38 35 38 42 44 43 41 38 35 36 36 35 34 36 37 35 36 39 39 42 41 36 33 33 34 35 37 36 37 34 31 29 29 29 29 31 36 35 34 37 34 33
38 38 37 35 37 41 43 42 45 42 38 36 37 36 36 34 36 37 38 42 45 43 38 35 29 25 27 27 33 37 37 36 32 31 28 25 29 32 37 37 32 38 35 35
38 37 36 38 37 41 43 42 46 44 40 40 38 36 37 39 38 36 38 40 41 43 36 31 30 26 31 29 26 33 33 32 29 30 29 30 33 32 38 28 31 33 38 38
38 34 37 39 40 41 42 41 45 44 41 41 42 41 40 40 39 36 38 37 38 38 33 32 32 30 30 32 31 30 31 32 31 31 29 26 34 31 27 30 34 35 36 39
35 34 36 39 40 41 42 40 43 46 44 41 46 45 44 41 41 39 40 38 38 38 36 35 35 31 32 32 29 34 30 32 30 31 30 32 36 35 34 36 35 36 36 36
33 34 34 36 36 40 41 42 43 46 43 42 42 40 45 47 45 45 39 41 42 41 44 39 38 35 33 31 32 32 34 36 34 35 34 35 36 35 36 36 36 36 37 35
35 37 36 35 36 38 41 41 43 43 43 37 38 46 44 47 48 48 47 45 46 45 43 41 39 35 37 33 33 34 34 36 35 35 35 35 35 35 36 36 35 33 32 31
34 34 35 36 36 37 41 42 44 45 44 39 40 44 45 46 47 47 48 46 44 42 40 40 38 40 36 35 34 33 36 35 34 32 35 34 33 36 36 35 34 32 30 29
34 36 36 37 37 38 40 41 47 49 48 41 36 45 44 45 46 45 45 44 44 43 42 42 42 41 39 37 35 36 35 36 37 36 35 35 36 37 36 35 33 32 29 27
34 37 38 39 37 39 37 39 43 44 44 42 37 37 43 44 44 44 43 44 43 43 43 41 42 41 40 38 34 35 36 36 35 35 35 35 36 35 35 34 33 31 28 26
36 38 40 41 40 40 39 43 44 44 45 44 37 36 39 43 41 40 43 41 42 43 42 42 41 40 40 36 38 38 36 35 35 35 36 36 36 36 34 33 31 30 28 26
37 41 41 41 40 39 43 49 47 48 44 39 37 35 34 41 41 42 42 42 38 41 39 39 39 38 36 37 37 38 37 36 35 36 36 36 36 35 34 33 32 30 28 26
40 42 40 38 42 42 47 46 43 42 41 42 37 39 36 39 39 38 38 38 37 35 37 38 36 36 38 37 38 38 36 35 36 35 35 35 34 34 33 32 32 30 28 25
37 34 34 38 40 44 42 37 37 37 35 38 37 38 36 40 37 36 37 35 34 31 32 33 32 32 34 33 35 36 36 36 35 35 36 36 35 34 32 31 30 29 26 24
36 38 40 38 38 38 35 33 35 35 34 37 37 38 38 38 39 37 36 33 33 29 31 31 28 31 31 32 35 35 36 36 35 35 35 35 34 33 32 30 29 27 24 22
38 35 32 32 33 30 31 28 32 32 35 36 37 36 38 38 37 35 35 32 29 31 30 28 30 30 30 31 34 35 35 35 34 34 34 33 33 32 30 27 26 24 23 21
33 31 28 29 29 31 32 31 30 32 33 36 37 36 36 36 35 34 32 31 30 28 26 25 26 26 30 32 33 34 34 33 33 32 32 32 31 29 27 26 24 23 21 19
32 31 27 29 31 32 31 31 32 33 35 35 34 33 33 33 33 30 30 28 26 26 24 24 24 25 29 32 33 33 31 31 31 31 30 29 28 26 25 25 23 21 19 17
33 31 28 30 30 29 30 31 31 34 36 35 33 31 30 32 31 28 27 26 24 24 26 25 24 29 30 31 31 31 30 30 30 30 28 27 26 25 23 22 21 19 17 15
30 28 29 29 28 28 30 31 33 36 35 34 32 31 31 28 28 28 26 25 25 23 24 26 26 28 29 30 29 30 30 30 29 28 27 26 23 21 20 19 17 16 16 15

GFSNW_sfc_30mbdewp_045.txt.gz
Dewpoint
40 39 39 39 38 40 43 40 31 44 42 32 33 31 35 36 32 35 31 28 27 26 27 27 27 26 28 30 30 29 30 29 26 26 27 27 26 26 26 24 20 24 23 21
40 39 39 39 38 42 43 37 34 43 42 30 31 35 36 37 32 32 31 31 29 28 27 26 27 28 30 30 30 29 30 28 24 27 27 26 25 26 25 28 29 25 23 21
39 39 39 39 38 42 44 36 32 37 38 38 34 34 34 35 36 34 33 32 30 29 29 30 28 29 32 32 30 32 30 29 27 23 24 26 29 29 29 31 26 24 25 24
39 38 39 39 38 43 44 35 33 36 31 34 36 34 36 32 31 34 33 31 30 29 28 29 29 29 33 34 33 32 31 29 28 29 27 27 28 29 30 32 31 27 26 28
39 38 40 38 38 43 40 34 33 36 33 33 35 32 35 33 33 32 30 29 30 29 28 26 28 30 30 31 33 32 34 28 29 28 29 28 28 29 30 33 36 35 35 33
39 39 39 38 40 42 39 40 40 38 35 31 30 29 28 29 32 33 32 31 31 30 31 31 32 32 33 36 33 33 34 32 30 24 27 26 30 33 34 37 38 36 31 31
38 39 37 39 41 42 42 40 40 36 32 34 30 30 30 30 31 31 34 32 31 36 38 37 36 35 36 37 36 36 33 33 32 26 26 24 26 34 35 35 37 37 37 35
39 38 36 40 41 42 42 41 40 37 32 35 33 32 31 32 34 34 34 34 37 39 39 35 31 32 34 33 37 35 36 35 30 26 24 24 25 32 31 35 36 37 37 37
38 37 36 37 38 39 42 43 44 41 34 34 32 32 32 31 31 34 36 40 40 40 37 34 29 26 25 26 31 36 35 35 32 27 24 21 28 33 36 38 34 36 39 40
34 35 35 36 36 37 40 42 44 41 36 40 36 33 33 35 33 34 36 40 40 40 36 32 30 28 26 24 26 30 31 32 28 27 26 25 27 33 39 29 33 36 39 39
34 34 35 37 37 37 39 41 45 40 38 40 41 39 36 35 36 33 39 38 39 38 34 33 32 30 28 26 27 31 31 30 29 31 28 24 33 34 33 34 38 37 41 39
35 34 35 37 36 36 38 40 43 44 39 42 46 45 45 42 41 40 39 38 38 38 36 35 36 31 30 26 23 30 28 31 34 30 28 30 35 35 36 37 36 36 37 42
35 34 34 34 36 36 38 39 42 41 43 43 43 41 45 46 44 44 38 41 40 40 42 39 37 35 33 28 28 29 32 33 32 32 32 34 35 36 36 37 36 36 36 38
35 35 34 38 38 37 37 39 41 40 39 39 38 46 44 47 47 46 46 43 44 44 43 40 37 34 37 31 34 33 33 35 34 33 34 35 35 36 36 36 35 33 33 35
35 35 34 36 38 38 38 39 42 42 40 37 39 43 45 46 47 47 47 45 43 42 40 38 36 38 39 37 36 34 35 33 33 30 35 35 35 36 37 35 33 32 32 33
35 34 36 38 39 39 37 41 45 45 45 40 37 44 44 45 47 46 46 46 45 43 40 37 39 40 38 35 34 34 34 36 36 35 36 36 37 36 35 33 31 30 30 30
33 35 38 40 40 39 36 38 41 45 43 41 38 38 44 45 45 44 44 45 43 43 40 38 39 42 40 35 31 32 35 37 37 38 37 36 36 35 33 32 30 30 28 27
35 37 41 43 42 38 37 41 44 43 42 43 36 37 38 44 41 40 44 41 41 41 40 42 41 40 40 36 37 37 37 37 36 36 36 37 36 35 33 30 28 27 26 25
35 39 41 39 38 37 41 44 46 45 44 39 38 34 34 43 41 42 41 42 36 41 38 40 40 38 36 38 38 39 39 38 38 37 37 36 35 34 32 31 29 27 26 25
37 40 40 38 42 42 43 44 42 42 43 43 37 40 35 40 40 40 39 39 37 34 37 39 36 36 38 39 40 39 39 38 38 37 36 36 35 34 33 32 31 28 27 25
36 35 35 38 41 43 42 38 37 38 36 39 38 37 36 41 37 37 38 36 35 32 33 34 34 32 35 34 35 37 38 38 38 37 38 38 37 36 34 33 31 26 24 21
35 36 39 38 38 38 35 34 35 35 33 38 37 38 39 40 41 38 38 34 34 30 33 31 30 32 33 32 34 36 36 37 37 36 37 40 38 37 35 31 28 25 22 19
39 36 33 34 34 31 31 29 31 32 36 36 37 37 38 39 39 36 35 33 31 32 31 29 31 34 29 32 34 36 36 36 35 35 36 36 37 35 34 29 26 22 20 19
34 31 29 29 30 31 31 31 31 34 34 35 37 37 36 37 36 36 33 33 31 30 27 29 31 28 28 32 34 35 35 34 35 35 35 34 33 32 30 27 24 21 19 19
32 31 26 29 32 33 32 33 33 35 36 36 36 35 34 35 34 33 32 30 29 29 30 33 30 28 30 31 33 34 34 34 34 34 33 32 30 28 25 24 22 21 20 19
33 31 29 31 30 31 32 32 33 36 36 36 35 33 33 33 33 31 29 28 28 32 33 31 29 29 31 31 32 32 32 33 32 32 31 30 28 26 24 23 21 20 19 17
30 30 30 30 30 30 31 32 32 35 34 33 33 31 32 32 31 30 31 30 32 30 30 30 30 29 29 29 31 31 31 32 31 30 29 28 26 23 22 21 20 19 18 17

GFSNW_sfc_30mbdewp_048.txt.gz
Dewpoint
40 39 39 39 38 42 44 38 31 44 44 32 33 31 32 37 37 34 29 27 27 27 27 27 25 27 28 30 30 28 29 29 27 26 28 30 29 27 27 22 19 23 25 21
40 39 38 40 37 42 44 36 35 42 42 28 28 34 36 36 37 33 31 28 27 27 27 26 27 28 29 30 30 30 30 28 23 24 27 26 25 26 27 27 27 23 22 20
39 39 40 39 39 42 43 37 31 37 38 38 32 32 33 34 37 34 32 29 28 27 28 28 28 29 30 31 31 31 30 29 27 26 26 29 26 27 26 27 26 23 24 24
39 39 39 39 42 44 42 37 33 36 32 34 33 36 35 33 31 34 32 31 28 27 26 27 27 31 32 32 34 30 31 28 29 29 29 27 27 28 30 29 29 26 25 27
39 40 38 39 43 44 40 35 32 35 36 37 34 35 35 33 32 33 29 30 29 28 28 28 27 29 30 31 33 32 32 28 30 27 28 28 28 29 29 30 31 34 35 35
40 39 37 40 42 43 39 39 40 37 35 35 34 34 34 33 33 33 31 30 30 30 32 32 32 33 31 33 32 31 34 31 30 24 27 27 26 29 30 35 37 37 33 35
40 38 37 38 40 41 42 40 39 35 32 34 30 29 31 33 35 32 32 31 31 37 37 36 35 34 36 36 35 33 32 32 31 26 26 24 25 34 35 34 37 38 38 37
35 36 36 36 37 38 40 42 40 37 32 34 33 31 30 34 35 33 33 36 38 39 38 33 31 33 33 33 34 34 35 35 30 25 23 24 28 32 31 32 36 38 37 40
34 34 34 36 39 38 39 42 44 40 35 34 36 32 33 33 33 34 38 40 41 39 36 33 28 26 25 30 31 35 35 36 32 29 23 21 26 33 35 38 33 38 39 40
35 35 35 36 39 37 39 41 44 41 36 38 38 34 33 36 34 34 37 39 39 40 35 31 29 26 27 24 29 30 32 32 29 28 26 26 26 36 39 32 32 38 40 40
35 35 35 35 36 37 38 39 43 41 37 38 40 41 39 34 36 34 39 37 38 37 34 32 32 31 28 27 31 30 29 28 28 29 26 23 32 34 34 36 38 39 40 40
35 35 35 36 37 36 35 38 42 42 39 39 45 46 45 44 42 41 40 38 37 38 35 35 36 32 30 30 25 32 30 30 29 30 28 29 34 34 37 37 36 37 37 41
35 35 35 35 37 39 38 37 40 41 40 43 44 43 45 46 45 45 39 40 40 40 42 38 36 33 34 30 29 31 31 32 32 33 33 33 35 36 37 37 36 35 36 41
35 35 35 34 35 37 38 38 40 39 39 37 40 45 44 46 47 46 46 43 44 43 43 38 37 35 38 33 34 34 34 34 33 33 33 35 36 36 36 35 34 33 34 37
36 35 34 34 37 39 40 39 39 41 38 37 39 42 45 46 47 47 46 44 43 42 40 38 35 37 37 38 37 35 34 35 34 33 35 36 35 36 36 34 32 32 33 36
36 35 34 37 39 39 38 38 44 44 43 39 36 44 44 45 46 45 45 45 44 43 40 37 38 38 38 36 34 34 35 36 36 36 36 37 36 35 34 32 31 31 32 33
35 35 37 39 41 41 35 37 41 44 42 40 37 38 44 45 45 45 44 45 43 43 40 37 38 39 40 37 32 33 34 36 37 38 37 36 36 34 31 30 30 30 29 29
35 36 39 42 42 40 36 41 42 42 40 42 37 36 39 44 41 39 44 40 42 40 40 40 38 40 40 36 37 37 38 38 38 37 37 37 35 33 31 30 28 26 25 25
36 38 41 39 37 36 40 44 46 45 43 38 37 33 33 43 41 42 41 41 34 39 37 38 40 37 34 37 37 39 39 38 37 37 37 35 34 32 30 30 29 26 25 24
38 41 40 37 41 42 43 43 41 41 43 42 37 39 35 41 40 39 39 40 36 32 36 39 37 36 38 38 38 39 39 38 38 37 36 36 34 33 31 30 28 27 25 23
36 34 35 38 41 42 41 38 37 38 36 39 39 38 36 41 37 37 39 36 35 31 33 33 34 34 35 33 33 36 37 38 38 38 38 38 36 33 32 31 29 27 24 20
36 36 39 39 38 38 35 34 35 34 33 38 37 38 38 40 41 38 38 33 34 30 33 31 30 33 32 31 33 35 36 36 37 36 38 39 37 36 34 32 29 24 21 19
40 37 34 35 35 31 30 28 31 32 35 35 36 36 39 39 39 37 35 32 31 34 31 30 31 30 28 30 33 35 36 35 35 36 37 41 38 36 32 30 28 21 19 19
33 31 29 29 30 31 32 32 32 34 35 35 36 36 36 37 36 36 33 34 32 30 28 29 30 28 28 31 33 34 36 35 35 35 36 36 36 33 29 25 21 20 19 18
32 31 26 29 32 33 33 33 33 35 36 36 36 35 35 35 34 34 32 30 29 29 30 34 30 29 30 31 32 33 33 34 34 34 34 33 31 28 26 23 21 20 19 18
32 31 28 31 29 31 32 32 33 35 36 36 35 34 33 32 34 30 29 27 27 32 29 31 30 29 30 30 30 31 32 32 33 33 32 30 28 25 23 22 21 20 19 18
29 27 31 31 30 31 32 32 33 35 34 32 33 31 30 32 31 29 30 30 31 28 30 29 29 29 28 29 30 31 31 31 31 31 30 29 26 23 22 21 20 19 18 17

GFSNW_sfc_30mbdewp_051.txt.gz
Dewpoint
40 39 40 38 40 43 44 38 31 41 44 29 32 30 33 34 35 39 36 31 28 27 30 28 27 27 29 30 30 28 29 29 25 27 29 30 30 28 26 20 16 23 23 21
40 39 40 39 42 44 43 36 36 41 40 28 27 34 33 34 37 36 31 28 28 29 28 26 27 28 30 30 29 29 30 27 22 25 27 30 28 29 28 26 26 21 20 19
40 40 39 41 42 44 40 36 30 35 37 37 34 33 32 33 38 37 32 28 28 28 28 31 30 29 31 31 32 33 30 28 24 21 25 28 25 26 27 27 25 22 22 22
40 40 38 41 42 44 41 37 33 35 31 33 36 36 35 34 33 34 32 28 29 30 28 30 30 31 32 33 32 32 30 27 28 28 29 29 28 27 27 25 26 25 23 24
40 39 38 39 42 43 39 35 33 36 34 37 35 35 34 35 33 33 30 28 30 30 30 29 29 31 31 31 32 30 32 26 29 26 27 29 28 28 28 29 28 27 27 29
35 37 38 37 39 41 39 40 40 37 35 36 34 34 35 35 34 32 31 31 33 33 33 33 33 32 32 33 31 30 31 28 28 23 26 27 26 28 29 29 31 31 32 35
35 35 36 36 39 39 40 40 40 36 30 34 32 32 34 34 34 32 34 36 35 36 36 35 35 36 36 34 32 33 33 29 30 24 27 22 26 31 32 32 34 37 38 39
36 35 35 36 39 38 38 41 40 37 32 34 33 32 34 35 34 35 37 38 39 39 38 33 32 32 31 33 35 34 34 31 30 26 25 24 28 34 32 32 34 39 38 37
35 36 36 35 36 38 38 41 44 40 35 32 37 34 33 34 34 35 38 41 41 39 36 32 27 25 26 30 32 34 35 35 31 28 21 20 29 33 35 38 33 39 39 40
36 35 35 36 36 36 38 39 43 40 36 38 39 34 34 37 34 34 37 38 38 39 33 30 28 26 28 28 28 30 32 32 29 25 25 25 27 33 39 30 31 38 40 42
35 35 35 35 35 36 38 36 42 39 36 37 39 41 40 38 36 34 39 36 37 36 32 30 30 30 29 28 31 30 28 28 28 28 26 21 30 37 33 34 37 39 40 40
35 35 35 35 35 38 39 35 40 42 37 38 42 43 44 45 43 40 40 38 37 38 35 34 35 30 31 30 26 32 28 29 28 28 26 27 31 34 37 37 36 37 38 41
35 35 34 34 35 36 38 38 38 40 39 40 43 41 45 46 45 45 38 40 40 39 42 37 36 33 34 31 29 31 32 31 32 32 33 32 33 36 37 36 35 35 36 41
35 35 35 35 34 36 38 38 39 38 36 35 40 45 43 46 47 46 46 43 44 42 41 37 36 35 37 34 35 34 34 33 32 32 33 35 36 36 36 35 33 33 34 39
36 35 35 34 35 38 40 39 39 40 36 35 38 41 45 46 46 46 46 43 42 41 39 38 36 37 36 36 37 34 35 34 33 33 35 36 36 36 35 34 32 33 35 39
36 36 34 36 39 40 38 36 43 42 42 38 35 43 44 46 46 45 44 44 43 42 40 38 38 40 38 35 34 34 35 36 35 35 37 37 36 34 33 32 31 33 35 37
36 35 36 38 40 41 34 37 41 44 41 38 36 37 43 45 45 45 45 45 44 43 41 38 38 38 38 36 32 33 34 35 37 38 37 36 35 34 31 31 31 31 30 31
35 37 38 41 42 41 36 38 39 41 39 41 36 34 37 44 41 39 44 41 42 41 40 39 38 38 37 34 36 37 38 39 38 38 37 37 35 32 30 30 28 28 27 26
37 40 41 40 34 35 39 44 45 45 41 37 37 32 31 43 41 42 41 40 34 39 37 37 40 36 34 37 38 39 39 38 37 37 36 34 33 32 30 28 27 26 25 25
39 41 39 36 39 42 43 42 40 40 41 41 37 39 34 40 40 38 39 40 35 32 36 39 36 35 38 33 33 35 36 38 38 37 36 35 33 31 30 28 27 26 25 23
34 33 33 38 41 41 39 37 36 37 36 39 39 38 35 41 36 37 39 35 34 30 33 33 33 34 32 30 32 34 36 36 36 38 38 38 36 33 31 29 27 25 23 20
34 36 38 39 38 37 34 34 35 35 33 38 37 38 38 39 41 38 38 33 32 29 35 31 30 32 28 29 31 34 35 36 36 37 37 38 36 33 31 30 27 24 20 20
40 37 34 34 34 30 30 29 31 32 36 35 36 36 38 39 39 37 35 32 31 35 31 30 32 29 29 30 32 33 36 36 35 36 39 38 36 35 33 32 29 21 19 18
34 31 27 28 29 30 31 31 32 34 34 35 36 36 36 37 36 36 33 34 32 29 27 30 30 29 29 31 31 32 34 36 34 35 38 40 36 33 32 30 27 22 18 18
31 31 25 29 32 33 33 33 34 35 36 36 36 35 34 34 34 34 32 30 27 30 30 30 29 29 29 29 29 30 32 33 34 34 34 34 32 29 25 23 21 20 19 18
31 31 28 31 29 31 32 32 33 35 35 36 35 33 32 30 33 30 28 26 26 30 28 29 28 28 28 28 29 30 31 32 32 32 32 30 28 26 23 21 21 20 19 18
29 25 30 31 30 31 32 32 33 35 34 31 32 31 30 32 31 28 31 28 28 27 27 26 27 27 27 27 29 30 30 31 30 30 30 29 26 23 22 22 24 23 20 17

GFSNW_sfc_30mbdewp_054.txt.gz
Dewpoint
41 40 39 41 42 45 43 38 31 40 44 28 31 29 32 34 33 39 38 30 31 30 29 28 27 27 29 30 30 28 30 28 26 29 30 31 30 28 25 20 16 22 22 16
41 41 39 40 42 45 40 35 36 40 39 28 29 32 33 33 35 37 34 28 28 30 28 26 28 28 30 30 29 29 29 25 22 24 26 30 28 29 28 24 25 21 18 16
40 40 39 39 41 44 39 34 29 33 36 37 33 31 32 34 37 37 32 29 29 28 29 30 29 29 33 31 30 32 30 27 22 19 22 27 26 28 29 27 24 22 21 20
36 37 38 38 40 43 39 36 33 35 30 32 35 35 36 33 32 31 31 29 29 30 31 29 30 31 31 32 34 32 29 26 28 28 28 29 27 26 27 27 26 23 22 23
36 35 37 38 40 41 39 35 34 36 35 37 35 36 35 34 32 33 32 34 32 32 31 30 30 31 31 30 31 31 31 25 28 26 27 28 28 29 28 27 27 26 26 26
36 36 36 37 40 40 37 40 39 37 33 34 35 34 35 35 35 35 35 34 34 33 34 33 33 32 32 32 30 31 30 28 27 22 26 26 25 27 28 28 29 28 26 28
35 36 36 36 40 40 39 39 40 34 29 33 32 34 35 34 34 34 37 36 34 36 36 35 35 35 34 33 32 32 30 28 29 24 26 22 25 31 30 29 29 31 33 37
35 35 35 36 37 39 38 40 40 37 30 33 33 35 35 35 36 37 38 39 39 39 37 32 31 30 30 33 32 32 32 29 28 25 25 24 28 34 32 32 32 36 37 38
36 35 35 35 36 37 38 42 42 40 34 30 36 35 34 34 34 35 38 41 41 38 35 32 26 24 27 28 32 35 35 35 30 27 22 18 28 32 36 37 31 37 39 39
36 35 35 35 35 36 38 38 42 39 35 37 39 35 35 37 35 34 37 38 36 38 32 30 27 26 30 28 27 30 32 32 29 26 23 25 26 29 39 30 29 37 39 40
36 35 35 35 35 36 39 37 41 38 35 36 38 40 40 39 37 33 37 34 36 34 30 28 29 28 29 29 30 31 29 28 27 28 25 20 29 36 33 33 37 38 40 40
36 35 35 34 35 35 37 35 40 42 36 36 40 41 42 44 43 40 39 37 36 37 35 34 34 30 31 30 27 32 29 28 27 27 25 27 31 31 36 37 36 37 38 40
37 35 35 34 34 35 36 37 39 40 37 39 40 41 43 45 45 45 37 40 39 38 41 37 35 31 33 30 30 30 32 31 30 31 33 32 33 33 36 36 35 35 36 40
35 37 35 35 35 34 36 37 40 37 36 33 38 45 44 46 47 46 45 41 43 41 40 36 35 34 35 32 33 34 34 32 31 32 33 34 36 36 36 35 33 33 34 40
34 35 35 34 33 34 39 40 40 39 36 34 37 40 43 46 46 46 45 42 41 40 39 37 35 37 36 35 36 33 34 32 32 32 35 36 36 36 36 35 33 33 36 40
36 36 35 34 36 39 38 34 42 40 39 36 34 41 44 45 45 45 44 43 42 42 40 38 39 39 37 34 33 32 35 36 36 35 36 37 36 35 34 33 32 33 37 39
37 36 36 36 39 40 34 36 41 43 42 37 35 36 43 44 44 44 44 45 44 43 41 39 38 38 39 36 32 32 33 35 36 38 37 36 36 35 32 31 32 33 35 36
36 37 40 41 42 42 38 37 38 42 39 39 35 35 35 44 41 39 44 41 42 41 40 40 39 38 38 34 36 36 37 39 38 37 37 36 35 32 31 30 29 30 30 31
36 40 42 38 33 33 37 45 45 42 40 36 37 32 29 43 41 41 41 41 35 39 36 37 39 37 34 35 33 33 35 36 38 37 35 34 34 32 30 29 28 28 26 26
38 41 38 33 37 43 43 41 39 39 40 39 37 39 34 40 39 37 38 39 34 31 35 40 36 34 34 30 30 33 34 35 36 37 37 35 34 33 31 29 28 26 25 23
34 32 33 37 41 41 39 37 35 36 35 38 38 38 35 40 36 36 39 35 33 30 32 32 32 32 30 29 30 32 34 35 35 36 37 38 37 35 31 29 27 26 24 21
33 34 38 39 37 37 33 32 35 34 33 38 37 37 37 38 41 37 38 33 32 29 34 31 29 32 29 29 31 32 33 36 35 36 36 38 38 36 32 29 27 25 21 20
40 37 33 34 34 29 28 27 31 31 35 36 36 35 38 39 39 37 35 32 31 35 30 30 31 29 29 29 30 30 32 35 35 35 39 37 35 33 31 28 25 22 23 23
33 30 27 29 29 30 32 31 32 34 35 35 36 35 36 38 36 36 32 34 32 29 27 29 29 28 28 29 29 30 32 34 34 35 36 40 37 33 32 30 28 26 24 21
30 31 25 28 31 33 33 33 33 35 36 36 35 35 34 33 34 34 32 30 27 30 28 28 28 27 28 28 28 29 31 32 33 33 33 35 34 32 31 29 28 21 19 18
30 30 28 30 30 31 31 32 33 35 35 36 35 33 32 30 32 30 28 26 25 28 27 28 27 27 27 27 28 29 30 31 32 31 31 32 31 28 26 26 23 21 19 18
27 25 31 30 30 30 32 33 33 34 33 31 32 30 29 32 30 29 30 27 28 27 27 26 26 26 27 27 28 28 29 29 29 28 28 29 26 23 22 23 24 25 24 21

GFSNW_sfc_30mbdewp_057.txt.gz
Dewpoint
39 40 40 39 41 44 41 37 27 39 43 28 30 29 31 34 34 38 37 30 30 29 29 27 27 26 28 30 30 28 30 28 27 28 30 30 29 27 25 18 17 21 20 12
37 36 37 38 41 43 39 34 34 39 38 28 30 33 33 35 36 36 34 29 30 29 27 26 27 28 30 30 29 29 28 24 23 25 26 30 28 29 25 24 22 21 16 12
37 36 37 38 41 41 39 33 29 32 35 36 33 31 33 34 37 35 32 29 29 29 30 30 28 29 33 31 29 32 29 25 21 17 21 27 25 28 28 26 23 21 21 19
36 37 37 38 41 41 38 36 32 36 31 32 35 36 34 32 31 33 33 29 30 31 29 29 30 31 31 32 35 32 29 25 26 26 27 28 27 26 28 27 26 22 22 23
36 36 36 37 40 40 38 35 34 36 34 36 33 34 34 33 34 34 33 32 33 32 30 30 29 30 30 30 31 31 30 26 28 25 27 28 27 28 27 28 28 28 27 26
37 35 36 36 37 39 37 39 40 37 31 33 33 34 34 34 35 35 36 35 34 32 34 33 32 32 32 31 30 31 29 27 26 21 25 26 23 27 28 28 28 27 26 26
37 35 34 36 37 39 39 39 39 34 29 31 31 34 35 35 35 35 37 37 34 36 37 35 35 34 32 32 32 31 29 28 28 24 26 20 23 27 29 28 28 29 28 29
37 35 35 35 36 37 38 40 40 36 30 32 32 35 35 35 37 37 38 39 39 39 36 31 30 30 30 33 32 32 30 28 27 25 24 24 28 33 30 29 31 32 30 32
37 36 35 35 35 36 39 40 42 39 33 29 36 35 35 34 33 34 37 40 40 37 34 31 25 23 27 29 32 35 32 35 30 27 21 18 25 33 36 35 31 35 36 37
35 36 35 34 34 35 39 38 41 39 35 35 37 35 36 38 34 34 36 37 36 36 32 29 27 27 31 27 27 30 31 32 28 25 22 23 26 28 38 28 29 36 38 39
36 36 37 35 35 35 38 38 41 38 36 36 37 39 40 40 37 32 35 33 34 33 28 28 29 27 29 29 30 31 28 28 27 29 25 19 28 36 32 33 36 37 39 40
34 36 37 35 34 34 36 35 40 41 36 36 39 40 41 42 43 40 39 36 36 36 33 33 33 29 31 29 27 32 29 29 26 26 24 26 29 33 33 36 36 36 37 40
35 36 37 35 34 34 34 34 37 38 37 37 39 38 42 42 41 42 38 38 39 38 41 36 34 29 33 29 30 30 31 32 29 30 31 31 31 33 34 36 35 35 35 39
37 35 35 36 33 34 34 35 38 37 35 32 37 43 44 46 46 46 44 42 42 40 40 36 34 32 34 31 32 33 33 32 31 31 32 33 34 36 36 36 35 33 33 39
36 35 36 36 33 34 33 39 39 39 34 32 36 39 41 46 46 45 44 42 41 39 38 36 33 36 35 36 35 33 34 32 31 30 34 35 35 37 36 35 34 33 34 39
37 38 37 36 36 35 39 30 39 40 38 33 33 40 44 45 45 45 44 42 41 41 40 38 38 39 35 34 32 34 34 35 35 34 35 37 37 37 35 34 32 33 36 40
38 37 36 37 37 38 34 33 40 41 38 35 34 36 43 44 44 44 43 44 43 42 40 39 39 38 38 36 31 33 34 37 38 38 38 37 36 36 34 32 32 35 38 38
39 37 37 41 40 41 38 39 40 42 38 38 34 35 34 43 40 39 44 41 42 42 39 40 38 38 38 34 36 36 35 34 38 37 37 36 35 33 31 31 30 32 35 35
36 38 42 37 34 32 35 44 45 42 38 35 36 33 29 43 41 41 41 42 36 39 37 37 39 36 33 31 29 29 32 33 33 35 36 36 34 33 31 29 29 30 30 31
37 41 38 31 35 43 43 41 38 37 39 38 35 37 34 40 39 37 38 39 34 31 35 39 36 34 32 31 30 31 32 33 34 34 33 36 36 34 33 31 29 29 28 27
33 32 33 37 41 40 38 35 34 35 34 38 37 38 35 40 35 36 37 35 33 29 33 32 32 32 31 29 30 31 32 33 35 35 35 35 36 37 36 32 29 27 26 24
33 34 37 38 37 36 33 32 34 33 31 37 37 37 37 38 41 37 37 33 31 28 33 30 28 29 29 29 29 30 31 32 34 35 35 36 37 37 37 33 29 26 24 21
40 36 33 33 34 29 28 27 29 30 35 36 36 35 38 39 39 37 35 31 31 34 30 29 30 28 28 28 29 29 30 34 34 34 35 38 35 34 32 29 26 23 23 22
33 29 27 28 28 30 31 31 31 33 34 35 36 35 36 37 36 36 31 34 33 28 27 28 28 27 28 28 28 29 30 32 33 33 33 38 36 32 29 25 24 25 26 26
30 30 23 27 30 32 32 32 33 35 35 36 35 35 35 33 33 34 32 30 27 29 28 27 27 27 27 27 28 29 30 31 31 32 32 33 33 33 31 30 29 28 26 26
31 30 27 29 29 30 31 31 32 35 35 35 35 33 31 31 31 30 29 27 25 28 28 27 26 27 27 27 28 28 28 30 30 30 29 31 33 30 30 28 26 21 20 20
28 26 29 29 29 29 32 33 33 34 34 31 32 30 29 32 30 29 29 27 28 26 27 26 26 26 26 26 27 28 28 28 28 28 27 26 26 28 27 27 28 26 25 19

GFSNW_sfc_30mbdewp_060.txt.gz
Dewpoint
37 38 37 38 42 42 41 35 24 37 41 29 31 30 32 35 35 37 32 30 30 29 29 27 27 26 28 30 30 28 29 30 27 28 30 30 29 27 23 17 18 20 20 10
37 37 37 38 40 41 40 33 33 37 38 30 31 34 35 36 35 35 29 28 29 29 27 25 27 27 30 30 29 28 28 24 23 25 27 29 28 28 24 22 22 20 13 8
37 36 37 37 39 41 38 33 29 33 35 36 34 32 33 32 37 33 30 30 30 29 29 30 27 29 32 31 29 32 28 24 21 19 20 26 26 28 25 24 22 20 19 17
38 35 36 37 38 41 38 34 32 35 32 34 35 35 34 32 32 33 33 32 31 30 28 29 29 31 30 32 35 31 28 25 25 25 27 28 26 27 27 25 25 22 21 21
38 36 35 37 38 40 39 34 33 34 33 33 35 34 34 34 34 33 33 32 33 31 29 29 29 30 30 29 31 30 29 26 27 25 27 28 27 27 27 28 27 26 26 26
36 36 35 35 37 39 37 39 40 37 31 32 32 33 34 34 35 36 37 35 33 32 33 33 32 32 32 31 30 30 28 27 25 21 26 27 23 26 27 28 28 28 26 27
36 36 35 35 36 38 39 39 39 34 29 31 32 34 36 37 36 36 38 37 34 36 37 35 34 33 32 32 32 31 28 27 27 24 25 19 22 27 28 28 27 29 28 28
37 36 36 34 34 36 38 39 39 35 30 31 32 34 34 34 36 37 38 39 39 40 35 31 29 29 29 31 33 31 30 29 26 24 23 23 29 31 29 29 31 30 29 30
36 35 37 35 34 34 38 40 42 39 33 29 35 34 35 34 32 34 36 39 39 37 33 30 24 22 25 27 31 34 34 33 27 26 20 17 22 32 34 34 33 34 34 33
36 37 36 37 34 33 38 38 40 39 35 34 36 34 35 38 34 34 35 37 36 35 31 28 27 27 30 27 28 29 31 31 27 25 24 21 24 30 34 30 30 34 37 37
38 35 37 38 34 33 36 35 41 37 35 35 36 38 39 39 38 32 35 32 33 32 28 27 28 26 29 29 29 30 29 27 27 28 25 20 26 35 33 34 35 36 37 38
40 36 37 37 37 33 34 32 36 40 35 34 38 39 39 40 43 41 38 35 36 35 33 32 32 29 31 29 26 31 28 29 26 26 24 26 29 33 34 34 34 35 36 37
39 38 37 36 38 35 33 33 34 36 36 35 38 37 40 40 40 40 38 37 40 38 41 36 34 27 32 28 29 29 31 31 29 30 30 30 31 32 33 35 36 35 35 36
38 37 36 36 37 35 36 33 35 37 35 30 36 41 42 46 43 42 42 42 41 40 40 36 31 29 34 30 30 32 32 31 31 30 32 33 35 36 37 36 35 34 33 36
37 37 36 37 38 34 35 34 34 36 34 30 34 39 40 44 46 45 44 42 40 39 37 36 32 36 34 36 34 33 34 32 31 29 32 34 34 36 37 36 35 34 33 36
37 37 38 38 37 37 37 31 36 39 38 31 31 40 42 45 45 44 44 41 40 40 39 37 38 38 34 31 32 32 33 35 35 33 35 36 37 38 37 35 34 33 33 37
35 38 38 37 37 38 34 29 40 40 38 31 32 35 41 44 44 43 43 43 43 42 40 38 37 37 37 35 31 31 36 35 35 38 37 37 36 36 35 33 32 35 37 38
38 39 37 38 41 40 37 38 40 41 36 35 32 34 34 44 41 39 44 41 42 41 38 40 38 39 38 33 35 33 31 32 35 34 35 36 36 34 33 31 31 33 35 36
39 36 40 37 35 34 33 41 42 41 36 31 35 33 30 42 41 41 41 41 36 39 36 37 38 36 32 33 31 30 31 31 32 34 35 35 35 35 33 31 30 31 32 34
36 39 36 32 34 39 43 41 35 34 36 35 33 37 33 40 40 38 37 39 34 31 34 38 35 32 32 30 30 31 31 31 32 33 33 35 35 35 35 33 31 30 30 30
33 32 32 36 40 40 37 32 32 33 33 36 36 37 35 39 36 35 38 34 33 29 32 33 32 31 32 30 29 30 30 31 32 34 35 35 35 35 35 36 34 31 29 28
32 34 37 38 37 34 32 31 33 32 30 36 36 37 38 38 41 36 37 32 31 28 33 30 28 30 28 28 28 29 30 31 33 34 34 35 36 37 36 36 35 31 28 25
39 36 33 32 33 28 28 25 29 31 34 35 36 35 38 39 39 37 35 31 30 33 30 28 30 29 29 28 28 29 30 33 34 34 33 34 37 32 33 34 30 26 24 22
33 30 26 28 26 29 30 31 31 33 34 35 36 35 35 37 35 35 31 34 33 28 26 27 28 28 27 28 28 29 30 31 32 32 33 33 34 32 27 26 25 24 24 25
30 30 23 26 29 31 32 33 33 34 35 35 35 34 35 34 33 33 32 30 27 28 27 28 28 27 27 27 28 28 29 29 30 31 31 32 34 33 31 28 27 27 27 27
30 29 26 28 28 27 30 31 32 35 35 35 34 32 31 29 31 30 29 27 24 27 28 27 26 27 27 26 27 29 29 29 29 29 29 29 30 32 30 29 27 27 28 27
27 26 28 29 29 27 30 33 33 35 33 30 31 29 27 31 29 28 30 27 27 27 27 27 26 26 26 25 27 28 27 27 28 28 27 27 25 26 30 28 29 26 21 21

GFSNW_sfc_30mbdewp_063.txt.gz
Dewpoint
39 37 37 38 40 42 41 34 24 35 40 34 33 32 34 37 36 37 34 30 30 29 28 26 26 27 29 30 29 27 29 29 26 29 29 30 28 26 22 16 17 19 19 9
39 37 36 38 40 42 41 33 31 36 38 31 32 34 35 36 34 33 29 29 29 29 27 25 27 28 31 30 29 27 27 25 23 25 27 29 28 27 24 22 22 19 11 9
39 38 36 38 39 42 37 33 29 34 35 36 35 34 33 32 35 33 31 30 30 29 28 29 27 30 31 31 33 31 27 24 21 17 20 27 27 28 24 23 20 19 18 16
38 38 35 37 39 41 37 34 32 35 31 32 34 34 34 33 31 33 34 30 31 28 27 28 29 30 31 33 34 30 27 24 25 24 27 27 26 27 25 23 23 21 21 21
38 36 36 36 38 40 38 34 33 35 32 32 32 34 33 33 35 34 33 32 33 31 29 29 28 29 29 28 31 29 29 27 27 25 27 28 27 27 28 26 26 24 24 25
37 35 36 35 37 39 37 38 39 37 30 31 32 33 34 34 35 36 37 34 33 31 32 33 32 32 31 31 30 29 27 26 24 21 25 27 24 27 27 28 28 28 26 27
38 35 35 35 35 39 39 38 38 34 30 31 32 34 35 36 37 34 37 37 34 35 36 35 34 32 32 31 31 30 27 27 26 23 24 19 21 27 28 27 28 29 28 28
40 34 35 35 34 36 36 40 38 36 29 30 32 33 34 34 35 37 37 38 39 40 35 30 29 29 28 32 34 30 30 28 26 23 23 22 30 30 29 28 32 29 28 29
41 36 36 35 34 34 36 40 41 38 32 28 34 33 34 34 32 33 36 38 39 36 33 29 23 21 24 27 31 34 33 30 25 26 20 16 22 33 33 33 33 36 32 34
41 36 36 38 35 34 35 36 40 38 34 33 35 33 35 38 35 33 34 36 35 34 30 28 27 25 29 25 26 29 30 31 26 25 23 22 23 29 31 30 32 34 36 37
39 40 36 38 35 34 34 33 39 36 34 34 36 37 37 39 37 33 34 31 32 31 27 26 27 26 30 28 29 29 27 27 26 27 23 19 26 32 33 35 34 34 35 37
38 40 37 36 36 37 34 31 33 36 34 33 37 37 38 37 37 41 39 34 36 34 31 30 32 28 30 28 24 31 27 27 25 25 24 26 28 31 33 32 31 34 36 36
38 39 39 37 37 37 35 33 33 33 32 31 35 35 38 39 38 41 37 37 40 38 40 35 34 26 31 27 28 29 31 31 29 29 30 30 30 32 32 34 36 36 35 35
38 38 37 35 35 37 37 35 34 32 33 29 32 40 39 44 41 40 40 41 41 40 41 36 32 26 32 29 29 30 31 31 31 30 31 33 35 35 37 38 36 35 34 35
38 36 36 36 38 39 37 36 35 35 32 29 31 36 38 43 43 42 41 43 41 39 37 35 32 35 34 34 33 32 33 31 30 29 32 32 33 36 37 37 37 36 33 35
38 37 35 38 38 37 37 30 36 35 34 31 27 39 41 44 45 45 43 42 41 40 38 36 37 38 33 30 29 31 33 34 35 33 36 36 35 37 36 35 35 35 33 34
37 36 38 39 37 38 33 29 38 39 35 31 28 33 39 44 44 43 43 42 42 41 39 38 37 36 37 34 30 31 35 35 33 36 35 36 37 36 36 34 33 34 36 37
39 39 39 37 39 41 38 38 41 39 35 33 28 32 36 44 40 39 43 41 42 40 38 39 37 38 37 33 35 34 32 32 34 34 34 34 35 35 34 32 32 32 33 36
39 39 37 38 35 33 33 39 41 39 35 28 31 31 30 42 40 41 41 41 36 39 37 37 37 34 32 35 32 31 31 31 32 32 33 35 35 36 36 33 32 31 32 33
37 37 36 30 33 36 41 39 34 33 34 32 30 38 33 40 39 37 37 39 35 31 34 38 35 34 32 30 30 31 31 31 31 32 32 34 34 35 35 35 35 32 31 31
33 32 32 35 39 39 36 31 29 30 29 34 35 36 35 40 35 35 37 34 33 29 32 32 31 32 32 29 29 29 30 30 31 32 33 34 35 34 34 34 35 36 33 31
31 33 36 38 36 34 30 29 32 31 28 35 35 36 37 38 40 35 36 32 31 27 34 30 28 31 28 28 28 29 29 31 33 34 34 33 34 35 36 36 36 36 34 30
38 35 32 31 31 27 27 24 29 30 34 35 35 35 38 38 39 36 34 30 29 33 29 27 29 30 29 28 28 29 31 33 33 33 34 33 34 34 29 30 34 33 29 26
32 30 24 27 25 29 29 30 30 33 34 35 36 35 35 37 34 34 30 33 32 28 25 26 29 29 28 28 28 29 29 30 31 31 31 32 33 34 31 26 25 24 24 24
30 30 22 25 29 31 32 32 32 34 35 35 35 34 34 33 32 33 32 30 26 27 26 28 28 27 27 27 29 29 29 29 29 30 30 30 31 32 32 31 28 27 27 26
29 28 26 27 28 27 30 31 32 35 35 35 34 32 30 29 31 29 27 28 25 26 29 26 27 27 26 25 27 29 28 28 29 29 29 28 28 29 31 31 30 29 29 28
25 23 28 28 28 27 29 32 33 35 33 30 31 27 26 31 28 26 29 27 27 28 27 27 27 26 26 25 26 26 26 25 26 27 28 28 27 25 25 27 28 28 24 24

GFSNW_sfc_30mbdewp_066.txt.gz
Dewpoint
41 37 37 38 40 42 42 37 32 39 42 36 36 33 35 37 35 37 35 31 30 28 27 26 26 28 29 31 30 27 30 29 27 29 30 30 28 26 23 22 20 21 20 10
42 37 37 38 40 42 41 35 34 39 42 32 32 34 34 35 33 32 30 29 29 29 27 25 27 28 31 30 30 27 28 27 24 25 27 29 28 27 24 24 25 22 16 11
41 37 37 37 39 42 40 36 32 37 39 37 34 34 34 32 35 33 32 30 30 28 27 28 28 29 31 33 32 31 28 26 24 19 21 28 28 28 26 26 23 21 20 17
40 37 37 36 39 41 40 37 33 35 32 33 33 35 34 32 32 34 34 31 31 28 26 27 29 30 30 32 32 30 28 25 26 26 27 27 28 28 27 25 25 21 20 20
40 37 36 36 39 40 39 34 35 35 34 32 34 34 34 33 35 34 32 31 32 31 28 28 27 29 29 28 30 29 30 28 28 26 27 28 28 28 28 27 26 24 24 24
41 36 36 36 36 37 38 39 40 37 32 33 33 34 34 35 36 37 37 34 32 31 32 33 32 31 31 31 29 29 28 28 26 24 26 27 25 27 27 28 28 26 25 26
41 38 36 36 35 38 39 39 39 34 31 32 32 34 35 35 37 35 37 36 33 33 36 35 33 32 32 31 31 30 28 27 27 24 24 19 23 27 29 27 27 29 28 28
40 38 37 35 35 36 35 40 38 36 30 31 32 33 35 34 35 36 37 37 39 40 35 30 28 28 28 32 32 30 30 28 26 23 22 22 30 29 28 29 34 30 28 29
40 41 37 37 36 36 34 40 40 38 32 30 33 33 34 35 34 33 36 38 39 37 34 30 24 22 23 26 30 34 31 29 25 27 21 17 26 34 34 32 33 36 31 32
39 40 37 36 37 36 35 37 39 38 34 34 34 33 35 38 36 34 35 37 36 35 32 29 27 24 28 23 23 27 28 29 25 24 23 21 24 27 30 29 33 36 35 35
39 39 40 36 36 38 34 34 39 34 33 31 35 36 34 37 38 34 36 34 34 33 29 28 28 27 28 28 29 27 26 25 25 25 22 20 26 34 31 35 35 33 35 36
39 38 39 40 36 37 36 33 35 35 31 30 36 35 36 37 37 37 40 35 36 34 32 31 31 27 29 28 24 31 26 26 23 24 24 27 28 32 33 33 33 34 36 37
39 38 39 39 35 36 37 35 35 34 30 29 31 30 33 36 36 37 36 38 40 39 41 36 34 26 30 24 26 29 31 32 28 29 29 29 29 32 34 34 36 36 36 35
38 38 38 37 37 35 37 37 37 33 29 25 26 35 37 41 41 37 39 40 42 41 42 36 32 27 32 28 29 30 30 32 31 30 31 32 34 35 37 38 38 37 35 34
39 39 38 37 37 39 39 38 37 35 29 26 28 30 33 35 42 39 39 39 40 41 38 36 32 36 33 34 34 32 32 29 28 25 29 32 32 35 37 37 38 38 36 34
39 39 39 36 39 39 37 30 38 37 35 27 24 33 38 43 43 42 40 40 42 41 39 36 38 38 33 31 29 31 33 35 33 32 36 36 36 37 37 36 35 35 35 34
39 39 37 38 40 39 33 27 37 39 35 28 25 30 38 43 44 43 43 43 42 41 38 36 36 37 37 33 29 30 33 34 36 36 35 36 37 36 35 35 34 34 35 36
40 40 40 40 38 39 38 39 40 38 32 33 26 28 36 44 40 39 43 41 42 41 38 39 37 37 36 33 33 33 34 33 33 35 34 34 34 35 35 35 33 33 33 35
40 40 38 38 37 34 34 38 40 40 35 28 29 29 30 40 40 40 41 41 35 40 37 35 37 33 32 35 36 35 32 32 33 32 33 34 35 35 35 36 34 32 32 33
39 37 37 32 33 36 42 38 33 32 33 32 27 35 31 37 39 37 37 38 35 31 34 38 35 33 36 32 31 31 31 31 31 31 32 33 33 34 34 35 35 35 34 33
34 34 32 36 40 38 35 31 29 30 28 31 32 36 33 40 32 34 37 34 34 29 32 33 31 29 33 30 29 29 30 30 31 32 32 33 34 34 34 34 35 35 36 35
33 34 37 38 36 33 29 28 31 29 28 35 34 36 37 38 40 36 36 32 31 27 35 31 27 31 28 28 28 29 30 32 33 34 34 35 34 34 34 36 36 36 36 37
38 34 33 31 31 26 25 25 29 29 33 35 35 33 38 37 39 34 33 30 29 33 29 27 29 30 29 28 29 29 31 32 32 32 33 33 34 35 34 28 27 29 34 35
33 29 24 26 25 27 28 30 30 33 34 34 34 35 35 37 34 33 30 33 32 28 26 27 30 30 30 29 30 31 30 30 31 31 31 31 32 32 34 32 27 25 25 26
31 30 22 25 29 31 31 32 32 34 35 35 34 34 34 32 32 32 32 29 27 27 27 29 30 28 29 29 30 30 30 30 30 30 30 30 30 31 31 32 32 29 27 26
29 28 25 26 27 27 29 31 31 35 35 35 32 32 30 28 29 29 26 27 25 27 31 29 28 27 26 28 29 30 28 27 28 29 30 30 29 29 30 31 31 30 30 30
23 24 26 28 28 25 28 32 32 35 32 29 30 28 27 31 28 26 30 28 28 29 29 28 28 27 25 25 25 24 23 23 25 26 28 28 28 29 29 27 27 29 29 24

GFSNW_sfc_30mbdewp_069.txt.gz
Dewpoint
42 39 39 38 40 43 41 40 38 41 43 36 37 33 34 36 34 36 35 31 27 26 25 25 26 27 29 30 29 26 30 29 27 29 30 30 28 26 24 24 23 22 22 13
42 39 38 38 40 41 40 36 37 41 43 33 33 34 33 34 32 31 30 28 28 27 26 25 27 29 30 30 29 27 28 28 25 25 27 29 28 27 25 24 28 24 16 14
42 39 38 38 39 41 40 37 35 37 38 36 33 33 34 31 34 31 31 28 28 26 25 26 27 28 31 33 31 30 27 26 27 21 24 28 28 27 26 28 24 21 20 15
41 38 38 38 38 40 42 37 35 35 34 35 34 33 32 29 31 32 31 28 28 26 23 25 28 29 30 31 30 29 27 26 27 25 26 27 28 28 27 26 25 22 19 18
40 40 37 37 38 40 38 36 35 35 35 34 33 34 33 32 33 34 30 29 29 27 25 28 26 27 27 26 29 28 29 28 28 26 26 27 27 27 28 27 25 24 23 22
40 41 37 37 37 38 36 37 39 37 34 33 32 34 34 34 35 35 35 34 30 30 32 32 30 30 29 29 28 27 27 27 27 24 26 26 25 26 27 27 27 25 24 24
40 40 38 37 37 36 38 39 39 34 32 32 31 34 34 34 36 34 35 35 31 33 35 34 31 31 30 30 29 29 27 26 26 23 24 20 24 27 28 27 27 27 27 27
39 42 38 37 37 36 34 39 38 36 30 31 31 32 34 34 34 35 35 36 37 38 36 29 27 27 27 29 30 29 28 26 25 23 21 21 29 29 27 28 31 29 28 28
39 40 39 37 38 37 32 38 38 38 33 30 32 32 33 34 33 33 35 37 38 37 33 29 23 22 22 23 29 32 29 28 25 26 22 17 29 34 33 33 33 34 31 32
39 40 40 39 37 38 34 35 37 37 30 29 33 31 33 36 36 34 34 36 36 36 32 28 25 22 24 22 22 26 26 27 24 23 22 22 26 28 30 30 33 35 33 34
40 40 39 40 38 36 36 34 36 31 29 26 26 33 34 34 38 34 37 35 35 34 30 28 27 25 24 25 25 24 24 23 23 23 21 20 33 33 28 36 35 35 35 36
41 40 39 39 40 37 38 33 34 33 30 26 28 29 33 34 35 36 38 38 35 34 31 31 30 26 27 25 23 29 24 25 23 23 24 29 28 32 31 32 34 36 37 37
41 40 39 39 39 36 36 34 35 33 29 27 26 28 29 28 29 37 35 38 40 38 40 36 32 26 28 23 24 26 28 31 26 28 27 27 28 31 36 34 36 37 37 36
41 40 39 39 38 38 36 36 37 34 29 26 23 29 34 38 36 32 33 36 42 42 41 37 31 26 31 26 28 28 29 31 28 28 29 31 31 33 37 36 38 37 37 36
42 40 39 39 38 37 39 38 36 36 31 24 25 25 21 22 30 41 38 35 37 38 38 35 30 34 31 31 32 27 29 28 28 25 29 29 33 36 36 37 37 37 38 37
42 40 40 40 38 39 37 30 38 39 37 31 21 25 30 37 35 40 39 37 38 40 40 35 36 37 32 28 27 28 30 31 30 27 35 35 36 37 37 37 37 36 35 36
42 41 39 39 38 40 33 29 37 39 37 30 22 25 32 35 41 42 41 40 41 41 37 36 35 36 36 31 27 28 30 31 33 35 36 34 36 35 36 35 36 35 35 35
41 40 38 40 41 38 35 37 39 38 32 30 25 25 33 41 38 37 42 40 41 41 36 39 35 35 36 31 31 31 31 34 35 35 35 35 35 35 35 36 35 34 34 34
39 38 41 36 37 36 34 39 40 38 32 28 29 27 29 39 39 37 40 40 33 39 36 35 36 32 31 31 32 33 34 33 34 35 34 34 34 35 35 35 35 35 34 34
40 37 35 32 35 42 40 38 33 32 33 32 26 31 29 34 37 35 36 38 35 31 34 38 35 32 33 34 33 33 32 31 31 32 33 34 34 33 33 34 35 35 35 35
36 33 32 38 40 38 34 30 28 29 27 30 29 30 31 38 32 32 37 33 34 29 32 33 31 30 34 32 31 30 30 31 31 32 32 33 33 33 34 34 35 35 36 36
36 36 38 38 35 32 29 28 30 28 26 33 33 35 36 37 36 34 36 32 32 28 35 31 27 31 30 29 29 29 30 32 33 33 34 34 34 34 34 34 35 34 33 34
36 33 32 31 31 25 25 24 28 29 33 35 34 32 37 38 39 35 34 30 29 34 30 27 28 31 30 28 29 30 31 31 31 32 33 33 33 33 34 34 31 27 26 29
32 28 24 26 25 26 28 29 30 33 34 34 33 32 35 37 33 33 30 32 31 28 26 27 33 32 31 31 32 32 32 31 31 31 31 31 31 31 33 33 33 31 27 26
30 30 23 23 26 31 31 32 32 34 35 34 33 34 34 33 32 33 31 29 27 28 27 31 32 32 31 31 31 32 31 31 31 31 30 31 31 31 31 31 31 31 31 28
30 29 26 26 27 27 29 30 31 35 35 35 32 31 30 30 30 29 27 26 26 29 33 33 30 29 30 31 31 31 29 27 28 29 29 30 30 30 30 31 30 30 29 29
24 23 25 25 28 25 26 30 32 35 33 29 30 28 28 31 28 27 29 29 32 33 32 31 29 27 26 27 27 25 22 21 24 24 26 26 27 28 28 28 28 29 30 29

GFSNW_sfc_30mbdewp_072.txt.gz
Dewpoint
42 41 39 40 41 43 41 42 37 43 45 36 37 32 34 36 34 37 35 33 27 25 25 26 26 29 29 30 29 28 31 30 29 30 30 30 29 30 27 24 23 22 22 15
41 41 39 39 40 43 41 37 38 44 44 32 32 34 35 34 33 31 30 28 28 26 25 25 28 29 30 31 31 29 29 28 25 25 28 29 28 28 26 26 27 24 21 16
41 42 39 39 39 42 43 37 33 37 37 37 34 33 32 30 34 32 30 28 28 25 25 27 27 29 32 32 29 30 29 27 28 22 26 29 27 28 27 26 21 24 20 18
40 42 39 39 40 42 42 37 34 35 33 34 34 34 32 29 31 33 30 28 28 26 23 24 28 29 31 31 29 28 30 25 26 25 26 27 30 29 28 25 25 21 22 19
40 41 39 39 40 41 37 36 34 35 35 34 32 32 31 32 32 33 30 29 28 29 28 29 26 27 27 27 29 27 29 27 28 24 26 26 26 27 28 28 27 25 23 22
40 42 40 39 38 38 36 36 38 37 33 32 31 32 31 34 34 35 35 35 32 30 31 31 30 29 30 29 28 27 27 27 27 25 26 26 24 26 27 28 28 26 23 25
40 41 39 38 38 36 38 39 39 35 31 32 30 32 33 32 34 35 34 36 32 33 36 35 31 31 30 29 29 29 27 26 27 25 24 20 25 27 28 28 28 27 27 26
41 40 41 38 38 38 36 37 37 35 28 30 30 32 32 34 35 34 34 36 37 38 37 31 27 28 26 28 29 28 28 26 25 23 21 22 28 28 27 27 28 28 27 28
42 40 40 41 38 39 36 37 38 38 31 30 28 30 32 33 34 34 35 37 38 37 35 31 24 22 22 23 25 31 29 28 25 25 22 19 31 31 31 30 32 30 29 29
43 41 40 40 40 37 38 35 37 35 30 28 30 30 32 35 35 33 35 36 36 36 32 28 26 24 25 22 21 27 26 25 24 24 23 23 33 33 31 30 33 34 34 34
44 42 40 40 40 40 38 35 36 32 28 27 24 23 29 31 35 33 38 36 36 35 31 29 28 26 25 24 24 24 24 23 22 23 22 20 31 30 29 36 36 36 37 37
45 43 41 40 40 40 39 35 36 34 31 28 30 29 29 27 31 34 37 37 37 36 33 31 30 27 27 25 23 27 25 25 24 23 23 29 33 31 31 32 35 36 37 37
46 44 41 40 40 40 38 36 36 36 32 27 28 27 29 30 27 31 35 37 41 40 41 38 34 28 28 24 25 25 28 29 27 27 28 29 30 34 35 35 36 37 37 36
47 45 42 40 39 39 38 37 37 37 32 26 23 26 27 29 30 28 31 37 36 38 42 39 34 29 29 27 29 28 30 30 29 27 28 30 31 32 37 37 38 38 38 37
48 46 43 40 40 39 38 40 40 39 33 24 25 28 27 27 25 28 29 32 32 36 37 36 33 33 31 30 32 29 29 29 29 27 30 30 35 36 37 37 37 37 37 37
47 46 43 41 40 38 38 32 38 39 37 31 24 26 23 25 31 24 37 38 36 37 38 36 36 37 32 28 29 28 29 29 30 30 34 35 36 37 37 36 36 37 36 35
47 45 42 40 39 38 36 32 37 39 38 31 23 22 28 34 36 34 40 39 38 38 37 36 36 36 35 32 28 28 29 31 32 35 35 34 35 36 35 36 36 35 35 35
46 42 40 40 40 40 37 38 39 39 36 31 23 23 27 39 36 35 40 38 38 39 37 37 36 36 36 32 31 31 31 32 34 35 35 35 35 35 35 36 36 36 35 35
42 40 40 38 35 34 36 39 40 39 35 27 27 25 25 37 37 36 39 39 33 38 36 34 35 33 31 33 32 32 34 34 34 35 34 34 34 34 36 36 35 35 35 35
41 38 35 31 36 41 39 37 33 32 32 32 25 28 27 34 35 34 33 37 33 30 34 38 35 32 32 34 33 33 32 32 32 32 32 34 34 33 33 33 34 35 35 35
37 33 32 39 40 38 34 30 28 29 26 30 28 27 27 37 31 31 36 32 34 29 33 33 32 28 32 32 31 31 31 31 31 32 32 33 33 34 34 34 34 34 35 35
36 36 38 37 35 32 28 28 29 27 23 31 31 33 33 36 37 32 34 31 32 28 35 31 27 30 30 29 29 30 31 32 33 33 33 33 33 33 34 34 35 34 31 29
37 34 32 31 30 24 24 23 26 28 33 34 33 31 34 36 37 34 33 30 29 34 30 26 27 31 29 28 30 31 31 31 31 32 32 32 33 33 33 33 34 34 31 28
30 26 22 25 24 26 28 28 29 32 33 33 33 31 33 35 32 32 30 31 32 27 26 27 33 33 32 32 32 33 32 32 32 32 31 32 32 32 32 32 32 32 31 31
29 30 23 25 27 30 30 31 30 34 35 34 33 33 33 32 31 32 31 29 26 28 27 31 33 32 31 31 31 31 31 31 31 31 31 31 31 31 31 31 31 31 30 31
30 30 26 26 24 25 29 29 29 35 34 34 33 30 29 29 30 28 28 26 27 31 33 32 32 32 32 32 32 32 31 29 28 28 28 29 28 29 30 31 30 30 30 29
26 23 25 26 25 24 25 26 32 34 32 29 30 27 27 30 28 27 29 29 31 30 32 30 30 29 31 31 32 31 24 21 24 23 25 24 23 26 28 26 28 29 30 29

GFSNW_sfc_30mbdewp_075.txt.gz
Dewpoint
41 43 41 41 42 44 42 39 34 43 45 33 37 32 35 35 34 37 36 35 30 26 26 27 29 28 29 31 30 29 31 31 29 31 36 35 35 34 30 25 26 21 22 17
41 42 41 41 41 44 42 37 37 42 40 30 30 32 33 35 32 33 30 29 28 27 26 26 29 29 32 32 30 28 30 27 25 27 29 30 28 32 32 27 28 22 18 17
41 42 41 41 40 43 42 37 30 34 38 36 33 32 31 32 35 33 31 29 29 27 26 28 28 29 32 31 28 32 30 28 24 19 24 27 26 28 27 24 18 24 20 21
41 42 40 40 41 43 40 36 34 35 31 33 34 33 32 32 30 33 33 29 30 28 24 27 28 30 31 30 28 28 29 24 26 26 27 29 28 28 27 24 24 20 22 21
41 42 40 39 40 41 37 34 33 35 34 35 31 31 30 30 32 33 33 33 34 31 30 30 27 27 28 27 28 28 29 27 26 24 26 26 26 28 29 26 25 25 25 23
42 41 40 39 39 39 35 36 37 37 33 32 30 30 32 32 35 34 35 35 34 31 31 34 33 29 30 29 28 28 28 26 25 24 26 26 23 26 28 29 28 26 22 23
43 41 41 40 39 39 37 35 37 34 23 29 31 30 31 31 33 34 35 36 33 33 37 37 33 31 30 29 28 29 27 27 27 24 24 17 23 28 29 28 29 28 27 26
44 42 41 41 39 39 37 36 36 33 21 29 27 30 31 32 34 35 35 36 37 38 37 31 27 28 26 28 29 30 30 27 25 22 22 22 27 28 27 27 27 29 28 28
45 43 41 41 40 38 36 36 37 36 29 19 27 26 30 30 32 33 36 37 38 37 35 32 25 21 22 22 23 30 29 28 25 23 21 19 30 29 30 31 30 31 29 28
46 44 42 41 40 41 37 36 36 33 28 30 26 29 29 33 35 34 34 37 36 36 32 31 27 25 25 22 21 26 25 25 23 23 23 23 33 33 32 29 30 33 32 33
47 46 44 41 40 41 37 35 36 31 29 28 27 24 25 29 31 31 36 35 36 35 31 30 28 27 25 24 25 25 23 23 23 21 21 19 31 30 28 34 36 36 37 37
49 47 45 42 40 40 39 35 37 36 32 29 30 29 29 29 29 31 35 37 36 38 33 32 30 28 28 26 22 27 24 24 22 23 22 28 33 32 33 37 36 36 36 37
48 48 47 44 41 40 40 36 37 36 34 31 29 27 30 32 30 29 30 36 40 41 41 38 35 30 28 25 25 26 28 29 26 26 28 28 32 34 35 34 36 37 37 36
47 47 47 45 43 41 39 37 38 37 35 27 24 27 26 29 27 29 28 32 37 36 39 38 35 31 29 26 28 28 29 30 28 28 28 29 30 36 37 37 38 38 38 37
45 46 45 46 43 42 40 39 39 40 35 26 26 29 30 27 27 25 28 27 30 34 35 37 33 33 31 30 31 28 30 29 29 28 30 32 35 36 37 36 36 36 36 36
45 46 45 45 42 40 36 32 37 39 38 31 23 29 26 24 26 28 27 28 30 32 36 36 35 37 32 28 28 30 29 30 30 30 35 35 36 37 37 36 36 36 36 36
46 46 45 43 43 39 35 31 37 39 38 31 25 22 24 32 31 27 30 37 36 35 35 35 37 36 36 34 29 28 29 30 32 35 35 34 36 36 35 36 36 35 35 35
45 43 42 40 40 40 38 40 40 39 34 33 24 19 25 38 35 33 37 37 37 37 36 37 35 35 36 32 33 32 31 31 33 35 35 35 35 35 35 36 36 35 35 35
43 41 40 38 36 34 34 40 40 39 34 26 25 23 22 35 35 36 37 37 31 36 34 34 35 32 32 33 33 32 34 33 34 35 34 34 34 35 35 35 34 34 34 35
40 38 35 31 35 40 39 35 33 32 32 32 25 27 22 32 34 33 33 36 32 30 31 38 33 31 33 34 33 33 33 33 33 33 33 33 33 33 33 33 34 34 35 35
37 33 31 38 40 37 34 29 28 29 25 29 28 28 26 34 30 31 35 32 33 27 32 32 30 29 32 31 31 31 31 32 32 32 33 33 34 34 34 34 34 34 35 34
36 35 38 36 34 31 27 27 29 26 23 29 29 32 31 32 37 32 33 31 31 28 35 31 26 30 30 29 29 30 32 33 33 33 33 33 33 33 33 33 34 35 33 31
36 33 30 30 30 22 23 21 24 26 30 32 33 30 33 34 34 32 32 29 28 34 30 26 27 30 29 29 30 31 31 32 32 32 32 32 32 33 33 32 33 33 33 33
27 23 21 24 23 24 25 26 28 31 32 32 33 32 31 34 31 32 29 31 32 26 25 26 31 33 31 32 32 32 32 32 32 31 31 32 31 31 32 32 31 31 30 31
27 27 21 23 25 29 29 30 29 30 32 32 32 31 33 31 30 32 31 28 25 28 28 32 33 32 32 31 32 32 31 31 31 31 30 29 30 30 30 31 31 30 30 30
30 28 25 26 23 22 28 28 27 33 33 32 33 29 28 28 29 27 27 26 26 28 31 32 32 32 32 32 32 32 31 31 29 28 27 27 24 24 28 29 29 29 29 28
23 20 24 25 25 22 24 24 27 33 32 27 28 25 26 29 26 26 28 28 29 30 30 30 29 31 31 32 32 32 29 24 24 22 23 22 19 21 21 20 25 27 28 28

GFSNW_sfc_30mbdewp_078.txt.gz
Dewpoint
42 43 42 42 42 45 42 38 32 42 44 31 33 30 33 36 34 37 35 35 34 27 26 28 28 30 30 32 31 30 32 30 27 29 34 34 34 32 31 25 26 25 20 17
42 42 42 41 41 44 42 36 37 40 40 29 29 31 32 35 34 32 31 30 29 29 27 26 29 29 31 30 30 29 30 29 26 27 32 35 33 35 33 29 26 24 21 19
42 42 41 41 41 43 41 35 28 33 36 36 33 32 29 30 34 33 34 31 30 28 27 29 29 29 31 32 28 33 31 28 23 20 23 28 28 31 34 28 22 21 21 18
43 42 41 40 41 42 38 34 32 34 26 31 33 33 32 29 30 32 35 31 33 31 25 27 28 30 30 30 29 28 26 24 25 26 29 28 27 28 29 28 24 21 21 20
43 42 42 40 41 40 35 31 30 33 33 34 33 31 30 29 32 33 33 33 33 32 29 29 27 28 28 27 28 28 30 26 25 24 26 26 25 28 28 26 24 25 25 23
44 42 42 40 40 39 33 35 36 35 28 32 31 30 30 32 33 35 36 35 34 32 31 33 34 34 30 29 28 28 28 27 22 20 26 26 21 25 28 28 28 26 22 23
45 43 41 41 39 39 36 35 34 29 19 26 28 29 27 31 32 33 33 35 34 33 37 37 35 31 30 29 28 29 28 27 26 24 24 16 18 28 28 28 29 28 26 26
46 44 42 41 40 39 36 36 35 31 20 24 22 25 27 29 31 32 35 36 37 38 37 32 27 28 27 28 30 29 29 27 24 22 21 20 25 27 28 28 27 29 28 28
47 46 43 41 41 40 36 36 37 34 28 19 28 25 26 29 32 32 35 37 38 37 35 34 25 22 22 23 24 30 29 28 25 24 20 16 27 30 30 31 28 32 29 28
48 47 46 42 41 41 37 35 36 32 27 27 27 22 22 21 30 30 34 37 37 36 32 31 28 25 26 22 21 25 24 25 24 23 22 23 27 33 33 28 26 32 30 29
48 48 48 45 42 41 38 35 37 31 28 28 28 27 24 26 29 26 34 34 36 34 32 30 28 27 26 23 25 25 22 22 23 22 20 17 32 31 30 33 36 36 36 36
49 49 48 47 44 41 39 35 37 36 32 30 31 32 32 29 28 27 29 33 33 38 34 32 31 29 28 26 22 27 23 23 22 23 21 25 31 31 33 37 36 37 37 37
47 47 47 47 47 43 41 37 37 35 34 32 30 27 29 32 32 31 25 26 37 38 40 38 36 31 29 25 25 26 27 29 26 26 26 28 32 33 34 34 36 37 37 36
44 44 44 46 47 44 42 39 38 36 35 28 26 28 26 30 31 31 30 27 30 33 37 38 35 32 30 26 27 27 27 29 28 27 28 29 30 34 36 37 37 37 38 37
42 44 45 46 46 44 42 40 38 39 33 27 29 32 30 28 29 27 29 29 27 29 32 35 34 34 32 31 31 28 30 29 28 27 29 29 33 36 37 37 36 36 36 36
45 46 46 46 43 41 37 32 36 39 40 32 24 28 28 27 27 27 28 28 29 30 33 34 35 38 33 29 28 29 29 30 30 29 33 34 36 37 37 37 36 36 35 36
46 46 45 43 42 39 33 30 37 39 37 30 25 23 24 27 34 27 32 30 31 30 28 29 34 35 35 35 30 29 29 30 30 33 36 35 37 36 36 36 36 35 35 35
45 44 42 42 41 40 37 40 40 39 34 32 24 21 22 37 34 30 33 33 35 35 33 35 35 34 34 31 35 34 32 31 32 35 35 34 35 35 35 36 36 35 35 35
43 42 41 39 37 34 34 40 41 39 33 26 25 21 19 31 32 36 35 36 30 35 33 31 34 32 31 32 32 33 33 32 33 35 34 34 34 35 35 35 34 34 34 34
40 38 34 31 33 38 38 34 33 32 32 31 24 26 24 29 32 32 33 34 32 28 31 36 30 29 33 33 33 33 33 34 34 33 33 33 33 33 33 33 34 34 34 34
36 34 32 37 41 37 32 28 27 28 24 28 27 27 25 33 27 30 34 31 32 26 31 30 28 28 32 30 31 31 32 32 32 33 33 34 34 34 33 34 34 34 35 34
35 35 37 36 32 28 25 24 27 25 22 27 28 31 32 31 34 32 33 30 31 27 35 31 25 29 30 30 30 31 32 33 32 33 32 32 32 32 33 33 33 34 34 34
35 32 29 28 28 21 21 19 22 24 30 32 32 28 34 33 33 31 31 29 28 34 30 27 29 30 30 29 31 31 32 32 32 32 32 32 32 33 33 32 32 32 32 32
26 23 22 24 20 22 21 23 27 30 31 31 31 30 31 34 31 31 28 31 31 26 24 25 32 33 32 32 32 32 32 32 32 31 31 32 32 31 32 31 30 29 29 30
25 26 19 21 23 27 29 30 28 29 31 31 31 29 31 31 30 31 30 28 25 27 27 30 30 31 31 31 32 32 31 31 31 31 29 29 28 28 29 30 30 29 29 29
29 27 23 25 24 21 27 27 26 30 33 33 31 29 28 28 29 26 25 25 24 27 29 31 31 32 32 32 32 32 31 31 30 28 27 26 23 19 26 26 26 27 29 28
23 21 25 25 23 22 23 24 26 33 29 24 27 24 23 27 25 25 28 27 28 30 30 30 29 31 31 32 32 32 31 30 27 22 21 22 17 20 17 16 21 23 26 26

GFSNW_sfc_30mbdewp_081.txt.gz
Dewpoint
44 43 42 42 42 45 41 37 30 42 43 31 31 29 31 35 34 37 35 35 33 29 27 28 30 31 33 34 35 33 32 31 28 31 35 35 34 32 32 25 25 25 18 19
44 43 42 42 42 45 41 35 35 39 38 26 28 30 31 34 34 32 33 32 33 30 27 26 29 31 34 31 30 30 32 28 26 27 31 34 33 32 31 28 26 25 21 19
44 42 42 41 41 43 39 33 25 30 34 35 34 31 29 29 35 34 34 33 32 30 26 29 29 29 34 32 28 32 31 28 23 20 22 31 30 33 32 30 25 24 22 24
44 43 42 41 41 41 35 32 30 33 19 29 33 33 32 30 29 32 34 32 33 31 27 27 27 29 30 30 29 30 27 26 25 26 29 29 29 29 33 31 29 24 24 22
44 43 42 40 40 38 34 27 25 31 29 32 32 32 30 30 31 33 31 33 34 34 29 29 27 28 28 27 28 28 29 25 25 24 27 27 26 28 31 32 31 28 25 24
45 43 42 41 40 36 30 34 34 32 26 27 26 29 26 28 28 35 35 36 34 33 32 32 32 34 33 30 28 27 27 27 22 16 25 25 20 24 28 29 29 28 26 26
45 44 42 41 40 38 34 34 34 27 18 18 17 21 24 27 26 29 34 36 34 34 37 37 36 34 31 29 29 29 27 25 25 24 23 12 15 28 28 28 29 28 27 26
47 45 43 42 41 40 35 35 32 28 19 22 21 24 21 26 29 32 34 36 38 38 36 32 29 28 27 28 30 29 29 28 24 22 21 20 22 27 27 27 25 29 28 27
47 47 45 43 41 41 35 36 36 32 24 21 25 23 26 26 21 25 35 32 40 37 35 34 26 24 24 24 25 30 28 28 25 24 19 13 25 30 30 30 24 32 30 29
48 48 47 46 43 41 37 34 35 31 26 26 27 24 23 26 25 24 25 30 35 38 32 31 28 24 26 22 21 26 26 26 24 23 22 22 25 32 32 26 25 32 31 30
48 48 48 48 45 42 39 34 37 32 29 28 29 28 26 26 26 25 28 22 33 35 32 31 30 28 26 23 24 24 23 23 23 23 21 18 30 31 28 31 36 36 33 32
48 48 49 48 48 44 41 36 37 36 32 30 31 31 31 30 30 28 28 30 25 30 34 32 31 30 29 26 22 27 23 23 23 22 21 23 29 31 32 37 36 37 37 38
45 46 45 45 46 46 41 37 37 36 33 31 29 26 30 34 33 33 27 26 31 34 35 35 36 31 29 27 26 25 27 28 25 26 26 27 29 33 35 35 37 37 36 38
41 41 42 44 46 46 43 40 39 36 33 27 27 29 28 30 30 32 31 28 28 28 28 34 34 32 30 27 27 27 27 29 27 27 28 29 30 33 35 36 37 37 37 37
42 43 44 45 45 45 43 40 39 39 32 26 27 31 31 30 29 30 31 30 29 27 25 32 33 35 32 31 31 28 29 29 27 27 29 29 29 33 37 37 37 36 36 36
44 46 46 46 45 41 37 31 35 39 38 31 24 27 27 27 30 28 27 29 28 29 31 30 33 36 34 31 27 29 29 30 31 29 31 34 36 37 37 36 36 36 35 35
45 46 46 45 42 38 33 29 36 38 37 30 23 22 25 25 35 29 30 29 30 30 29 27 30 34 33 34 30 29 30 30 30 31 36 35 37 36 36 36 36 36 35 35
45 45 44 43 40 39 36 40 40 40 35 31 22 20 20 34 32 31 33 30 32 34 30 32 30 32 32 30 32 34 35 34 31 35 35 34 36 35 36 36 35 34 34 34
43 42 41 38 36 32 35 41 41 40 33 26 25 20 19 29 29 35 34 35 29 33 32 32 33 31 28 28 29 31 33 32 32 34 34 35 35 35 35 35 34 34 33 34
42 38 33 30 33 39 39 34 33 32 33 30 23 25 23 27 30 31 32 33 31 27 29 34 31 28 31 32 32 32 32 34 34 33 33 33 33 33 33 33 34 34 34 34
36 33 31 38 41 36 32 28 27 26 23 26 26 26 25 32 26 28 34 31 32 27 28 30 28 27 31 30 30 31 32 33 33 34 34 34 33 34 33 33 34 34 35 34
34 34 37 35 30 27 25 24 27 24 21 26 27 31 32 32 33 29 32 30 31 25 34 30 26 28 30 30 30 31 32 32 32 32 32 32 32 33 33 33 33 33 33 33
34 30 28 27 27 21 19 18 21 22 29 31 30 27 30 34 32 30 30 28 27 33 29 27 30 32 32 31 32 32 32 32 32 31 32 32 32 33 32 31 31 30 30 30
26 24 22 21 20 21 19 21 24 28 30 29 30 30 28 32 31 31 28 31 31 26 23 25 30 31 32 32 32 32 31 32 31 31 31 30 30 30 30 29 30 28 28 29
24 23 18 21 22 22 26 29 28 28 30 29 28 29 30 30 29 31 29 27 24 27 26 28 30 31 31 31 32 32 31 31 31 30 30 28 25 24 27 29 29 27 28 28
27 25 22 24 24 22 25 26 25 27 31 30 29 28 27 27 28 26 24 24 24 26 28 30 30 31 31 32 32 32 32 31 31 30 27 25 21 17 25 23 23 23 27 27
25 23 23 23 22 21 23 24 25 31 27 23 26 23 23 26 24 24 27 26 28 30 30 31 30 28 29 33 33 32 32 31 29 25 20 20 17 17 16 13 18 21 23 23

GFSNW_sfc_30mbdewp_084.txt.gz
Dewpoint
44 43 43 42 42 45 40 36 27 42 42 32 29 29 30 33 34 36 34 35 33 31 27 31 31 31 35 38 36 32 34 32 27 31 36 36 34 31 30 23 24 23 18 20
44 43 42 42 42 45 39 32 33 39 38 27 27 30 31 33 33 33 35 34 34 31 27 26 29 33 34 35 37 33 32 29 26 27 30 34 33 32 31 26 27 25 22 20
44 43 42 41 41 43 37 29 13 27 33 34 33 32 30 30 32 34 34 35 34 31 26 29 29 33 35 35 33 35 32 28 24 21 22 29 29 31 31 28 25 23 23 24
44 43 42 41 41 41 31 28 28 31 14 22 30 32 32 30 29 33 33 34 36 33 28 27 27 30 34 33 30 31 29 27 26 26 27 31 30 29 31 29 27 23 24 24
44 43 42 41 40 36 30 23 22 29 27 27 29 30 29 24 27 30 32 32 36 34 32 29 27 28 28 28 29 28 29 25 25 24 28 28 27 29 31 30 29 29 27 25
45 43 43 41 39 32 26 32 33 30 23 20 21 24 20 22 25 25 33 30 31 32 34 32 32 33 34 31 28 27 27 26 23 18 25 24 18 23 29 31 32 31 28 28
45 44 43 42 40 35 32 34 32 23 18 20 18 21 23 21 25 26 26 30 33 37 39 38 36 35 32 29 28 29 26 24 24 23 23 12 16 28 28 29 30 31 30 28
47 45 43 42 41 39 33 35 29 25 21 21 22 22 23 24 25 24 23 34 36 38 38 33 30 28 27 28 30 29 28 27 24 21 21 19 22 27 27 26 24 29 29 30
47 47 46 44 41 40 35 34 35 30 24 22 24 24 25 23 23 23 25 30 35 36 36 34 27 24 25 25 27 29 28 28 24 23 19 13 23 31 30 29 24 31 31 30
48 47 47 47 44 42 36 34 34 30 26 26 27 24 24 25 26 25 26 27 30 35 33 30 28 24 25 22 22 25 26 26 24 22 21 22 24 28 32 26 25 33 31 31
49 48 48 48 47 44 39 35 36 32 28 28 29 29 26 26 26 24 27 26 29 28 31 31 31 29 26 24 24 25 24 23 23 24 23 18 25 31 28 30 36 36 34 31
47 47 47 48 48 45 41 37 37 35 32 31 31 31 31 30 29 28 28 28 27 31 28 31 32 30 32 26 23 27 22 23 22 23 23 24 26 32 32 35 36 37 37 37
46 46 45 44 46 46 41 37 37 37 34 30 28 26 28 33 33 32 27 27 31 32 33 31 33 30 30 29 29 25 27 27 25 25 26 27 28 32 34 35 37 36 37 38
41 41 42 44 45 46 41 39 39 36 34 27 25 30 29 31 31 32 32 29 30 29 28 27 31 31 33 27 27 28 27 29 27 27 28 28 29 32 35 36 37 36 37 37
41 42 44 45 45 45 42 40 39 39 32 26 26 29 28 29 28 28 32 31 29 27 24 29 30 35 33 31 30 29 29 28 27 25 29 28 29 32 37 37 37 37 36 36
44 45 46 46 46 42 38 31 34 39 38 30 23 28 27 27 26 30 29 30 29 27 28 27 30 33 35 31 28 29 30 30 31 29 31 33 36 37 37 36 36 36 35 35
45 46 46 44 41 38 33 29 34 40 38 29 23 22 25 25 31 29 29 30 29 29 28 28 27 32 32 32 27 30 31 31 31 31 35 35 36 35 36 36 36 35 35 35
46 46 44 41 40 39 35 39 40 39 33 29 22 20 20 29 29 32 31 28 31 32 28 30 28 29 29 27 31 32 33 33 34 34 35 34 36 36 35 35 35 34 34 34
44 42 40 36 34 31 37 41 41 39 31 24 25 20 19 27 27 32 33 33 28 32 30 30 32 30 27 26 30 31 33 32 32 34 34 35 35 35 35 34 34 33 33 33
41 38 31 29 33 38 39 34 33 32 32 28 24 25 23 28 29 29 31 33 29 27 28 33 31 28 31 31 31 31 31 33 33 33 33 33 34 33 33 33 33 34 34 34
35 32 30 38 40 36 31 28 26 26 22 25 25 25 25 32 26 27 32 29 31 26 28 29 28 27 31 30 30 31 33 33 33 34 33 34 33 33 33 33 34 34 34 34
34 34 37 36 30 26 22 23 27 23 21 24 26 30 30 32 33 29 31 28 30 24 34 29 26 28 31 31 31 32 32 32 32 32 32 32 32 33 33 33 33 31 31 31
32 30 28 26 26 20 18 16 19 22 26 30 30 26 28 32 33 30 30 27 26 33 28 27 29 31 32 32 32 31 33 32 32 32 32 32 32 32 32 31 30 29 29 29
26 24 21 20 21 20 19 19 20 25 29 28 28 26 27 31 30 31 26 28 31 25 23 25 28 30 31 32 32 32 31 32 32 31 29 28 28 28 29 28 28 27 27 28
24 22 18 21 21 21 24 23 27 28 30 28 27 26 29 29 29 30 29 25 24 26 24 28 29 30 31 31 32 32 31 31 31 31 30 29 24 19 24 28 25 24 26 27
26 23 20 23 23 22 24 26 26 26 29 29 29 26 27 26 27 26 23 23 22 25 28 30 30 30 31 31 32 32 32 31 31 30 29 25 20 15 23 21 21 21 24 24
26 24 24 23 22 22 23 25 25 30 26 22 25 22 22 25 23 22 26 25 27 29 30 31 31 30 30 30 32 32 32 31 31 26 20 18 18 14 15 12 16 18 21 22

GFSNW_sfc_30mbdewp_087.txt.gz
Dewpoint
45 44 43 43 43 45 40 36 18 42 42 32 28 27 29 32 33 36 34 35 33 32 31 30 30 29 32 35 33 30 32 32 27 29 35 37 35 31 28 22 23 20 20 17
45 44 43 42 42 44 37 27 32 39 39 27 29 30 30 32 31 33 34 34 35 34 30 29 31 33 36 37 33 32 33 29 25 27 30 35 32 33 29 27 27 23 20 19
44 44 43 42 41 43 33 24 8 25 32 32 27 27 28 30 32 32 34 34 36 33 29 29 31 32 37 38 37 38 35 29 24 19 20 28 29 31 29 27 25 24 24 22
44 44 43 41 40 40 27 25 25 29 11 17 26 29 29 21 22 26 29 32 30 28 30 27 29 33 33 37 36 35 32 29 26 27 27 30 29 30 30 28 27 23 23 24
44 44 43 41 39 35 29 20 21 28 25 26 23 24 22 20 21 24 23 28 27 30 28 31 31 31 32 32 34 33 29 26 25 25 28 29 28 29 30 30 29 28 27 26
44 43 43 40 38 30 26 31 33 27 22 20 19 20 20 21 23 24 25 25 27 29 32 35 36 34 33 32 32 32 27 27 24 21 25 24 17 22 28 30 31 29 27 27
45 44 43 41 38 32 30 33 29 22 19 21 19 21 22 23 23 24 25 27 31 35 37 36 37 36 33 30 29 29 26 24 24 22 22 11 15 27 28 28 30 32 31 31
46 45 43 42 39 37 32 35 27 24 22 22 22 23 23 24 24 24 23 26 33 35 35 33 29 28 27 28 30 29 28 26 24 21 20 19 23 27 27 26 24 28 30 32
47 46 45 43 42 38 34 34 33 28 24 22 24 24 25 23 24 23 24 28 32 34 33 33 26 23 24 25 27 29 28 27 24 23 18 12 22 30 30 29 24 30 31 30
47 47 47 46 43 40 35 35 34 29 26 26 27 24 24 25 26 25 25 26 30 34 32 30 28 24 25 22 22 24 25 26 24 21 20 21 24 27 31 24 25 34 33 31
48 49 48 48 46 43 38 35 36 31 28 28 29 28 26 27 26 24 24 25 27 27 28 29 30 28 27 24 24 25 23 22 23 23 20 17 24 31 28 30 35 37 36 31
49 48 47 48 48 45 40 36 37 35 32 31 31 31 31 30 29 28 28 25 26 30 27 27 29 30 32 28 23 27 23 23 22 23 21 24 24 32 32 33 36 36 37 36
48 47 47 46 48 46 41 37 37 36 34 30 27 25 29 34 32 31 25 27 29 29 31 28 30 29 31 28 30 26 26 26 24 25 25 26 28 29 32 36 37 36 38 38
45 44 44 44 46 44 40 38 38 36 33 25 24 30 29 31 32 32 31 29 30 29 28 26 28 28 35 29 27 27 28 28 27 27 27 28 29 30 34 37 37 36 37 37
40 41 43 44 45 43 41 40 39 39 31 24 25 28 28 29 29 29 31 32 30 28 25 25 28 33 34 31 30 29 29 28 26 25 29 29 29 34 36 36 37 37 36 36
42 43 44 46 44 41 37 31 34 38 37 29 21 27 26 26 27 28 30 31 29 28 27 26 27 31 34 29 28 29 30 30 31 29 30 31 34 37 37 36 36 35 35 35
44 46 46 45 42 36 32 28 33 39 36 27 21 20 24 24 30 30 28 30 28 27 27 28 27 27 32 28 24 28 31 32 33 33 32 34 36 35 36 36 35 35 35 35
45 45 43 40 40 38 33 39 40 38 31 27 20 19 20 27 26 30 31 27 29 31 28 29 26 27 28 22 28 31 31 32 32 33 35 34 36 35 35 35 34 34 34 34
44 41 39 35 32 31 35 41 39 38 29 24 23 20 20 27 27 30 34 31 27 30 29 28 30 29 26 27 31 32 31 32 32 33 34 35 35 34 34 34 33 33 33 33
40 35 31 29 34 41 38 34 32 32 30 27 23 25 22 27 29 27 31 32 29 27 27 32 29 28 30 30 30 31 31 32 32 33 33 33 33 33 33 33 33 34 34 34
35 31 32 37 40 36 30 26 25 25 22 25 25 25 24 30 26 27 31 29 30 26 27 28 27 28 31 32 32 32 32 32 32 33 33 33 33 33 33 33 34 33 33 32
34 35 38 37 31 26 22 22 26 22 20 24 24 28 28 30 33 28 30 28 30 23 33 28 24 29 31 32 32 32 33 32 32 32 32 32 33 33 33 32 30 30 30 29
32 30 28 26 26 19 17 16 19 21 24 27 30 25 27 33 33 29 29 26 25 32 28 26 28 30 31 32 32 32 32 32 32 32 33 33 31 31 31 30 29 27 27 28
27 24 20 20 19 20 18 17 18 24 29 28 27 25 26 31 29 30 26 28 30 25 22 24 28 29 30 32 32 32 32 32 31 30 29 25 23 25 28 28 27 24 24 27
25 23 17 20 20 20 22 21 27 28 29 27 27 25 26 27 28 29 29 25 23 25 23 26 29 29 30 31 32 32 31 31 31 31 30 29 27 18 23 25 22 21 25 24
25 22 20 22 21 21 25 26 26 26 28 28 26 24 25 24 27 25 23 21 21 24 27 29 30 29 30 30 31 32 32 31 31 31 30 26 22 14 21 21 19 19 22 22
26 24 24 23 21 21 24 27 26 28 25 21 24 21 20 24 22 22 25 23 25 28 29 30 29 27 28 31 32 32 32 31 31 30 25 18 19 14 14 12 14 16 20 21

GFSNW_sfc_30mbdewp_090.txt.gz
Dewpoint
45 45 44 44 43 45 43 39 23 43 43 34 30 25 25 32 31 34 34 35 33 32 33 31 30 29 33 29 28 27 29 32 26 30 34 33 35 31 28 25 24 22 22 16
45 45 44 43 42 44 39 30 35 39 41 26 22 24 26 31 24 29 28 33 36 34 32 29 32 31 37 32 31 31 33 31 26 27 32 35 32 33 29 28 29 24 18 16
44 44 44 43 41 44 33 25 16 26 32 29 25 25 24 20 21 28 22 32 29 28 32 31 31 32 37 36 34 37 37 30 26 21 22 29 30 32 30 29 26 24 23 21
44 44 44 42 39 41 30 27 25 28 18 21 24 27 24 19 20 22 25 24 23 28 27 30 31 32 35 36 37 37 34 30 27 28 28 29 30 30 30 28 28 25 23 24
43 43 43 41 37 36 30 25 26 28 24 25 21 21 19 20 21 22 22 22 25 31 28 29 27 30 32 31 36 35 35 29 27 25 28 29 28 30 31 30 29 27 26 25
43 43 42 40 36 32 29 33 34 28 22 21 20 21 21 21 23 22 24 24 27 29 31 30 31 34 36 35 35 32 30 29 27 24 25 24 20 22 29 30 31 29 27 27
43 44 42 40 36 32 32 33 32 24 19 20 20 22 23 22 23 24 24 25 26 30 32 35 36 37 36 33 30 30 27 25 25 22 22 12 18 26 28 28 29 31 30 30
44 44 43 41 39 35 34 35 31 28 21 22 22 24 23 24 24 24 24 25 28 33 35 34 29 28 28 29 30 29 28 26 24 20 18 19 26 28 27 26 26 30 30 30
45 44 44 41 39 37 35 34 33 31 25 22 24 24 24 23 22 22 24 27 29 35 34 33 26 23 23 24 28 29 28 28 25 24 19 12 24 29 30 29 27 32 32 31
47 46 45 44 41 38 36 35 35 32 28 27 27 25 24 26 25 23 24 24 29 31 32 30 27 24 26 22 21 24 25 27 24 22 20 19 24 29 31 24 28 34 35 32
48 47 47 46 44 40 38 36 36 33 29 29 29 28 27 27 26 20 22 25 26 28 28 28 29 28 28 25 24 24 22 21 22 23 20 17 24 31 28 30 34 37 37 32
48 48 49 48 46 43 40 37 37 35 32 31 32 31 32 30 29 27 27 25 27 31 26 26 28 28 32 28 22 27 23 24 22 23 20 25 25 32 33 33 35 37 37 35
49 49 49 49 48 45 41 37 37 36 32 30 27 26 29 33 32 31 25 27 30 28 30 28 28 29 33 27 29 29 26 26 24 25 26 27 28 29 30 34 37 37 38 38
49 48 47 47 48 44 39 38 38 36 33 24 25 30 29 32 33 33 32 29 30 29 28 26 26 28 35 31 29 28 28 28 27 26 28 29 30 31 32 37 38 37 38 37
48 47 46 47 46 43 41 40 39 39 31 24 25 27 29 29 30 31 31 31 30 28 26 25 25 31 33 33 31 29 29 28 26 25 29 29 29 35 36 36 37 37 37 36
45 44 45 46 43 40 38 32 36 39 36 29 21 28 26 26 29 29 30 31 30 29 27 26 27 29 29 27 27 30 30 30 31 30 31 31 32 37 37 37 36 35 35 36
44 45 46 44 41 38 33 28 35 39 36 28 22 20 24 25 30 30 29 31 30 28 27 27 27 26 31 29 22 29 30 32 32 33 34 32 36 35 36 36 36 35 35 35
46 47 44 41 40 38 35 39 39 37 31 27 21 20 22 28 28 31 31 28 30 29 27 29 27 27 27 22 26 29 32 32 33 33 34 35 36 35 35 35 35 34 34 34
45 43 39 35 33 32 36 41 39 38 29 25 24 23 23 28 29 31 33 30 27 30 28 28 30 28 25 25 30 31 31 31 32 33 34 35 35 35 34 34 34 33 33 34
40 35 32 31 35 40 38 34 32 30 29 27 24 25 25 28 29 28 28 32 28 26 28 32 30 27 30 32 33 32 31 32 33 33 33 34 34 34 33 33 34 34 34 34
35 33 32 37 41 35 30 26 26 25 23 25 25 25 25 30 27 27 30 29 30 25 27 28 27 27 31 33 33 33 33 33 33 33 33 33 34 33 33 34 33 32 32 31
35 36 39 39 33 27 23 22 25 22 20 25 25 27 28 30 32 28 29 27 29 22 33 28 23 29 30 31 32 33 33 33 33 33 33 33 33 34 33 31 30 30 29 29
34 32 30 28 27 20 18 15 20 22 24 26 28 27 29 33 32 29 27 25 24 32 28 25 27 30 30 31 32 32 33 33 32 32 32 32 31 31 30 28 26 25 25 27
30 27 20 22 20 21 19 18 20 24 28 28 29 26 27 29 27 28 25 27 30 25 22 24 29 29 30 32 32 32 31 32 31 30 30 28 23 24 27 27 23 22 23 25
28 27 16 21 22 22 21 23 27 28 30 28 27 26 26 27 25 28 27 25 23 24 24 27 29 30 29 30 31 32 32 31 31 31 30 29 29 24 26 25 21 20 23 22
27 24 22 22 22 22 24 26 26 28 29 28 26 24 23 23 25 25 23 22 20 24 28 29 30 29 29 31 32 32 32 32 31 31 30 28 26 20 19 22 21 18 20 21
27 25 24 23 22 23 25 27 27 28 25 22 25 21 21 25 23 22 24 23 25 28 30 31 30 27 27 28 30 33 32 31 31 31 30 29 23 18 17 14 17 18 18 21

GFSNW_sfc_30mbdewp_093.txt.gz
Dewpoint
46 45 45 45 44 46 44 37 32 43 43 34 32 22 22 28 22 27 30 34 34 30 32 31 30 30 31 25 22 25 33 32 27 30 34 31 33 31 28 24 23 24 24 17
46 45 45 44 43 45 37 24 35 41 41 23 23 20 23 20 20 25 21 29 30 27 31 30 34 31 36 32 26 33 35 31 26 27 32 35 32 33 34 28 30 25 21 17
45 44 44 44 42 44 38 24 31 26 26 24 22 22 22 18 21 22 25 24 27 26 27 33 32 31 36 33 32 38 38 34 29 24 26 29 30 32 29 31 25 21 22 20
44 44 44 43 40 44 34 28 30 25 18 20 21 22 22 19 20 21 22 23 23 29 26 25 28 32 34 37 37 37 37 32 28 27 28 28 31 31 29 28 27 24 23 23
44 43 43 42 39 41 30 23 27 24 20 22 20 19 18 20 22 22 20 22 25 29 28 29 28 30 32 32 36 35 35 30 27 27 28 28 28 29 30 29 28 27 26 26
44 43 41 41 39 38 30 33 32 27 21 20 19 19 20 21 23 22 23 25 26 28 29 27 29 31 33 35 35 34 30 28 27 25 25 25 24 27 29 29 30 29 27 28
43 43 41 40 38 36 32 32 29 23 15 17 18 22 22 21 23 23 24 25 24 27 32 35 36 34 35 34 32 31 27 25 24 20 21 15 21 25 27 28 27 29 29 29
44 44 42 40 40 37 34 33 30 25 15 19 22 23 22 23 23 23 23 24 27 31 35 33 27 28 28 28 29 29 29 26 22 20 16 19 26 28 26 26 27 30 30 30
45 44 42 41 40 38 36 34 34 32 19 20 24 23 23 22 21 22 24 27 30 34 34 30 24 22 22 23 26 29 28 28 25 22 18 11 24 28 30 29 26 33 33 32
46 45 43 41 40 39 37 36 36 33 24 26 26 22 22 25 24 23 23 25 30 32 31 28 27 23 25 21 20 22 24 25 23 21 20 18 24 29 31 26 31 35 36 32
46 46 45 43 41 40 38 36 37 34 27 28 29 28 26 25 25 20 23 26 29 30 28 27 28 28 27 26 23 23 22 20 20 22 20 17 26 32 28 31 34 37 37 32
47 47 46 45 42 41 39 37 36 35 32 31 32 31 31 30 29 27 25 26 27 30 27 27 28 29 32 28 24 26 22 23 23 23 22 25 25 27 30 32 33 37 37 35
48 48 47 46 45 42 40 37 37 35 31 29 27 26 29 32 31 31 27 26 30 28 30 28 28 27 31 24 29 29 26 27 24 25 26 27 28 30 31 31 36 37 38 38
48 48 48 49 47 42 39 37 38 36 31 24 25 30 28 31 32 32 31 29 29 29 27 27 27 27 35 30 32 29 29 28 26 25 27 29 31 33 32 36 38 37 38 38
48 49 49 49 45 42 41 40 39 38 33 23 24 27 29 29 29 29 31 30 29 28 26 26 25 28 31 33 31 28 29 29 27 31 29 29 29 31 36 36 37 38 37 36
49 48 48 47 43 41 38 34 38 38 35 29 21 28 26 25 30 30 29 31 30 29 27 26 26 25 25 24 25 29 30 31 32 30 30 31 31 34 37 37 37 36 36 36
47 48 46 43 41 40 35 31 37 38 35 29 23 21 24 26 32 31 30 31 29 28 27 26 26 25 30 26 22 29 28 29 30 32 33 31 35 35 37 37 36 36 35 35
46 46 43 41 40 38 36 37 38 36 31 28 25 21 23 28 30 30 31 29 29 28 26 27 26 26 24 22 22 28 31 31 32 32 33 34 35 36 36 36 35 35 34 34
45 43 40 37 35 34 36 40 38 37 32 27 27 27 26 28 29 31 32 31 27 30 27 26 27 25 24 24 28 31 32 31 32 33 33 34 35 36 35 35 35 34 34 34
41 37 34 32 36 41 39 34 31 30 30 28 27 27 27 29 29 28 29 32 28 26 28 31 29 25 28 33 34 34 34 33 33 32 32 34 35 35 34 34 34 34 34 34
36 33 32 39 40 35 31 27 26 26 25 27 26 26 26 31 27 27 29 27 28 25 29 28 24 25 30 32 31 34 34 34 34 34 33 33 34 34 34 34 33 32 32 30
36 36 39 38 33 28 24 24 26 24 22 25 26 27 29 30 32 27 28 25 29 21 33 28 22 27 30 30 31 32 34 33 33 33 33 33 33 34 34 32 30 30 29 27
36 33 30 28 28 20 20 16 22 23 25 27 29 28 29 31 32 28 27 26 23 31 27 23 25 31 30 30 31 32 32 33 33 32 32 32 31 31 32 31 27 23 23 25
30 26 19 22 20 22 23 23 25 28 29 29 29 27 27 28 28 27 23 25 29 25 23 23 29 31 30 31 32 31 31 32 32 31 31 30 25 25 26 25 20 19 21 24
29 28 18 22 25 25 26 27 28 29 30 29 27 27 27 27 25 25 26 25 21 22 23 29 31 31 30 31 32 31 31 31 30 31 31 30 30 29 29 29 24 19 20 21
29 26 24 24 25 23 25 28 27 30 30 28 28 24 23 23 24 23 21 21 21 25 31 32 32 30 30 31 32 33 33 32 31 31 31 30 29 28 26 26 25 24 21 21
28 26 26 27 27 25 27 28 29 30 26 25 26 22 21 25 22 22 24 24 27 32 33 32 31 28 27 28 27 30 32 32 32 32 31 31 30 29 25 19 21 21 20 19

GFSNW_sfc_30mbdewp_096.txt.gz
Dewpoint
48 47 46 45 44 46 46 40 35 43 44 36 34 23 22 24 20 25 27 33 32 27 30 31 30 29 30 24 20 24 34 32 25 28 31 31 31 28 31 27 23 28 26 19
48 46 45 45 44 46 41 32 37 42 41 22 23 21 22 19 20 24 23 27 26 27 31 30 31 32 35 34 24 35 35 31 26 27 32 34 32 31 33 32 30 25 26 19
48 46 45 45 44 43 45 29 29 31 35 24 22 24 22 19 22 21 22 22 26 29 27 31 31 31 35 36 36 39 38 33 29 26 27 30 29 29 31 31 25 24 29 20
47 46 45 44 44 43 43 30 33 29 25 22 20 20 21 19 20 21 21 23 26 28 26 28 29 32 35 35 37 37 36 31 32 27 28 30 30 31 31 29 28 24 25 23
46 45 44 43 42 44 36 27 23 24 20 21 20 19 20 20 22 21 20 22 26 29 27 28 28 29 32 32 35 35 36 31 28 26 28 28 29 31 30 30 29 27 27 27
45 45 43 42 41 42 33 33 32 28 21 20 19 20 20 21 22 22 22 25 25 27 28 27 28 30 31 33 34 35 32 33 28 27 26 25 25 28 30 30 30 29 27 29
46 44 42 41 42 42 34 33 27 26 18 18 18 21 22 21 22 23 24 24 24 28 32 35 35 34 33 33 34 36 29 27 25 21 22 18 22 25 27 29 28 28 28 29
46 44 42 41 41 41 36 34 31 28 16 20 21 22 22 23 23 24 23 24 28 31 35 34 29 30 29 29 29 29 29 28 24 22 18 21 26 27 26 27 27 31 30 31
45 44 42 42 40 38 37 36 36 33 20 21 22 22 23 22 21 23 25 27 31 34 33 31 24 24 22 26 27 29 28 29 27 23 19 15 26 28 30 29 27 33 34 33
46 45 43 42 40 40 39 36 38 35 25 26 26 23 24 24 24 24 23 26 31 33 32 27 25 24 24 22 21 24 25 25 24 23 21 21 26 29 31 26 31 36 36 32
46 44 43 42 41 40 40 37 38 36 28 29 28 28 25 26 25 23 24 27 30 31 29 27 26 26 28 28 23 23 22 21 22 22 21 19 30 31 30 32 36 37 37 32
47 44 44 42 41 39 40 36 35 36 34 31 32 31 31 31 30 28 26 27 28 29 27 28 28 27 30 26 24 26 23 24 25 24 24 25 26 26 28 30 30 37 37 35
47 46 45 43 42 42 40 37 37 35 30 29 28 27 30 32 31 31 28 28 29 28 30 28 28 27 30 25 29 29 28 27 24 25 27 27 30 31 32 32 37 38 38 38
46 46 46 44 43 41 40 38 39 36 32 24 27 29 30 31 32 31 31 30 29 29 28 27 26 27 33 28 31 30 30 29 27 26 29 31 31 32 35 36 38 38 38 38
47 47 47 46 42 42 41 40 40 38 34 25 26 27 30 28 29 30 31 30 29 27 26 26 26 27 31 32 31 28 29 29 29 32 30 29 29 31 37 36 38 38 37 37
48 49 49 44 43 41 39 34 39 37 36 29 22 28 26 26 30 30 29 30 28 28 26 25 26 25 25 24 24 30 30 30 30 29 32 32 33 34 37 37 36 36 37 37
49 49 46 43 41 39 36 33 38 37 36 30 23 23 25 29 31 31 31 31 29 28 26 27 26 26 30 26 22 28 30 31 31 33 33 33 34 34 36 37 36 36 36 36
48 46 43 40 39 39 36 38 37 36 31 29 25 23 24 29 30 29 32 27 28 28 27 26 26 26 26 22 23 30 32 32 32 33 33 33 34 35 36 36 35 35 35 34
44 42 38 37 35 35 37 39 38 37 33 27 29 22 25 29 30 32 31 31 27 31 26 25 27 25 23 25 29 31 33 32 32 32 33 34 35 35 35 35 35 34 34 34
39 37 34 32 37 40 38 34 31 31 31 29 29 28 26 29 28 27 29 31 29 25 28 31 28 24 29 32 32 32 33 34 33 32 31 32 33 34 34 34 34 34 34 33
37 34 33 39 39 35 31 28 27 27 25 28 28 28 26 31 26 26 27 26 28 23 29 28 25 23 30 32 31 32 33 34 34 34 34 34 35 35 36 34 33 33 31 30
36 37 38 37 34 28 25 24 26 24 23 26 26 28 30 29 30 26 28 24 26 21 31 28 21 26 30 30 30 31 33 32 32 33 33 33 33 33 34 34 32 32 30 26
38 33 32 30 28 23 20 14 22 23 26 28 29 27 29 30 30 27 25 23 23 29 25 22 23 31 30 30 30 31 32 32 32 32 32 30 31 31 32 30 30 30 27 24
29 27 23 25 24 23 22 25 26 29 29 29 30 28 26 27 25 25 22 24 27 24 21 21 28 31 30 30 31 31 31 32 32 31 30 29 28 29 28 24 23 20 22 24
29 28 21 22 26 27 28 30 29 30 31 30 28 27 27 25 24 24 24 25 19 20 20 28 31 30 30 30 31 31 31 31 30 30 29 29 30 29 29 29 27 23 22 25
29 27 23 26 24 23 26 29 29 31 30 29 28 24 23 23 23 22 20 19 18 22 30 32 30 29 30 30 30 30 31 31 30 31 30 29 29 28 27 28 28 28 28 23
29 26 27 28 27 25 28 29 29 31 27 25 25 20 19 24 21 20 22 21 26 32 32 31 30 27 27 29 29 30 30 30 30 31 30 29 30 30 29 27 27 25 24 20

GFSNW_sfc_30mbdewp_099.txt.gz
Dewpoint
49 49 47 46 45 45 47 42 33 43 44 27 32 19 22 23 21 24 28 30 30 27 28 31 28 28 31 34 20 30 34 30 23 26 36 31 30 27 32 26 25 28 23 19
50 49 47 46 44 47 42 37 35 43 41 15 22 21 22 20 22 22 23 24 27 27 30 29 29 31 34 35 34 33 34 30 23 26 30 32 31 31 33 33 30 28 26 20
50 49 47 46 45 47 45 31 24 33 37 24 23 24 22 21 22 22 22 25 28 28 30 32 30 29 34 37 36 38 38 32 29 21 23 29 28 30 31 31 24 29 29 23
50 49 47 46 45 44 43 32 29 29 24 21 22 23 21 21 20 21 22 24 28 27 26 28 29 31 34 34 36 35 36 30 32 30 30 30 29 29 31 30 27 25 28 24
50 48 47 46 45 46 37 25 17 25 20 20 21 21 20 21 22 22 21 23 26 28 27 28 28 29 32 32 33 33 35 29 30 27 28 30 30 31 31 31 30 29 28 27
49 48 46 45 45 39 34 33 32 22 22 20 20 20 20 21 23 22 23 25 24 27 28 28 28 30 30 31 33 33 32 32 29 26 26 25 24 28 31 30 30 29 27 29
48 47 45 44 46 41 34 32 29 21 16 20 20 21 22 22 22 23 24 24 23 28 32 35 35 34 33 32 32 34 31 28 26 23 22 17 22 25 28 30 28 28 28 29
48 46 43 43 45 45 35 34 29 25 17 20 21 22 22 23 24 22 24 25 28 32 35 33 31 31 31 31 33 32 34 28 26 22 19 21 26 27 27 26 29 31 31 32
47 45 43 43 44 44 37 36 37 29 20 20 23 22 23 22 22 23 25 28 31 33 33 32 24 23 26 26 27 29 28 29 27 24 20 16 26 28 30 29 28 35 34 31
46 45 44 43 44 41 36 36 39 29 25 27 25 23 23 24 25 24 24 26 30 33 31 25 25 24 25 22 23 25 26 25 24 24 22 21 27 29 31 20 29 36 34 31
45 45 43 42 42 40 37 36 37 31 28 29 28 28 24 25 26 23 24 27 29 30 28 25 25 25 28 27 24 23 22 22 22 23 22 20 30 31 29 32 34 37 35 32
46 45 43 44 42 40 39 33 36 36 31 30 31 31 31 30 29 27 27 28 28 29 28 27 27 26 28 26 23 28 22 25 25 24 25 25 26 26 29 29 30 37 36 36
45 44 43 42 42 41 38 35 37 32 29 29 28 27 31 32 31 31 25 29 29 29 30 29 29 26 29 25 28 29 31 29 24 25 30 31 33 34 35 36 37 38 39 38
45 45 44 43 42 40 38 36 39 33 29 24 26 30 30 31 32 31 31 29 29 29 28 28 27 27 32 26 30 29 29 30 28 30 30 31 30 33 36 36 38 38 38 40
46 46 45 43 42 42 40 40 38 37 28 25 25 29 29 30 31 31 31 30 28 27 26 26 25 27 28 30 31 28 29 29 30 31 33 33 32 33 37 37 37 38 38 37
47 47 44 44 42 39 37 26 36 37 36 24 22 28 26 27 30 30 30 28 28 27 26 26 25 26 24 24 23 28 29 30 31 30 33 32 33 36 36 37 36 36 38 37
48 47 44 43 40 39 34 31 36 37 36 26 23 22 25 31 31 31 30 30 28 27 26 26 26 26 28 27 24 28 30 31 32 33 32 33 33 32 35 36 36 36 36 37
48 45 42 40 39 38 33 37 38 36 30 30 23 23 22 30 28 29 30 29 28 28 26 26 26 27 26 22 25 31 32 32 32 32 33 33 34 34 36 36 35 35 35 34
44 42 39 36 36 33 34 38 38 36 31 24 25 17 21 28 29 32 30 30 26 30 25 25 26 25 23 24 26 31 31 31 32 32 32 33 33 34 35 35 35 35 34 34
40 37 34 32 37 39 38 33 28 28 29 30 28 28 23 28 27 27 29 31 27 24 27 30 27 25 26 31 31 32 32 32 33 31 30 31 31 33 35 34 34 34 34 32
36 34 33 38 39 34 31 25 23 25 21 27 28 27 27 31 25 26 27 26 27 21 27 25 24 23 28 32 31 31 32 33 33 34 33 34 34 34 35 34 34 33 33 31
36 36 37 37 33 30 28 21 26 24 20 27 26 28 28 30 29 26 27 23 24 19 30 26 21 23 30 30 30 31 32 32 32 32 32 32 33 33 34 33 31 31 31 30
37 34 31 31 29 25 20 16 20 22 26 29 29 27 28 29 28 25 24 22 21 30 23 20 21 28 30 29 30 31 32 32 32 32 32 31 30 31 32 30 30 30 29 24
33 31 27 27 25 25 21 21 23 28 28 29 28 27 26 27 24 24 20 23 26 20 20 19 23 29 29 30 30 31 30 31 31 30 30 29 29 29 27 23 21 20 21 23
32 30 25 24 26 27 29 30 30 30 30 29 27 26 25 24 23 23 23 22 19 19 18 22 29 29 30 30 31 30 30 31 30 30 29 29 29 28 28 29 26 23 23 26
30 27 24 25 23 25 28 30 30 31 30 29 26 24 22 21 22 21 20 18 16 18 22 30 29 29 30 30 30 30 30 30 30 30 30 30 29 28 27 27 28 28 28 28
29 25 28 27 25 25 28 30 30 31 27 23 22 17 17 23 20 19 20 19 21 28 31 30 29 28 28 29 29 29 29 29 29 30 31 30 30 30 28 27 28 28 26 26

GFSNW_sfc_30mbdewp_102.txt.gz
Dewpoint
53 51 50 48 46 48 48 42 34 43 43 28 27 19 22 23 21 24 31 29 28 27 29 30 27 28 30 35 30 31 33 27 23 25 33 32 28 27 32 23 25 26 19 20
53 51 49 48 46 48 44 38 34 42 38 19 20 21 21 21 23 22 24 23 27 27 30 28 26 29 32 37 34 32 33 28 22 23 29 31 30 31 32 31 28 27 21 21
52 50 49 48 47 47 40 32 19 33 34 24 22 22 20 20 22 22 22 26 28 28 30 31 29 27 32 37 38 38 38 32 26 19 21 28 28 30 32 28 24 28 27 26
51 50 48 48 47 48 36 34 24 27 21 21 22 24 21 21 19 21 23 27 28 27 26 28 28 30 31 32 35 34 35 29 31 30 30 30 28 28 30 29 31 29 29 28
51 50 48 48 47 49 36 30 22 23 22 22 21 22 20 21 22 21 21 24 26 28 27 28 27 29 29 30 32 32 34 29 29 27 27 30 30 30 30 32 30 31 32 29
51 49 48 47 47 40 34 34 31 20 22 20 20 19 21 21 23 22 24 25 24 27 28 29 28 29 31 31 32 32 32 30 28 23 25 25 24 29 30 31 30 29 28 28
51 48 48 47 47 41 31 31 30 17 18 19 20 21 21 22 23 22 24 24 23 28 31 34 34 34 33 33 32 32 31 28 26 23 20 16 22 25 30 29 28 29 29 29
50 48 47 47 46 42 32 34 28 20 19 21 22 22 22 23 25 23 23 25 27 31 34 32 31 31 31 30 32 32 33 30 26 21 19 20 26 29 27 27 29 32 32 32
49 47 46 46 46 43 35 36 36 25 20 19 23 22 23 21 22 23 25 28 31 33 32 32 24 22 25 25 27 30 30 30 26 24 20 16 26 28 29 29 28 35 33 30
48 46 45 46 47 44 34 36 38 28 23 27 24 21 23 24 24 23 25 26 30 33 31 25 24 22 27 23 23 25 25 25 23 23 22 21 27 29 31 21 27 36 32 31
46 45 45 46 46 40 34 36 37 28 28 29 29 28 24 26 25 22 24 28 29 30 27 25 24 24 27 26 25 23 22 22 22 23 23 20 30 31 29 31 34 37 34 33
44 45 45 46 42 39 36 34 35 34 30 29 31 31 31 30 29 26 28 27 28 29 27 27 26 25 27 26 21 29 22 25 25 24 24 26 30 29 32 31 30 37 35 35
44 45 45 44 42 40 36 34 35 30 28 28 28 28 30 32 31 31 27 28 30 29 31 29 28 24 28 24 27 28 30 29 24 26 31 31 32 34 36 37 37 38 39 38
45 44 43 44 43 41 37 34 38 29 28 24 26 30 30 32 32 31 31 29 29 29 28 28 27 25 30 26 29 28 29 29 28 29 30 30 31 33 36 37 38 38 39 40
45 45 44 43 42 41 38 37 37 36 24 24 26 29 29 30 32 31 30 29 28 27 25 26 25 27 27 27 29 27 29 29 29 29 32 33 34 36 36 37 37 38 37 38
46 45 44 43 41 38 29 22 32 37 30 26 23 28 26 29 31 30 28 28 28 27 26 26 26 26 25 24 21 28 29 30 31 30 32 32 32 34 34 36 36 36 38 37
45 45 44 42 40 39 33 25 32 37 33 25 23 23 26 31 31 30 29 29 28 27 26 25 26 26 27 26 24 27 30 31 32 32 32 32 33 32 33 35 36 36 37 37
46 44 42 40 38 36 32 35 37 34 30 27 21 22 26 30 27 27 30 27 28 27 26 27 25 27 27 22 25 30 32 31 32 32 33 33 33 35 35 36 35 35 35 34
44 42 39 36 36 31 31 38 37 35 26 24 20 17 17 28 30 30 30 30 25 29 25 25 26 24 23 23 24 30 31 30 31 32 32 32 32 32 34 36 35 35 34 34
41 37 34 32 35 38 37 29 23 25 28 30 25 26 24 28 28 26 27 30 26 23 25 29 25 24 26 27 29 30 31 32 32 31 30 30 30 31 33 35 34 34 34 32
37 34 32 37 39 34 30 22 19 23 17 27 27 26 27 30 25 25 27 25 25 21 23 24 24 23 26 30 31 31 32 32 33 34 33 32 33 33 33 35 34 34 33 32
36 36 37 36 32 32 31 22 25 21 15 26 26 28 29 29 29 25 26 22 23 19 29 23 20 22 29 31 30 30 31 32 32 32 31 32 32 32 33 33 32 32 31 31
38 35 32 31 30 29 27 23 18 21 26 28 28 26 28 28 27 25 24 21 21 29 22 19 21 24 30 30 30 30 31 32 31 31 32 31 30 30 31 31 31 30 28 25
34 31 28 28 25 26 24 20 21 26 28 28 27 27 26 26 24 24 20 22 28 21 19 19 21 26 29 29 30 30 30 30 30 30 30 30 29 29 29 23 21 21 23 22
32 32 28 26 26 28 29 30 29 30 30 27 26 25 25 23 22 23 22 22 19 19 18 20 23 27 28 29 30 30 30 30 30 29 29 29 29 28 28 28 28 24 21 23
31 28 24 25 25 26 29 30 29 30 28 27 26 23 21 22 22 20 20 18 16 17 19 25 28 28 29 30 30 30 29 29 29 30 30 30 30 29 28 28 28 28 27 28
28 25 27 26 26 27 29 30 30 31 25 20 21 15 15 22 20 19 20 19 18 19 29 30 29 29 30 30 29 29 29 29 29 29 29 29 31 30 29 27 26 28 29 28

GFSNW_sfc_30mbdewp_105.txt.gz
Dewpoint
46 47 52 52 48 49 46 42 33 43 42 30 25 20 22 24 22 27 30 29 27 26 29 27 24 27 30 34 34 29 33 25 21 25 30 34 29 27 31 22 24 23 18 22
48 49 51 50 48 49 44 35 37 42 38 21 19 21 22 21 24 22 25 23 27 28 29 25 24 28 31 36 34 32 33 27 20 21 28 30 29 30 31 29 26 25 18 22
47 48 52 49 49 48 40 31 26 35 35 24 21 22 19 20 22 22 24 27 28 29 29 31 28 27 31 36 36 38 37 32 25 19 21 26 26 30 32 26 23 26 25 24
47 52 51 48 49 49 37 33 22 29 21 22 22 22 21 20 18 21 24 27 27 27 26 28 27 29 28 32 34 34 35 29 32 30 29 29 28 28 30 28 30 24 28 27
48 51 50 48 49 48 33 29 25 23 22 23 23 22 20 20 21 21 21 25 27 27 26 27 27 27 28 28 31 32 34 28 30 26 27 30 29 29 30 31 31 32 30 28
50 51 49 48 48 45 34 33 28 21 22 21 20 20 21 21 22 23 24 26 27 27 27 28 28 29 30 30 31 31 31 28 26 21 23 26 23 25 30 30 30 32 27 29
51 50 48 48 48 44 33 32 25 17 18 20 20 21 22 22 22 21 24 25 25 28 31 34 34 33 32 32 32 32 30 28 26 22 19 16 22 26 30 29 29 29 29 29
48 50 49 48 48 45 33 33 26 21 19 21 22 22 22 24 24 24 24 25 26 30 34 31 29 29 30 30 31 32 32 30 25 20 19 20 27 29 31 29 30 33 32 32
48 50 49 48 48 42 35 36 32 24 21 20 23 22 23 22 21 22 25 29 32 34 32 31 23 22 25 25 27 32 32 31 26 23 19 17 25 27 29 29 28 35 32 30
51 49 48 47 47 42 36 37 36 26 24 27 24 21 21 23 23 22 26 27 31 32 31 25 23 22 26 23 24 26 25 25 23 23 22 21 25 30 30 21 25 36 32 31
49 48 47 47 47 42 36 35 37 28 28 29 30 27 24 25 25 22 25 29 29 30 25 24 25 24 26 25 25 23 22 22 22 23 23 20 27 31 28 30 34 37 34 33
48 47 46 47 47 40 37 31 34 33 29 29 31 31 31 29 28 26 28 26 28 29 26 26 26 24 26 25 21 28 23 24 24 23 23 29 33 33 35 36 31 37 36 35
47 45 47 47 45 40 35 32 33 30 27 27 28 28 30 32 31 31 26 28 30 29 30 28 27 24 27 22 24 28 29 30 24 28 30 31 32 34 36 37 37 38 39 38
43 45 47 44 42 40 35 32 36 29 27 22 26 30 30 32 31 31 30 29 30 29 29 27 27 25 29 26 28 27 28 29 28 29 30 30 32 35 35 37 38 38 39 40
46 46 45 44 42 39 37 36 37 34 23 25 26 28 28 31 30 29 29 28 28 27 25 25 25 28 27 27 28 26 28 28 28 28 31 32 33 36 36 35 36 36 37 38
46 45 45 43 40 36 27 23 33 35 31 26 23 28 26 30 30 29 29 28 28 27 25 25 26 27 25 23 22 26 29 30 31 30 32 32 32 34 33 34 35 36 37 37
45 45 43 41 39 38 29 24 31 36 31 25 23 22 27 31 30 29 29 29 28 27 26 25 26 26 26 24 22 25 30 31 32 32 31 31 32 32 34 35 35 36 36 37
45 43 41 39 37 35 30 35 37 34 27 25 20 22 27 30 27 27 30 27 28 26 26 26 25 26 27 23 24 27 31 31 31 32 33 32 33 33 34 35 35 35 35 34
43 41 38 35 34 29 29 38 35 33 26 20 19 20 20 29 30 29 29 30 24 29 24 24 25 24 22 23 23 28 30 29 30 32 31 31 31 31 33 34 34 34 34 34
40 36 32 26 33 38 36 26 20 22 27 29 20 25 24 28 27 26 26 28 25 21 24 28 25 23 25 25 25 27 31 31 32 30 29 30 30 30 31 33 34 33 34 32
36 34 32 36 39 33 27 19 15 21 15 27 27 26 25 29 24 25 26 23 25 20 22 24 22 23 25 26 29 30 31 32 32 32 32 32 32 32 32 32 34 34 34 33
35 34 36 36 32 32 29 18 23 18 12 27 26 27 28 29 28 25 26 22 23 19 27 22 19 21 25 28 29 30 31 31 32 33 31 32 31 33 32 33 33 32 32 31
38 35 33 30 29 28 27 26 21 18 25 27 28 26 27 28 26 24 23 20 20 26 23 20 20 22 28 29 30 30 31 31 31 31 31 31 30 30 30 31 31 31 30 28
35 32 27 28 26 27 27 24 21 23 26 28 27 26 25 26 23 23 19 21 26 21 18 17 20 22 28 29 30 30 30 30 31 30 31 30 29 29 29 27 22 21 26 23
33 32 29 27 27 28 28 28 28 29 29 27 25 25 24 23 23 22 22 22 19 19 17 18 21 23 28 29 29 30 29 30 30 29 29 29 29 29 28 28 28 25 20 21
31 28 26 26 26 27 29 28 28 29 27 27 25 22 21 21 21 21 19 17 14 15 19 20 25 26 28 29 30 30 29 29 29 29 29 29 30 29 29 29 29 28 27 26
28 25 26 26 27 27 29 30 30 29 25 20 21 14 14 22 19 18 19 18 17 18 20 29 28 28 28 29 30 30 29 29 28 28 28 28 29 30 30 28 28 28 28 28

GFSNW_sfc_30mbdewp_108.txt.gz
Dewpoint
43 46 45 47 48 49 45 40 31 43 41 32 25 19 23 24 23 31 29 29 27 24 27 26 24 25 29 33 35 30 32 25 23 25 29 34 29 27 30 22 23 20 20 22
42 46 45 47 50 48 43 37 36 42 40 24 20 22 22 21 23 23 26 24 26 28 26 23 24 27 30 36 35 33 35 26 18 18 23 28 29 31 32 27 26 24 19 22
42 46 45 47 49 47 37 34 30 36 37 27 21 21 20 20 22 22 26 27 28 28 27 30 27 26 31 35 35 38 36 31 25 22 25 27 25 29 31 26 23 25 23 23
45 46 46 47 50 48 35 30 28 33 29 27 23 21 21 20 19 22 26 27 27 27 27 27 26 28 27 31 32 33 34 28 30 30 29 30 29 28 30 29 28 24 26 25
46 46 51 50 48 49 34 28 27 24 22 24 22 22 20 19 20 22 22 25 27 27 26 25 25 26 27 28 31 32 34 27 29 25 26 30 28 29 31 30 31 30 29 28
43 46 48 48 48 45 33 31 26 22 23 22 20 19 21 20 22 23 23 27 27 27 27 28 28 29 30 30 30 30 31 27 25 20 22 27 22 23 29 30 30 30 26 29
45 49 50 49 48 42 34 32 23 19 19 21 19 21 22 21 21 22 25 26 27 29 32 34 34 33 32 32 32 32 30 28 26 21 19 16 22 28 28 30 29 29 29 30
47 50 48 48 49 40 33 32 24 21 19 21 21 22 23 25 24 24 24 25 27 30 34 30 28 28 29 30 31 31 31 29 24 20 18 20 27 28 32 30 31 34 32 31
44 47 49 48 49 42 35 36 32 24 20 20 23 23 24 22 22 22 26 30 32 34 31 30 23 21 25 25 27 32 32 30 25 23 18 17 25 27 28 31 28 35 32 30
45 47 49 48 48 43 36 36 35 27 24 27 24 21 21 23 21 21 26 28 31 32 30 25 23 23 26 23 24 26 24 25 22 23 21 21 24 30 31 21 23 36 32 32
46 50 48 48 48 41 36 34 35 29 28 29 29 27 23 25 24 21 25 29 29 30 25 24 25 24 26 25 24 24 22 22 22 23 22 19 30 30 27 29 33 37 35 33
46 49 48 48 45 40 36 29 34 33 29 29 31 31 31 30 27 26 28 26 28 29 26 25 25 24 25 23 22 28 22 23 23 22 23 30 33 34 35 36 34 37 37 36
49 48 47 47 46 41 33 31 32 29 27 27 27 28 30 32 31 31 27 28 30 29 30 27 27 24 26 23 23 28 29 29 24 28 30 30 33 34 36 37 37 38 39 38
48 47 47 47 46 39 33 30 34 28 26 22 26 30 29 30 31 30 30 30 30 29 29 27 26 24 28 25 27 26 28 29 27 27 30 30 32 34 35 36 36 37 38 40
47 47 47 47 42 39 36 36 36 32 22 24 26 28 28 31 30 29 29 29 27 26 25 25 24 28 27 27 27 25 28 27 28 26 30 30 32 36 34 34 35 36 37 37
46 46 44 43 40 36 28 24 33 33 30 26 23 27 29 30 29 29 28 28 27 27 25 25 26 27 25 24 22 24 28 30 31 31 33 33 33 34 34 33 34 36 36 37
46 44 44 42 39 36 27 23 31 34 30 24 22 23 28 31 30 29 28 29 27 26 26 25 25 26 25 23 20 23 29 31 32 32 31 30 32 32 34 35 35 36 36 36
44 43 41 39 37 35 31 35 36 33 26 24 21 23 27 30 27 26 30 26 27 26 26 27 25 26 26 22 23 25 29 30 31 32 32 31 32 32 33 34 34 34 34 34
42 41 38 33 32 28 29 37 34 33 25 18 20 21 21 29 29 28 28 28 22 28 24 24 24 23 20 20 22 25 30 30 29 31 31 31 31 31 31 33 34 33 33 34
42 37 30 25 32 37 34 25 20 21 28 26 21 26 25 28 26 26 25 28 25 20 23 27 25 23 24 24 25 25 30 30 31 29 29 30 30 30 30 31 32 33 33 33
38 34 31 35 39 31 25 17 14 19 17 27 25 25 25 28 23 24 25 23 24 19 21 23 21 21 25 26 25 26 30 31 31 31 31 30 30 30 30 31 33 34 34 33
36 33 37 36 33 31 21 15 21 16 10 26 25 26 27 28 28 24 26 22 21 17 25 22 19 20 23 26 27 29 31 31 31 32 31 31 31 32 32 33 33 33 32 32
38 36 33 30 29 26 25 19 21 16 25 27 27 26 27 27 26 24 22 19 18 25 22 19 19 21 25 27 29 30 30 31 31 31 31 31 30 30 30 31 31 31 30 29
35 32 26 28 27 25 26 26 23 22 26 28 27 26 24 26 23 23 19 21 25 21 17 14 18 21 25 28 29 30 30 30 30 30 30 30 29 29 29 28 25 22 25 27
33 33 29 27 27 28 27 27 28 28 29 26 25 24 24 23 22 21 22 22 19 20 15 17 19 21 27 28 29 29 29 30 29 29 29 29 29 28 28 29 28 26 22 20
31 29 26 27 27 27 28 27 28 29 27 26 24 21 19 20 21 20 18 16 13 13 19 20 21 23 27 29 29 29 29 29 29 28 29 29 29 29 29 29 29 28 28 27
28 26 27 26 28 28 29 29 28 29 25 19 20 13 13 21 19 17 19 16 15 17 18 22 26 25 28 28 29 29 29 28 28 28 28 28 28 29 30 29 29 29 28 28

GFSNW_sfc_30mbdewp_111.txt.gz
Dewpoint
43 46 45 45 45 48 44 38 32 43 41 33 27 21 21 24 24 31 28 28 26 24 27 24 23 24 29 32 35 31 32 24 23 25 29 35 29 29 30 22 21 20 22 24
44 45 43 45 45 48 43 37 36 43 39 26 22 22 22 21 23 25 25 26 27 27 25 22 24 26 30 35 36 32 34 26 18 16 21 27 27 29 31 26 26 23 20 23
44 45 43 46 45 48 39 35 31 36 38 29 21 21 20 21 23 23 26 27 28 28 27 29 25 25 30 35 33 36 35 31 25 23 26 29 27 28 30 24 22 23 23 23
44 45 44 44 47 49 38 32 33 34 28 29 24 21 20 20 20 22 28 27 27 27 26 27 26 27 27 29 32 34 32 26 30 29 30 30 29 30 30 28 28 22 25 25
45 46 45 44 45 48 39 30 29 26 25 28 24 22 20 20 20 22 23 25 27 27 26 24 24 25 27 27 31 32 32 26 27 24 29 27 26 29 30 30 29 29 28 27
45 47 46 46 49 47 35 32 27 23 24 22 20 20 20 20 22 23 24 27 27 27 27 28 29 29 30 30 29 29 30 26 23 20 23 26 20 24 29 29 31 29 27 29
46 46 46 46 48 44 34 31 25 21 20 21 18 21 21 20 21 22 26 28 27 29 31 33 33 33 32 31 32 31 29 27 25 20 18 15 21 30 28 30 31 29 30 31
46 45 49 49 47 38 32 32 24 21 20 21 21 22 22 24 24 24 24 26 28 31 34 29 27 27 29 30 31 31 31 27 23 19 18 20 26 28 31 29 31 34 31 29
46 50 49 48 44 38 36 35 32 24 21 20 23 23 23 21 22 23 27 31 33 34 31 29 23 20 24 24 27 31 31 27 24 23 17 17 25 27 29 31 29 34 30 30
46 49 47 48 46 40 36 34 34 26 24 27 24 22 21 23 21 21 26 30 31 32 30 25 22 23 26 23 24 25 24 24 21 23 21 21 24 28 31 19 25 37 32 33
44 45 49 49 48 42 34 32 34 28 27 29 29 27 22 23 24 18 25 29 29 30 26 23 25 23 25 25 24 24 22 21 21 22 21 19 30 30 25 27 32 37 35 34
45 47 49 47 48 41 34 29 33 32 29 29 31 31 31 30 26 26 29 26 29 29 25 25 25 25 24 23 21 27 22 22 22 22 22 28 34 34 35 36 35 37 37 36
46 49 48 48 44 39 32 30 32 29 27 27 27 28 30 31 31 31 27 28 30 29 29 26 26 23 25 23 23 27 28 28 24 27 30 31 32 34 36 37 37 38 39 38
46 49 47 44 41 37 32 30 33 28 26 22 26 29 29 31 31 30 30 30 30 29 29 27 26 24 27 24 25 26 27 28 26 27 30 31 32 34 35 36 36 36 37 39
49 48 46 46 41 37 35 35 34 31 22 24 26 27 29 30 30 29 29 29 27 26 25 24 23 28 27 27 26 25 27 27 26 25 29 29 30 35 34 34 34 36 37 37
48 47 46 43 38 33 28 23 33 32 30 25 22 27 29 30 29 28 28 27 27 26 25 25 26 26 25 23 21 23 27 29 30 31 32 33 34 33 34 34 34 35 36 37
46 45 43 41 37 35 27 24 31 33 30 24 22 25 29 30 29 29 28 28 27 26 26 25 25 26 25 23 19 21 27 30 31 32 31 31 33 32 34 35 35 35 35 35
44 43 41 40 38 36 31 35 36 31 25 24 21 23 26 30 27 25 29 26 26 26 26 26 24 26 26 21 22 23 29 30 31 31 30 30 32 32 33 33 34 34 33 34
41 39 36 32 30 28 30 37 33 32 24 18 21 21 21 29 28 28 28 27 21 28 23 23 24 22 18 17 21 24 29 30 30 31 31 31 31 31 31 32 32 33 33 34
38 35 31 25 33 37 33 26 20 21 28 25 21 25 24 28 26 25 25 27 24 18 23 27 25 22 23 22 23 24 29 30 30 29 29 29 29 30 30 31 31 32 33 33
38 35 30 34 39 29 23 17 14 18 18 25 25 25 25 28 22 23 25 23 23 17 20 23 20 19 23 25 24 25 30 30 30 29 29 30 29 29 30 31 33 34 34 34
37 34 37 35 33 30 17 13 20 16 9 25 24 25 26 27 27 24 26 21 20 14 24 22 17 19 22 25 25 26 30 30 30 31 30 30 31 32 31 32 33 33 33 33
38 35 31 31 29 27 24 10 17 14 25 26 27 26 26 27 26 24 21 19 16 25 22 19 17 20 23 25 26 28 30 31 31 31 30 31 31 30 30 31 32 32 31 31
33 30 24 24 23 22 23 23 23 23 27 27 27 26 24 25 23 22 18 20 24 19 16 10 16 20 23 26 28 29 30 30 30 30 30 29 29 29 29 28 27 25 25 28
34 33 23 25 28 28 26 25 27 28 28 26 24 24 24 23 21 21 22 20 19 19 12 16 18 20 24 27 29 29 29 30 29 29 29 29 28 28 28 28 28 26 25 21
32 30 28 27 28 27 27 27 27 29 27 25 23 21 18 19 20 19 16 13 7 9 19 20 20 20 26 27 29 29 29 29 28 29 29 28 28 27 27 29 29 28 28 27
29 26 27 27 28 28 28 27 28 29 24 18 19 12 10 21 18 16 18 14 12 16 18 19 24 23 26 28 29 28 28 28 28 28 28 28 28 28 29 27 28 29 29 29

GFSNW_sfc_30mbdewp_114.txt.gz
Dewpoint
44 44 44 46 45 47 45 40 32 43 43 33 30 28 20 25 25 31 29 29 26 24 26 23 26 26 27 33 35 29 32 26 25 27 29 34 30 30 30 25 22 23 23 25
44 44 45 46 45 46 43 36 36 43 41 26 28 23 24 23 24 27 26 27 27 27 26 22 24 28 30 33 35 32 33 27 22 21 26 29 27 29 30 27 28 24 22 25
44 44 44 45 46 46 43 37 30 35 38 30 23 22 22 22 24 24 26 27 28 28 25 28 24 27 29 34 32 36 34 29 27 22 26 29 28 29 29 27 24 23 24 25
44 45 44 45 46 45 41 36 33 34 28 30 25 23 21 21 21 24 28 27 28 28 25 26 25 28 27 29 32 34 32 28 28 29 29 29 30 29 28 28 26 25 25 26
44 45 45 45 43 45 39 31 32 31 28 31 29 23 20 20 21 23 24 25 28 29 27 25 25 26 28 29 30 31 31 28 28 26 25 26 26 28 28 28 27 27 27 28
44 45 45 45 46 47 39 33 30 26 28 29 27 21 20 19 23 24 25 27 28 27 27 29 29 30 30 30 30 29 30 27 25 23 24 25 23 27 29 29 29 29 27 29
44 45 46 46 46 47 36 31 28 23 21 26 25 21 20 21 22 22 27 29 28 29 31 33 33 32 31 31 31 32 29 28 25 20 19 16 25 30 30 31 32 31 31 30
44 44 45 46 46 45 34 32 25 24 21 22 21 22 22 25 26 26 26 27 29 32 34 29 27 27 28 30 31 31 32 28 22 19 19 23 26 29 32 30 31 33 29 30
44 45 46 47 48 44 36 35 32 27 21 20 23 23 23 22 24 25 28 32 33 35 32 28 23 20 23 23 27 31 30 27 24 22 18 17 24 27 31 31 28 34 31 31
46 50 49 47 43 40 35 34 35 28 24 27 25 22 20 23 22 24 27 31 32 33 30 26 23 22 26 22 22 24 23 24 22 22 20 21 25 28 31 20 27 36 33 34
47 46 44 42 40 37 34 32 35 30 27 29 29 27 23 23 24 21 27 28 30 31 28 25 26 23 25 25 25 24 22 20 20 23 21 19 30 30 24 30 35 37 35 35
46 49 46 46 42 37 34 31 33 33 30 29 31 31 31 30 27 27 30 27 30 32 27 26 27 25 27 24 19 27 21 23 22 22 22 30 34 34 36 35 36 38 38 37
46 49 46 48 44 37 32 31 32 31 28 28 28 28 30 31 31 32 29 29 31 30 30 28 27 24 25 22 23 26 28 28 25 27 29 32 33 35 37 37 37 38 39 38
46 48 48 47 42 36 32 31 33 30 27 23 26 29 29 31 31 31 30 31 31 31 30 28 27 25 28 24 25 27 27 28 26 27 30 31 33 34 36 36 37 37 38 40
49 48 47 43 40 36 34 35 34 32 25 24 26 28 29 30 30 30 30 30 29 28 26 26 25 29 28 28 27 26 28 28 25 24 29 28 30 34 35 34 35 36 37 37
48 45 42 38 37 35 28 24 33 33 32 27 22 28 29 30 30 29 28 29 28 28 27 26 27 27 26 23 21 22 27 29 30 29 31 33 34 34 34 34 35 36 36 37
46 44 42 40 37 36 29 25 31 32 31 26 24 25 29 30 30 30 29 29 28 27 27 26 26 27 28 24 19 20 26 30 32 32 33 33 33 32 34 35 35 36 36 36
45 42 40 38 38 37 31 34 36 32 27 26 23 24 26 30 27 25 30 26 27 27 27 27 25 27 27 22 22 22 27 31 32 32 30 32 33 33 34 34 34 34 34 34
41 39 37 32 31 29 31 36 33 33 25 20 23 21 22 30 28 28 29 28 22 28 24 24 25 23 20 19 21 23 29 31 31 31 31 32 31 32 32 33 33 33 33 34
39 34 28 26 34 38 33 27 22 22 28 26 22 26 25 28 27 26 26 27 24 19 23 27 24 22 23 22 23 24 30 31 31 30 30 30 30 31 30 30 31 31 32 33
38 34 30 35 39 29 24 19 17 19 18 25 26 25 25 29 24 24 25 24 24 18 22 23 22 19 23 26 24 25 30 31 31 30 30 30 29 30 30 30 31 33 33 33
37 35 37 36 33 28 15 14 20 18 12 25 24 25 27 28 28 25 26 22 22 14 25 23 16 20 23 25 25 26 30 31 30 30 30 30 30 30 30 30 31 33 33 34
38 35 30 30 29 25 20 11 12 14 24 27 27 26 27 27 27 25 23 20 17 25 23 18 18 21 23 25 26 28 30 31 31 30 31 31 31 31 31 31 32 32 32 32
34 32 28 24 22 21 24 21 19 26 28 28 28 27 26 26 24 23 18 20 24 20 14 8 19 22 24 26 27 29 30 31 31 31 31 31 30 29 29 29 30 29 29 30
34 32 22 22 27 28 27 26 27 28 29 27 25 25 25 24 22 22 22 20 17 18 8 17 21 21 24 27 29 30 31 31 31 31 30 30 30 29 29 29 28 27 26 25
33 32 29 28 28 27 27 27 27 29 28 26 25 22 19 19 21 19 16 12 5 10 21 24 21 21 25 28 30 30 30 30 30 30 30 30 29 29 29 29 29 29 28 28
29 28 28 29 28 29 29 27 28 29 25 20 20 14 12 22 18 15 18 13 14 18 20 21 22 23 25 28 30 29 30 29 29 30 30 30 29 29 28 28 29 29 30 29

GFSNW_sfc_30mbdewp_117.txt.gz
Dewpoint
43 45 45 44 46 45 45 40 32 43 44 32 31 28 20 25 24 31 28 28 26 23 23 22 27 27 27 32 33 29 30 28 27 27 28 31 32 30 28 29 22 26 22 25
44 45 45 45 45 42 42 36 35 43 42 28 29 23 23 23 25 27 26 26 27 26 24 23 25 30 28 31 33 34 32 28 26 26 25 28 30 28 28 27 29 23 21 26
45 44 44 45 44 45 42 37 30 35 38 33 26 22 21 22 25 26 25 26 27 25 24 25 25 29 27 31 31 35 35 27 28 23 26 29 29 26 29 30 26 26 28 28
43 44 45 45 46 45 41 38 33 34 29 29 24 22 20 20 21 24 26 26 27 28 24 23 24 28 28 28 30 32 31 26 26 26 28 27 27 27 26 26 26 26 27 27
43 45 44 45 45 44 39 33 33 34 30 29 26 21 19 19 21 23 23 25 27 28 26 26 24 25 29 30 29 29 30 27 27 24 25 26 27 28 28 28 27 27 27 28
43 45 44 46 44 45 40 34 33 29 29 29 26 21 19 18 22 24 25 25 28 27 27 28 28 29 29 30 30 29 29 27 25 23 24 23 22 29 29 29 30 28 27 29
44 45 45 46 46 45 39 32 31 24 23 25 24 21 20 19 22 23 27 29 28 30 31 32 31 30 30 30 31 31 28 27 25 20 19 16 26 31 32 31 31 29 29 29
44 44 46 46 47 46 41 33 26 23 19 23 23 20 19 23 26 26 27 28 30 31 33 28 26 26 28 29 30 30 30 27 22 19 19 23 26 29 32 33 30 29 29 29
44 44 45 46 46 45 36 35 33 26 20 20 21 21 22 21 23 27 29 31 34 36 31 27 21 19 21 21 26 30 28 27 24 21 18 16 23 28 31 31 28 32 31 31
44 44 44 45 47 46 36 35 36 28 23 27 24 20 19 23 25 26 28 30 33 34 29 24 23 19 25 19 19 21 21 21 21 20 19 22 25 29 31 23 30 34 33 33
50 49 47 47 47 44 36 34 35 32 27 28 29 27 23 24 24 24 28 28 30 32 28 24 23 21 23 22 24 22 20 18 17 20 18 19 30 30 26 33 37 35 35 35
49 48 48 47 42 38 35 31 33 33 30 29 31 30 30 30 28 28 30 28 30 31 28 26 26 23 27 22 15 26 19 22 21 22 23 31 34 34 35 34 35 37 36 37
45 44 43 42 40 38 35 32 33 30 27 28 28 28 30 31 31 32 29 30 32 32 32 29 27 23 24 18 19 22 26 27 24 26 29 32 34 36 37 37 37 38 39 38
47 49 45 41 37 36 35 33 34 31 26 21 26 29 29 31 31 31 31 32 32 32 30 28 26 24 29 22 25 25 25 28 24 26 29 31 33 34 36 37 37 37 38 40
47 49 45 41 37 37 37 35 34 33 30 22 24 29 30 30 31 31 31 31 31 29 27 26 24 28 27 26 27 23 27 25 23 19 26 27 28 33 36 36 35 36 37 38
49 47 44 40 36 35 31 29 34 33 33 27 22 28 29 30 30 30 29 30 29 28 27 25 26 28 27 22 17 17 25 27 26 26 29 30 32 34 34 34 35 35 35 37
48 45 41 37 35 38 31 30 34 33 33 27 25 24 28 30 29 30 29 29 28 28 27 26 26 27 29 25 17 17 23 29 31 31 33 33 34 33 34 34 35 36 35 36
44 42 39 37 37 38 33 34 37 35 28 28 27 25 25 30 25 25 30 26 27 27 26 27 25 27 27 22 21 21 24 29 32 32 31 32 34 34 34 35 35 34 34 34
42 38 35 33 33 31 33 36 35 36 31 25 26 24 25 29 28 28 29 28 24 28 24 23 26 21 21 20 19 21 26 30 32 32 31 33 33 33 33 33 33 33 32 33
36 33 32 29 35 39 34 32 29 29 30 27 24 27 27 28 26 26 27 27 25 26 24 27 24 21 22 21 22 22 27 30 33 31 31 31 31 32 31 31 31 31 32 33
38 36 33 37 39 32 27 24 22 23 21 25 26 26 25 30 26 26 26 27 27 23 25 23 24 20 23 25 23 23 28 31 33 32 32 31 30 30 29 29 30 31 31 32
38 36 38 37 33 29 18 18 23 20 18 25 25 26 29 28 29 27 26 26 24 20 25 23 19 19 23 25 24 24 29 31 32 31 31 30 29 29 29 30 30 32 33 34
39 37 32 31 30 23 18 11 18 21 25 28 27 27 28 28 29 27 25 23 21 24 24 21 21 25 24 25 25 25 30 31 31 30 30 30 30 30 30 30 31 32 32 32
36 34 28 26 26 24 25 23 22 28 29 29 30 28 27 27 26 25 22 22 23 22 17 11 24 27 26 26 26 28 30 31 31 31 31 31 30 30 30 30 30 30 30 31
34 33 28 28 29 30 30 30 28 30 30 29 27 27 26 26 24 23 23 21 18 19 14 23 28 25 27 28 29 31 32 32 32 32 32 31 31 30 29 29 28 28 28 27
34 32 30 30 28 29 28 29 30 31 30 29 29 24 22 21 24 21 19 16 9 17 24 31 24 22 26 29 31 32 33 32 32 32 32 31 31 30 30 30 30 29 29 28
31 30 31 31 31 32 30 29 28 30 27 24 24 17 15 23 21 18 20 17 22 25 27 26 25 25 26 30 31 32 32 32 32 31 31 31 31 31 30 28 30 30 30 30

GFSNW_sfc_30mbdewp_120.txt.gz
Dewpoint
44 44 46 45 45 45 43 39 32 43 44 33 31 28 21 25 24 30 27 27 26 23 22 21 27 27 27 31 32 32 34 29 27 29 28 31 31 32 28 27 25 29 26 25
44 44 45 45 44 45 41 35 35 42 42 29 28 24 23 23 24 27 26 26 27 25 23 23 26 30 28 31 32 31 33 28 24 26 27 30 30 28 28 29 29 27 24 26
44 45 45 45 44 44 42 37 30 35 37 35 27 22 21 22 25 26 26 27 27 25 23 24 24 28 28 30 31 34 35 28 26 25 29 32 30 27 29 29 26 27 27 29
44 45 45 45 45 44 43 39 33 34 29 30 27 22 20 21 21 26 26 27 27 29 23 22 24 28 29 28 29 31 32 26 26 27 28 29 29 28 29 27 27 27 28 29
44 45 46 45 45 44 40 34 33 34 32 31 27 21 19 19 22 23 24 25 27 27 26 26 24 26 29 29 29 29 30 26 26 24 25 28 28 31 31 33 34 29 31 29
44 45 46 46 46 45 39 34 35 33 29 28 26 23 19 19 22 25 26 26 28 27 28 28 28 29 29 30 30 29 28 27 25 22 24 23 23 31 30 30 29 28 28 30
45 44 46 47 46 45 39 33 33 27 26 26 26 21 19 20 24 24 27 29 29 30 31 31 30 29 30 30 31 31 29 26 25 22 19 19 26 31 32 29 29 29 28 30
46 45 46 45 46 46 42 35 32 27 21 24 23 20 19 25 27 27 28 29 31 32 33 30 26 27 28 29 30 30 30 28 24 20 20 24 27 29 30 30 30 31 29 30
46 45 47 47 47 46 42 37 36 29 24 23 24 20 23 23 26 27 30 32 34 36 34 28 23 20 20 23 27 29 28 28 25 21 18 19 26 29 31 31 27 32 32 32
46 46 47 47 47 46 39 36 37 32 25 28 27 22 21 24 25 28 29 31 33 35 31 25 25 22 25 20 19 22 23 21 22 21 20 22 26 29 30 24 29 33 34 34
44 45 46 47 47 45 38 35 36 34 28 29 29 29 27 26 26 26 30 29 31 32 29 24 24 24 24 23 23 22 20 19 18 20 19 19 30 30 29 34 35 35 36 36
48 46 46 47 48 47 38 33 33 34 32 30 30 30 30 30 30 30 31 29 31 34 31 27 25 24 26 23 19 25 20 24 22 24 25 32 34 34 35 36 36 37 37 37
50 47 46 47 47 43 38 34 34 32 29 30 30 28 30 31 31 32 30 31 33 32 32 30 28 26 25 20 20 22 25 26 25 26 30 32 35 36 36 37 38 39 39 38
49 48 48 47 44 39 36 35 36 35 28 23 27 29 29 31 32 32 31 31 33 32 31 29 27 25 28 25 25 25 26 26 24 27 31 32 34 36 37 37 37 38 40 39
44 43 42 41 41 39 37 37 35 35 33 23 26 29 30 30 31 31 32 32 31 30 29 27 26 27 27 26 26 24 28 25 24 22 29 29 31 35 37 36 36 37 38 38
46 43 41 39 38 38 39 33 35 34 36 27 23 29 29 30 30 30 29 29 30 29 29 27 27 29 27 23 19 19 26 26 27 26 30 31 33 36 36 35 35 35 36 37
46 44 39 38 34 35 31 32 35 34 35 29 24 25 28 30 29 30 30 30 29 29 28 26 27 27 28 26 20 18 25 28 30 33 33 33 34 34 34 35 35 36 36 36
44 41 38 37 37 38 33 35 36 35 31 31 26 25 26 29 26 28 30 28 28 28 28 28 26 27 27 22 23 20 24 29 31 33 31 33 34 34 34 35 35 35 34 34
41 36 36 36 33 33 35 36 37 36 33 26 27 19 23 29 28 29 29 29 25 29 25 24 26 23 20 17 20 22 24 29 31 33 32 34 33 34 34 34 34 33 33 33
37 34 31 27 36 38 35 33 29 30 31 29 26 28 24 28 27 26 28 28 26 23 26 28 23 21 23 24 24 22 25 31 33 31 31 33 33 33 33 33 33 32 32 33
36 34 32 37 38 34 29 25 23 26 20 27 26 27 23 30 26 27 27 28 28 20 26 21 25 23 24 25 23 23 27 31 33 32 32 33 33 33 32 31 31 31 31 32
38 36 38 37 34 29 21 17 24 21 16 25 24 26 30 28 30 28 25 25 23 13 26 23 16 20 23 23 24 24 29 32 33 32 32 31 30 31 30 30 30 31 32 33
40 37 30 30 30 20 20 8 16 20 25 27 28 26 29 28 30 28 25 21 18 25 23 17 18 26 24 24 25 26 30 32 32 31 31 30 30 30 30 30 31 32 33 33
34 29 24 25 25 24 24 24 24 29 30 29 30 27 27 28 26 26 19 24 24 20 15 7 20 26 24 25 26 27 31 32 30 30 30 30 30 30 30 31 31 31 31 31
35 34 29 29 29 30 29 30 27 30 30 30 28 27 27 26 23 24 23 20 15 18 9 19 28 25 26 26 27 29 31 31 30 31 30 30 30 29 29 29 29 29 28 28
34 33 30 31 28 29 29 28 29 31 31 30 30 24 23 19 22 20 16 14 5 11 21 30 24 21 27 27 29 31 31 31 31 31 31 31 30 29 29 29 29 28 28 27
32 30 34 33 32 31 30 30 30 31 29 23 25 18 14 24 19 17 21 16 17 29 28 27 25 24 25 29 31 32 32 31 31 31 31 30 31 30 29 27 29 29 29 29